ECMWFFLT2_sfc_temp_000.txt.gz
Temp
81 83 82 81 82 64 66 72 63 67 71 71 57 57 60 59 53 51 51 60 58 61 65 67 70 73 73 76 78 77 75 76 76 76 77 78 78 78 78 78 78 78 79 79 80 80 80 80 79 79 79 79 78 77 77 76 76 75 74 75 73 73 72
80 87 85 84 85 75 68 67 67 72 75 71 60 52 50 51 46 47 56 58 56 62 54 64 69 69 72 74 75 78 76 75 74 76 76 77 78 78 78 79 79 79 79 79 81 81 81 81 81 80 79 80 79 78 78 76 76 74 75 75 74 73 72
82 84 83 81 82 83 77 76 76 73 58 62 58 54 50 48 48 47 51 56 55 56 56 62 65 68 68 71 73 75 74 75 75 76 76 77 78 78 77 77 77 77 78 79 80 81 82 82 81 81 81 80 79 79 79 78 77 77 76 76 75 74 74
79 80 77 66 74 79 80 80 75 75 68 60 55 60 50 53 43 49 47 53 50 57 60 66 68 69 69 71 72 74 76 76 77 77 76 75 76 76 77 78 78 78 79 80 81 81 81 81 81 81 81 81 80 79 78 78 78 77 76 75 75 73 74
80 68 71 70 70 69 69 70 66 70 70 66 69 62 57 55 43 40 41 48 46 52 63 70 71 71 72 73 73 74 76 76 78 78 77 76 76 77 77 78 77 78 79 80 81 82 82 82 81 81 81 80 80 79 78 78 77 76 76 76 75 74 74
66 68 76 80 77 77 69 69 66 66 61 61 58 51 58 57 51 42 47 46 46 57 70 71 72 74 75 75 75 74 75 77 77 78 78 77 76 76 78 79 79 79 79 80 82 82 81 81 81 80 80 80 80 79 79 79 78 78 77 76 75 74 74
67 75 81 86 83 81 77 77 70 73 63 60 57 49 51 59 58 57 50 47 49 57 68 72 72 72 75 75 76 76 77 78 78 79 79 77 78 78 79 80 80 80 79 80 80 80 80 79 79 79 79 80 79 79 79 78 78 77 78 77 76 74 74
72 78 81 84 81 82 74 75 73 72 67 66 57 50 50 57 55 55 55 53 47 57 64 72 73 73 76 77 78 77 77 79 79 78 77 76 76 76 79 81 81 80 80 80 79 79 79 78 78 78 78 79 79 79 79 78 78 78 78 77 76 74 74
59 64 69 73 77 79 68 64 72 73 72 72 65 61 57 60 54 56 50 46 50 59 68 68 74 76 77 77 79 79 77 76 78 77 76 76 76 76 77 78 79 79 79 78 78 78 77 77 78 78 78 78 78 78 78 78 78 79 78 78 77 75 75
45 47 50 52 56 64 69 70 73 76 74 73 67 62 58 51 49 55 51 47 47 58 67 69 70 74 74 75 75 76 78 75 76 75 75 74 74 75 76 77 78 78 78 78 78 77 77 77 77 77 77 78 78 78 78 79 78 78 78 78 77 76 76
51 56 52 60 65 66 69 70 74 73 74 76 71 57 50 55 43 57 44 54 57 66 67 66 69 72 75 72 70 72 72 72 74 74 73 73 74 75 77 77 78 77 76 77 77 77 78 78 77 77 77 77 77 77 77 79 79 78 77 77 76 76 77
63 62 62 69 74 72 73 72 73 73 73 71 69 62 58 53 53 48 45 51 64 66 68 68 69 71 72 70 70 73 72 72 74 74 73 75 73 74 75 75 76 76 77 77 77 77 77 77 77 77 77 78 77 76 77 78 78 78 78 77 76 76 76
71 72 70 70 74 76 74 75 74 73 72 69 68 63 67 59 60 56 56 55 65 69 72 73 73 74 73 72 73 77 76 74 71 71 71 72 73 73 73 73 74 75 75 76 76 77 77 78 77 77 77 77 77 77 78 77 78 77 78 76 76 76 76
69 70 72 73 73 74 76 76 75 76 74 70 72 70 68 67 61 68 64 59 65 73 73 76 77 75 76 74 74 74 73 74 72 72 70 72 71 72 73 74 74 75 76 76 76 77 77 77 77 77 76 76 76 76 77 77 77 78 77 76 76 76 75
69 70 72 72 71 72 73 77 78 78 77 76 75 76 74 68 64 64 62 61 60 70 78 78 76 71 71 71 72 75 74 73 73 73 73 71 71 71 72 72 73 75 75 76 76 76 76 77 77 77 77 77 77 77 78 78 77 78 78 76 76 76 74
62 69 71 71 71 73 74 72 72 72 71 67 70 69 69 64 61 62 62 60 61 69 68 71 69 69 73 73 71 71 69 73 73 72 72 71 69 70 72 73 73 72 72 72 73 74 76 77 77 77 77 77 77 76 77 78 79 79 78 77 76 74 73
56 67 71 72 72 69 65 68 71 71 70 71 74 72 70 69 70 60 58 61 70 71 69 69 65 70 72 72 73 72 70 70 73 71 71 71 72 72 70 71 72 73 74 74 74 75 77 77 77 78 78 77 76 77 77 78 77 77 77 77 73 73 74
53 66 69 65 58 52 54 63 74 75 73 72 71 68 69 68 66 64 66 70 69 68 70 72 69 70 72 73 70 74 72 70 70 71 72 73 73 72 72 71 73 73 74 74 75 76 77 78 79 80 79 78 79 79 79 78 77 77 77 75 73 73 72
56 59 65 60 51 51 62 67 74 77 76 76 71 71 71 70 69 67 66 65 65 70 72 72 71 71 70 71 72 72 73 73 73 71 70 70 71 72 71 69 71 72 73 74 74 74 76 78 78 79 78 79 79 78 78 77 78 76 74 72 70 69 69
54 50 51 50 48 58 65 69 73 74 74 70 71 68 71 69 68 68 67 67 67 69 71 72 71 71 70 70 71 71 71 74 75 74 74 74 73 73 73 72 70 72 73 74 75 75 77 77 78 79 79 80 79 80 80 75 72 71 70 68 67 67 67
52 48 48 50 57 63 63 68 69 69 68 65 65 55 64 67 67 68 65 67 71 70 69 70 70 71 72 69 73 74 73 70 74 79 77 77 74 73 71 72 71 71 74 75 76 76 76 77 78 79 80 80 79 77 72 68 70 69 68 67 66 66 67
53 48 46 47 53 50 55 59 69 74 73 72 66 59 58 65 70 70 69 67 68 70 72 72 71 73 70 66 72 71 77 74 72 74 76 78 76 72 71 70 70 70 71 73 75 75 73 73 73 74 76 76 72 69 68 69 68 67 68 67 67 67 67
55 45 40 46 43 47 53 61 68 71 72 73 64 57 51 61 68 69 68 70 70 71 71 67 69 69 64 61 62 64 69 77 78 77 76 77 78 77 78 77 74 73 71 72 74 74 74 73 71 72 72 71 68 67 68 68 69 69 67 67 67 67 68
48 46 44 48 51 54 61 65 68 71 70 72 69 52 48 60 68 67 70 69 67 65 65 67 69 68 62 64 64 68 76 74 77 77 76 73 74 75 73 73 72 72 73 73 71 71 70 68 69 71 71 70 69 68 68 70 70 70 70 70 70 70 70
53 53 50 52 57 61 66 67 71 72 71 61 48 42 54 65 64 67 67 69 67 66 66 65 65 65 65 65 71 76 75 78 77 76 76 73 75 74 73 72 72 70 70 72 71 71 70 69 70 71 72 71 70 70 69 69 70 72 72 72 72 71 71
52 51 52 50 52 63 67 68 71 70 65 49 51 58 60 64 64 68 70 69 69 69 69 68 67 68 72 73 73 75 76 75 73 75 76 74 74 72 72 70 69 68 67 66 68 69 69 70 72 72 71 71 70 68 68 69 71 73 73 73 74 72 71
53 49 48 51 45 55 69 69 65 66 55 58 61 65 66 68 66 67 68 69 68 69 67 67 67 69 72 73 72 71 72 71 71 72 73 73 76 71 68 69 70 70 67 66 68 68 69 71 72 73 73 70 69 69 68 70 73 72 71 72 73 74 74
48 46 46 45 55 62 70 66 59 62 64 66 65 67 65 68 69 68 67 67 67 68 68 67 68 69 71 71 70 69 69 69 69 69 68 67 69 71 73 72 70 70 68 68 68 68 69 69 70 72 72 70 69 69 69 72 72 72 69 70 69 69 68
50 51 53 59 63 65 70 70 67 67 68 69 69 69 68 68 68 68 68 68 69 69 70 70 69 69 69 68 69 68 67 67 66 66 67 67 68 68 68 71 70 69 70 68 68 68 68 68 69 71 72 71 70 69 70 71 70 72 70 69 68 68 68
63 64 62 64 65 66 68 70 70 70 70 70 70 69 67 67 68 68 68 69 69 70 70 71 68 68 68 69 68 67 67 67 66 65 66 66 67 67 68 68 70 69 69 68 68 68 66 68 67 69 69 69 67 67 68 69 70 69 70 69 69 68 67
49 49 61 62 62 65 67 67 69 71 71 69 68 66 65 65 68 69 69 70 70 69 70 69 68 69 70 71 67 64 64 64 63 64 64 66 65 66 67 68 70 68 67 67 67 68 66 67 69 70 69 69 69 69 68 69 68 70 71 69 69 68 67
53 54 58 62 65 65 66 65 65 65 67 70 69 67 67 67 68 69 69 70 70 72 70 69 70 70 69 69 69 66 65 64 63 62 63 64 65 65 66 68 68 67 67 66 66 66 65 67 68 69 70 69 70 70 71 70 70 69 69 68 68 68 68
57 61 62 61 64 66 66 67 66 66 66 67 68 69 70 70 70 70 71 71 69 70 69 70 69 70 70 68 67 68 64 63 63 62 61 61 62 63 65 66 67 68 67 66 66 65 65 67 68 69 69 69 69 67 68 68 68 68 68 68 66 66 66
51 52 59 62 56 56 61 65 67 67 67 69 68 69 69 68 68 68 69 69 69 69 69 68 66 67 68 69 68 69 68 65 64 63 63 63 65 65 65 65 65 66 67 66 65 65 65 67 67 67 66 66 66 66 66 66 66 63 64 65 66 65 65
52 59 63 61 61 60 62 65 65 66 67 68 68 67 68 68 68 68 67 67 65 65 67 70 68 67 67 69 68 67 68 66 66 66 65 65 65 65 66 66 65 65 65 66 65 64 64 65 65 65 64 64 64 65 64 64 64 63 62 63 66 65 65
59 62 64 61 58 60 63 64 64 65 66 67 68 68 69 69 69 69 69 67 66 65 66 69 70 68 67 69 68 66 67 66 65 65 65 66 66 67 66 66 65 65 64 64 64 64 64 65 66 65 64 65 65 66 65 64 64 63 63 61 62 63 64
57 62 64 64 63 63 65 64 66 67 67 69 68 68 69 69 70 69 68 66 66 68 66 67 69 68 67 68 68 67 66 66 66 65 65 65 67 67 67 66 65 65 65 65 65 65 65 66 66 66 65 64 65 67 67 67 66 65 65 66 67 68 68

ECMWFFLT2_sfc_temp_003.txt.gz
Temp
76 76 78 78 78 61 62 66 60 65 68 68 52 53 54 52 50 50 47 57 55 58 66 64 64 68 68 73 75 76 75 76 74 74 75 76 76 77 76 77 76 76 77 77 78 78 78 78 77 77 77 77 77 77 76 76 76 75 73 74 74 74 73
75 79 80 81 81 74 64 60 64 65 69 64 60 52 49 46 44 45 51 55 54 57 51 58 65 64 65 70 72 76 75 75 73 75 75 76 76 76 77 77 77 77 77 77 78 79 79 79 78 78 78 78 78 78 77 76 76 74 74 74 74 74 73
73 77 76 74 78 81 79 74 72 70 55 58 52 50 47 44 45 43 49 51 49 54 55 57 61 63 64 68 70 72 71 73 73 75 75 76 77 77 76 76 76 76 76 77 78 79 80 80 79 79 79 79 79 78 78 78 77 77 76 76 76 74 73
73 73 73 65 71 73 75 73 69 70 65 51 54 57 50 53 43 43 45 47 54 55 53 62 64 64 65 67 68 71 73 73 74 75 75 75 75 75 76 76 76 76 77 78 79 79 79 79 79 79 80 80 79 79 78 78 78 77 76 75 75 74 74
71 66 67 70 70 63 64 68 62 67 65 61 60 57 52 54 39 39 38 47 45 51 57 63 68 65 67 70 70 71 72 73 75 76 76 76 76 76 76 76 76 77 77 78 79 80 80 80 80 80 80 80 80 79 78 78 77 77 76 76 75 74 73
59 60 67 75 71 74 69 70 64 65 60 59 55 53 57 52 51 39 42 48 45 57 62 66 69 67 70 72 73 72 72 74 74 76 77 77 76 76 77 77 78 77 77 78 79 80 80 80 80 80 80 80 79 79 79 78 78 78 77 76 75 74 73
64 69 72 73 78 78 74 75 69 69 62 58 53 46 50 54 56 53 48 49 51 55 60 64 66 67 71 72 73 72 73 74 75 76 77 77 77 77 78 78 78 78 77 78 79 78 79 79 79 79 79 80 79 79 79 79 78 78 79 77 76 74 73
64 70 71 72 72 73 69 70 70 68 64 65 60 55 52 58 52 53 52 50 43 53 55 61 65 66 69 71 73 74 74 75 76 76 76 75 74 76 78 79 79 78 78 78 77 77 77 78 78 78 79 80 80 80 79 79 78 78 78 78 76 74 73
56 64 64 67 68 71 62 61 66 69 68 68 58 54 51 58 51 54 50 46 49 55 60 63 65 68 71 71 73 74 73 73 75 75 75 74 74 75 75 76 77 77 76 76 76 77 77 77 78 78 78 79 79 79 79 79 79 79 79 78 76 74 74
44 45 48 50 55 59 61 61 67 69 70 64 62 58 56 51 48 51 49 44 46 55 58 64 65 66 68 71 73 73 73 73 74 74 73 72 73 73 75 75 75 75 75 76 76 76 77 78 78 78 78 79 79 79 79 80 79 79 78 78 76 75 74
53 54 48 54 58 57 65 64 69 68 71 71 68 53 51 54 41 53 40 52 54 60 64 61 66 65 69 69 68 70 71 70 71 72 73 72 73 74 74 75 76 75 74 74 75 76 77 78 78 78 78 78 79 78 78 79 79 79 78 77 75 74 74
63 62 57 60 65 66 66 65 66 68 69 68 64 60 60 52 52 48 44 43 60 62 61 63 64 67 68 69 70 71 71 71 71 70 71 74 72 73 74 75 74 74 74 74 75 76 76 77 78 78 78 78 78 78 78 78 79 78 78 76 75 74 74
65 68 68 67 65 65 66 68 68 67 67 65 66 63 61 57 63 57 51 48 59 63 67 68 69 70 70 70 71 74 76 73 69 69 69 70 72 73 73 74 73 73 73 73 74 75 76 77 77 77 77 77 77 77 78 77 78 78 78 76 75 74 74
66 66 70 72 69 68 68 67 68 70 68 67 69 68 61 65 59 64 60 52 61 67 70 71 73 74 75 74 71 68 70 72 70 69 69 71 72 72 73 73 73 73 74 74 74 75 75 76 76 76 76 76 77 77 77 78 77 78 77 75 74 74 73
63 66 68 69 68 68 68 67 68 69 69 68 70 69 63 64 62 63 58 55 59 66 69 75 75 67 67 67 70 74 72 69 69 69 69 71 72 72 72 72 72 72 73 74 74 73 74 75 76 76 76 77 77 77 78 78 77 78 77 75 74 74 73
57 66 66 66 66 64 65 67 69 67 63 61 62 62 60 62 62 58 55 53 56 66 65 63 62 66 70 70 70 69 68 69 69 69 70 70 70 70 71 70 70 70 70 71 72 73 75 75 75 76 76 76 76 76 77 77 78 77 77 76 75 74 73
52 63 66 64 63 62 59 61 66 68 63 61 64 64 63 65 61 57 55 58 68 66 64 65 62 66 69 72 71 70 68 68 70 70 70 70 69 69 69 69 69 70 72 73 73 74 75 76 76 77 77 76 76 76 76 77 77 76 76 75 74 73 72
50 59 62 62 58 52 47 55 61 65 67 67 65 62 63 63 61 57 63 68 63 61 66 67 62 64 69 73 73 74 74 68 66 67 68 69 69 68 68 69 70 70 70 70 72 73 74 76 77 78 77 77 77 77 78 78 77 76 75 75 73 72 70
50 54 60 56 50 47 59 64 68 70 70 68 64 62 61 61 61 61 66 63 62 65 69 71 69 68 66 65 68 69 69 70 70 69 67 66 67 68 69 69 70 70 71 72 72 71 72 75 75 75 76 77 77 77 76 75 74 73 73 72 70 70 69
47 51 54 52 47 58 62 69 67 70 72 69 69 63 64 62 62 61 61 61 60 60 63 63 64 66 66 66 65 66 68 68 69 69 69 69 70 69 69 69 69 69 70 72 73 73 75 74 74 76 77 78 78 76 73 74 72 72 71 70 69 69 68
52 45 47 52 59 61 62 63 65 64 64 65 67 56 61 63 62 59 59 61 61 62 64 66 67 69 72 69 68 68 68 68 69 74 74 74 73 74 72 72 72 70 71 72 73 72 71 73 74 76 77 77 75 73 73 72 71 71 70 68 68 68 68
46 46 44 52 49 47 53 58 65 69 69 68 68 66 61 63 65 62 62 65 64 64 65 66 68 73 73 66 67 70 67 67 66 70 74 74 73 71 70 68 67 67 67 69 71 72 71 71 73 72 74 75 73 71 70 69 69 68 68 67 68 68 68
45 45 45 42 42 49 53 60 66 69 69 66 65 64 55 64 64 64 63 65 67 71 71 68 69 71 64 61 64 66 66 68 72 72 72 73 72 70 71 71 68 68 69 71 71 71 71 71 71 72 73 72 71 69 68 68 68 67 66 66 67 68 67
47 43 42 46 49 53 59 63 66 69 69 68 65 53 48 60 65 64 64 63 62 61 63 67 66 65 59 57 66 70 68 70 70 69 69 68 68 68 68 69 68 68 69 71 68 69 70 71 70 71 71 71 70 69 68 68 68 67 66 67 68 67 67
51 50 48 50 54 59 62 64 66 67 67 61 53 44 52 63 61 64 67 66 65 65 66 68 66 63 64 68 69 68 71 74 72 70 68 68 68 69 69 68 70 69 69 71 71 71 72 71 70 71 71 69 69 69 68 67 68 68 67 67 67 67 67
49 47 45 50 51 59 63 66 65 65 60 48 49 58 60 62 62 63 65 65 65 66 65 64 63 64 67 69 68 70 70 69 68 70 70 69 69 69 69 69 67 66 67 67 67 68 67 68 70 70 70 69 69 67 66 66 66 67 67 66 67 67 67
48 46 45 41 43 54 66 63 60 61 54 54 58 62 63 64 64 65 64 64 64 67 64 64 64 66 67 67 67 66 66 66 67 67 68 68 66 67 67 66 67 67 64 64 66 67 67 67 68 68 68 68 67 67 65 65 66 67 66 66 67 67 66
43 42 40 39 51 58 66 60 55 57 58 62 63 64 62 64 65 65 64 64 64 65 66 65 66 65 66 65 65 68 67 66 65 65 64 64 65 66 69 68 66 66 63 64 64 64 66 65 66 66 67 66 66 64 62 65 67 68 68 67 67 66 66
46 47 48 54 53 57 63 65 62 62 65 66 65 65 63 63 63 64 64 63 64 65 66 66 66 66 65 64 63 64 63 64 64 64 64 63 64 65 66 66 66 65 65 64 65 65 66 66 66 66 67 66 65 63 64 66 66 66 66 66 66 66 65
61 62 59 60 58 61 62 65 66 67 66 66 66 66 63 62 62 64 64 64 65 65 65 66 65 64 64 66 66 66 66 65 64 63 62 62 62 63 65 65 66 65 65 64 64 64 64 65 65 66 66 66 64 63 65 67 67 66 66 65 65 65 65
51 46 58 58 59 61 63 64 66 67 67 65 65 63 62 62 64 64 64 65 65 65 65 64 63 64 65 65 64 64 65 67 65 64 62 61 61 61 62 64 67 65 66 65 65 65 63 64 66 67 66 66 65 65 65 66 66 66 66 65 64 63 63
50 51 57 59 62 60 62 64 65 65 65 66 64 63 62 62 63 65 65 66 65 65 64 64 65 64 64 64 63 65 64 64 64 64 63 62 62 62 62 64 64 64 64 64 64 64 63 64 66 66 66 66 67 68 68 68 67 66 65 65 64 64 64
55 60 59 58 60 63 64 64 64 65 65 65 66 66 67 68 67 67 66 66 65 65 64 64 65 64 63 63 62 64 62 63 64 64 64 63 62 61 63 63 63 63 63 63 63 63 63 64 65 65 65 66 67 67 68 68 67 67 66 66 64 63 63
50 50 54 57 53 52 58 62 64 64 66 66 64 64 65 65 64 65 65 65 66 66 64 63 64 62 61 62 60 61 62 63 63 63 64 64 64 63 62 63 63 64 64 63 64 64 64 64 65 65 65 66 67 68 68 68 67 65 65 63 63 62 62
49 55 58 59 60 57 58 61 62 63 66 67 65 65 65 64 64 65 65 65 64 63 63 64 63 61 61 61 61 62 62 63 64 64 64 64 63 62 63 62 62 63 63 65 65 64 64 64 64 64 64 64 64 66 65 65 67 66 63 61 61 61 62
56 59 58 60 59 58 59 60 62 63 64 67 66 66 65 65 65 65 64 63 63 61 62 63 62 61 61 61 62 62 63 63 63 62 63 63 62 63 63 63 63 63 63 64 64 63 64 64 64 64 64 64 64 64 64 64 65 64 63 61 60 59 60
55 59 59 60 60 61 62 62 62 63 65 66 65 65 65 65 65 65 63 62 62 63 61 61 61 60 60 61 61 61 61 63 64 64 65 64 65 63 63 64 63 63 64 64 64 64 64 64 64 64 63 63 63 65 64 64 64 63 62 61 61 61 60

ECMWFFLT2_sfc_temp_006.txt.gz
Temp
69 69 72 71 73 61 58 62 58 62 64 66 49 50 50 49 46 47 46 53 52 58 67 70 64 66 68 69 72 74 73 71 72 73 74 75 76 76 76 76 76 76 77 77 77 77 77 77 77 76 76 77 77 77 76 75 76 76 75 74 74 74 73
70 71 73 73 75 68 61 57 61 63 64 61 58 51 45 45 43 43 47 53 51 54 51 56 66 66 69 67 68 72 73 70 71 73 73 74 75 76 76 77 77 77 77 77 78 78 78 78 78 77 77 78 78 78 77 76 76 75 75 74 74 74 73
66 70 72 70 72 72 75 62 68 68 53 56 47 49 43 41 42 40 44 49 48 51 55 54 63 66 71 69 65 66 68 69 72 74 74 75 76 76 75 76 76 76 76 77 77 78 79 79 78 78 79 78 78 78 78 78 77 77 76 76 75 74 74
66 67 69 62 68 70 67 68 66 65 62 50 51 54 48 52 41 41 43 46 50 54 58 64 69 69 70 70 63 66 71 72 73 74 74 74 74 74 75 76 76 77 77 78 78 79 79 78 78 79 80 80 79 79 78 78 78 77 76 75 75 74 74
65 62 62 67 69 61 60 63 57 63 63 59 57 54 50 52 40 40 38 44 43 52 60 65 71 69 69 70 68 68 70 72 74 74 74 74 74 75 75 76 76 77 77 78 79 79 80 80 80 80 80 80 80 80 79 79 77 77 76 76 75 74 74
55 60 62 71 72 68 64 65 59 61 55 57 54 52 54 48 50 38 40 48 44 59 61 68 71 71 71 70 72 71 71 72 72 74 75 75 74 74 76 77 77 77 77 78 79 79 79 79 79 79 80 80 80 79 80 79 79 78 78 76 75 74 74
60 64 67 65 71 73 69 70 64 67 61 56 53 47 47 50 52 51 47 47 53 60 62 69 73 68 68 69 69 70 70 71 73 75 77 76 75 75 76 77 77 78 77 78 78 78 77 78 78 79 79 80 80 80 80 80 79 78 79 78 76 75 74
62 65 65 67 67 69 64 67 70 67 65 67 64 57 50 55 48 51 50 49 42 51 56 58 62 60 63 66 68 69 69 71 73 74 74 73 72 73 76 77 78 77 77 77 76 76 76 77 77 78 79 79 80 80 80 80 79 79 79 79 77 75 74
53 63 61 62 63 67 61 61 62 68 70 70 59 53 49 58 51 54 49 47 47 57 56 56 58 61 65 67 69 70 70 70 72 73 72 72 72 72 73 74 75 75 75 75 75 76 76 76 77 78 78 79 79 79 80 80 80 80 80 79 77 76 75
43 42 46 51 56 57 55 56 62 64 66 63 59 56 53 49 47 50 48 44 46 54 56 62 61 60 62 64 67 70 70 71 71 71 71 70 70 71 72 73 73 73 74 74 75 75 76 76 77 77 77 79 79 80 80 81 81 80 80 80 78 76 76
53 54 49 49 53 53 60 59 65 62 65 67 67 52 50 54 41 51 41 52 56 61 66 64 63 60 65 66 65 68 69 69 69 68 69 70 70 71 72 72 73 72 72 73 74 75 76 77 77 78 78 78 79 78 79 81 81 80 79 79 77 76 76
62 63 59 58 61 61 60 61 62 64 65 63 62 57 58 50 50 44 44 42 61 62 65 66 63 61 61 63 65 68 69 69 70 71 69 71 69 70 70 71 71 71 72 72 73 74 75 76 77 77 78 79 78 78 79 80 80 80 79 78 77 76 75
64 67 66 61 60 62 60 61 64 63 63 61 63 60 58 55 61 57 51 46 58 63 68 70 68 66 66 67 68 71 72 70 68 67 68 69 70 70 70 70 71 71 71 71 72 73 74 75 75 76 77 77 77 78 79 79 80 80 79 78 76 76 75
64 64 65 63 64 62 61 62 62 62 62 62 66 66 61 62 58 63 59 51 61 68 70 71 71 69 71 69 67 66 68 70 69 69 69 71 71 71 71 71 71 71 72 72 72 72 73 74 75 76 76 76 77 77 78 79 78 79 78 77 76 75 74
60 63 64 62 62 64 65 64 63 62 62 62 63 64 61 60 62 62 58 54 58 66 67 72 69 64 63 64 68 71 71 69 69 70 70 71 71 71 71 71 71 71 71 71 70 71 72 73 74 75 75 76 76 78 78 79 78 79 79 77 76 75 74
53 60 61 61 60 61 62 65 65 62 59 57 59 60 58 57 58 55 52 52 57 66 61 63 63 62 66 67 66 67 66 68 69 70 71 71 71 71 71 71 71 70 70 69 70 71 72 73 73 74 74 75 76 76 77 78 79 79 77 77 76 74 74
47 55 61 62 58 57 53 57 62 64 61 62 61 62 59 62 62 54 55 57 67 70 63 66 62 64 66 67 67 67 67 68 70 71 72 72 71 70 70 70 70 71 71 71 71 72 72 73 73 75 75 75 75 76 76 76 77 77 76 76 75 74 73
50 58 57 56 52 45 46 51 62 67 65 64 64 60 60 58 59 57 61 65 59 57 63 67 65 61 65 70 69 70 70 68 68 70 69 70 70 70 69 70 70 70 70 70 71 72 73 74 76 76 76 76 76 76 77 76 76 75 75 75 74 73 72
53 50 54 50 46 45 49 57 60 62 70 71 64 57 58 57 56 56 60 61 60 60 63 66 66 64 61 60 65 71 66 68 68 68 68 67 68 68 67 67 68 69 70 70 70 71 72 74 74 74 74 76 75 75 75 74 74 74 74 73 71 71 70
45 47 48 45 39 48 60 63 62 64 66 64 64 58 58 57 58 56 54 57 58 57 58 58 59 61 64 66 65 61 63 66 69 68 68 68 68 68 68 69 68 69 70 72 72 72 74 73 73 75 75 75 76 75 74 74 73 73 72 71 71 70 70
48 42 50 46 55 58 60 57 59 59 58 56 60 54 58 59 58 57 55 56 57 58 59 60 63 64 66 65 64 67 66 63 67 71 70 69 70 70 70 72 72 72 72 73 73 72 71 72 73 74 74 75 75 73 73 72 72 72 71 71 70 70 70
42 43 41 48 48 44 50 55 62 64 66 63 59 55 56 59 61 59 56 57 57 58 60 63 65 67 67 60 60 67 68 66 66 67 69 71 70 69 69 67 68 68 69 70 71 72 70 70 72 72 74 74 73 72 71 70 71 70 71 70 70 70 70
44 46 43 38 40 45 48 54 60 65 65 64 61 55 54 58 60 61 58 59 59 60 62 63 65 67 57 58 59 66 65 67 69 69 68 69 68 67 68 69 68 67 67 68 70 70 69 71 70 72 73 73 72 71 70 70 70 70 69 69 69 69 69
42 40 37 42 43 51 57 59 62 65 65 62 60 52 48 55 61 60 60 60 61 63 63 66 65 64 60 59 65 68 68 68 68 69 70 69 69 67 67 66 66 67 69 71 69 69 70 70 70 70 72 72 71 70 68 69 69 68 67 67 68 69 69
45 46 42 45 50 55 57 60 63 63 64 61 54 42 52 59 59 60 62 63 64 66 67 69 65 61 64 64 66 67 71 72 70 68 68 67 68 68 68 68 70 69 69 69 68 68 67 67 67 69 70 69 67 67 67 67 66 66 66 67 67 68 68
44 41 41 45 44 53 60 63 62 62 59 47 45 55 60 58 59 61 63 64 64 65 65 65 64 64 67 68 68 68 69 68 67 68 69 70 70 70 69 68 68 67 67 65 65 66 66 67 68 69 69 67 65 66 66 65 65 66 66 66 67 67 67
45 41 40 38 41 54 63 60 58 59 53 52 56 60 61 62 62 63 62 63 63 64 62 63 63 65 66 66 67 67 67 67 66 65 65 65 65 66 66 66 67 67 65 64 64 65 66 67 68 68 68 66 65 65 64 64 66 66 66 67 67 67 67
43 40 39 40 51 56 63 58 54 56 59 62 61 61 59 61 62 63 62 61 62 64 63 63 64 64 65 65 66 67 67 67 68 67 66 65 65 66 67 67 66 65 64 64 64 65 65 66 67 68 68 65 65 64 63 65 66 67 67 67 67 66 66
48 47 47 53 56 57 62 61 60 61 62 63 61 62 61 61 61 61 62 60 61 63 64 63 63 63 63 63 64 64 64 65 65 65 64 64 65 66 66 66 66 64 63 63 64 64 65 65 67 67 67 66 65 63 64 66 66 66 66 66 66 66 66
58 60 57 57 58 58 61 63 63 64 63 62 63 63 60 59 60 62 62 61 62 63 64 64 61 61 62 64 64 65 65 65 65 65 66 65 65 65 65 65 65 64 64 64 64 64 64 65 66 67 67 67 65 64 66 67 67 66 66 66 65 65 66
49 44 55 55 56 59 59 61 63 63 63 62 61 61 60 60 61 61 61 61 61 62 63 62 60 60 62 62 62 62 62 63 62 63 63 62 62 63 64 65 66 64 64 65 64 64 64 64 66 67 67 67 67 66 66 67 67 66 66 66 65 65 65
51 50 54 57 59 59 61 59 59 59 60 61 61 61 61 62 62 63 62 62 61 62 60 61 61 60 61 60 60 62 61 61 61 62 63 62 62 62 62 64 64 63 64 64 64 64 63 64 65 65 66 65 66 66 68 68 68 67 66 66 65 65 65
53 56 57 57 58 59 60 62 61 60 60 61 62 62 63 64 63 63 63 64 63 62 61 61 62 61 60 61 61 63 62 62 62 62 62 62 61 61 62 63 64 64 64 65 64 64 63 63 64 64 64 66 67 67 68 68 67 66 66 66 65 65 65
48 48 52 58 55 50 54 58 59 61 63 63 62 62 63 63 62 62 61 61 63 63 62 62 62 60 60 60 61 62 61 61 61 62 62 62 62 62 62 63 63 64 65 64 63 62 62 63 64 64 64 66 67 69 68 68 67 66 65 64 63 63 64
49 55 58 55 57 55 56 57 59 59 62 62 62 61 61 62 62 64 64 62 61 61 60 61 61 60 60 59 60 61 60 61 61 61 61 62 62 62 62 62 62 62 63 64 63 63 62 63 64 65 65 66 67 68 68 68 68 66 64 63 62 62 62
56 58 58 59 57 56 57 59 60 61 61 61 62 62 62 62 62 63 62 62 61 60 61 61 61 60 60 60 60 60 60 61 61 62 62 62 62 63 63 62 62 62 63 63 63 62 62 63 64 64 65 66 66 68 67 67 67 65 65 63 61 61 62
55 57 59 59 58 57 58 59 60 61 63 64 62 62 62 62 63 63 61 60 61 62 61 60 61 60 60 60 59 59 60 61 61 62 63 63 63 62 62 62 61 62 63 63 62 62 62 63 63 64 65 65 65 66 66 66 66 65 65 65 65 65 64

ECMWFFLT2_sfc_temp_009.txt.gz
Temp
79 82 82 81 85 67 73 74 69 75 84 80 65 63 64 66 65 62 67 66 71 78 80 86 86 84 85 85 85 86 84 84 83 82 84 85 85 85 85 85 85 84 84 84 84 84 85 85 84 83 82 82 82 82 82 81 82 83 82 81 81 82 82
79 84 85 85 84 86 75 69 75 77 81 81 72 63 60 63 59 61 65 65 69 69 68 80 79 81 85 86 84 86 84 82 81 83 83 84 85 85 85 84 84 84 85 84 85 86 86 86 85 84 82 83 83 83 83 82 82 81 82 82 82 82 81
81 80 81 80 84 85 81 78 85 75 64 64 65 66 55 56 56 60 61 66 69 71 72 80 82 82 84 85 84 82 81 82 82 84 84 84 85 85 84 85 84 84 85 85 84 86 88 87 85 85 84 85 85 84 84 85 83 83 83 84 83 82 82
79 79 78 68 75 79 78 81 80 83 78 70 63 67 68 66 59 58 61 61 63 71 77 81 82 85 85 87 85 82 84 83 83 84 85 84 83 83 84 85 85 85 86 87 87 87 87 86 85 86 87 87 87 86 84 84 85 84 84 83 82 81 82
76 69 74 73 77 72 73 75 73 74 75 78 79 74 70 65 61 60 61 57 65 74 79 82 83 85 86 87 86 83 84 86 86 85 85 83 83 83 84 85 85 86 86 88 88 88 88 88 87 88 89 88 88 88 86 86 83 84 84 84 83 82 82
68 74 80 80 81 81 77 76 72 75 72 67 63 61 71 69 66 55 59 59 70 80 82 80 84 87 89 89 87 86 88 88 85 85 86 84 83 83 84 86 87 87 86 87 88 88 87 88 88 88 89 89 89 88 89 88 88 87 87 85 83 82 82
71 77 81 81 82 85 82 80 76 80 79 76 69 57 62 67 69 70 68 64 68 84 83 82 84 86 89 90 87 85 87 87 86 85 87 85 84 84 86 87 87 87 86 86 86 85 84 85 85 86 87 88 88 89 89 89 88 88 89 88 85 82 82
77 80 79 76 77 80 78 80 82 79 75 78 74 72 70 68 66 64 65 60 70 82 73 78 84 82 85 83 83 83 87 87 85 84 84 83 82 83 86 87 87 86 86 85 84 83 82 83 83 85 86 86 88 89 89 90 89 89 89 89 87 83 82
64 70 74 75 75 77 75 75 78 80 81 81 79 75 66 67 68 70 65 58 68 81 71 73 74 79 81 83 85 82 82 84 84 83 82 83 82 82 83 83 84 83 84 82 81 82 82 82 84 84 85 85 87 87 89 89 90 90 89 89 88 85 84
49 50 53 58 64 69 75 76 76 77 78 77 72 66 64 60 65 68 66 67 74 82 75 78 79 78 78 81 83 84 82 80 82 82 82 80 80 80 81 81 82 82 81 82 81 81 82 83 84 83 83 85 87 87 87 90 90 89 90 90 89 87 86
61 64 67 72 74 71 68 71 74 74 77 80 77 73 66 63 60 64 61 71 73 77 81 79 82 79 80 84 83 80 81 82 81 80 80 80 79 79 81 80 81 81 80 80 81 81 83 84 84 84 85 85 87 85 86 89 89 89 88 88 86 87 86
69 73 72 74 74 72 74 73 73 76 75 76 74 70 67 69 65 61 61 66 72 76 80 82 81 82 79 80 81 83 81 80 81 80 78 79 80 80 80 80 80 79 79 80 80 81 82 83 84 84 86 86 85 85 86 87 89 89 88 86 86 85 84
73 76 76 76 73 76 76 76 76 74 75 74 71 70 75 70 68 65 68 64 68 77 83 85 84 83 81 83 83 84 85 82 80 78 79 79 80 80 80 79 79 79 79 79 80 81 82 83 83 84 85 85 85 85 87 86 89 89 88 86 85 85 83
72 74 75 76 73 73 75 76 77 77 77 75 75 75 76 74 70 74 74 67 70 80 84 88 88 86 87 86 83 80 80 83 79 79 78 80 80 80 80 79 80 79 80 80 80 80 81 82 82 83 83 83 85 85 86 87 86 88 87 85 83 83 82
68 73 75 75 73 73 71 75 77 77 78 77 77 77 77 75 74 77 77 70 69 80 85 87 87 82 82 80 81 83 82 82 80 79 79 80 80 81 81 80 80 80 80 80 80 80 80 81 82 82 83 84 84 87 88 88 86 87 88 84 83 83 81
64 71 72 73 73 72 72 72 74 74 74 70 73 71 74 71 68 71 70 67 69 79 82 83 80 78 78 79 79 80 80 82 80 79 80 80 80 81 81 80 80 79 80 80 80 80 82 82 82 82 82 83 84 85 87 87 88 89 87 86 85 83 83
63 70 72 72 71 68 63 65 73 75 74 76 76 77 76 76 76 70 67 71 79 81 81 79 79 80 80 80 82 81 80 79 80 80 80 81 81 82 81 79 79 81 82 82 80 82 83 83 83 84 84 84 82 84 84 85 87 88 86 85 83 83 83
62 69 69 70 63 54 57 74 79 78 75 75 73 73 74 76 78 77 79 81 81 79 77 78 79 79 78 79 80 80 80 78 77 80 81 83 84 84 83 82 82 82 82 83 83 83 83 84 86 86 85 85 85 86 87 86 86 85 84 84 83 83 82
61 65 64 59 53 57 73 73 72 78 81 80 77 76 73 74 75 72 71 75 74 76 79 80 80 79 76 75 78 80 81 80 79 78 80 80 81 81 81 80 83 81 81 81 81 81 84 85 85 86 86 87 86 86 85 84 84 82 83 82 82 82 81
63 60 61 50 55 68 70 71 72 72 76 79 77 69 69 67 71 71 72 77 77 73 73 73 74 76 76 76 75 75 77 78 82 82 81 82 82 81 82 81 80 79 81 81 82 81 85 85 86 87 87 88 88 87 87 84 84 83 82 81 81 81 80
57 60 60 61 64 65 66 67 69 72 70 71 71 65 69 69 69 69 70 71 72 72 72 74 75 76 79 79 78 80 80 76 78 83 85 86 84 84 83 84 82 80 82 83 85 83 84 86 86 87 88 88 87 86 85 84 82 84 82 80 81 80 80
63 59 57 59 59 55 63 67 71 72 72 72 70 73 66 68 70 70 68 67 70 72 74 74 75 75 78 76 78 78 80 79 78 79 81 84 85 85 84 83 83 81 82 84 84 86 84 84 86 86 87 86 84 82 82 83 82 82 81 80 80 79 79
60 58 54 56 54 60 65 66 70 71 71 72 71 70 66 67 68 70 69 69 70 73 74 73 74 75 75 74 74 75 76 79 81 80 80 82 82 81 81 82 82 81 80 81 83 81 81 81 81 83 84 84 83 80 81 83 82 80 79 80 80 79 79
59 57 54 55 62 61 64 67 69 71 72 69 71 60 63 66 69 69 69 71 72 72 74 75 76 77 73 72 73 76 77 77 78 78 77 77 78 78 78 80 79 77 78 79 80 81 80 76 79 81 82 82 80 79 79 82 80 79 79 79 80 80 79
57 53 57 60 63 66 66 67 69 70 71 69 62 57 65 66 68 68 71 74 74 75 75 76 70 68 73 73 74 77 78 78 77 78 78 78 79 78 79 78 77 79 79 79 78 79 77 77 80 81 82 80 78 77 78 78 78 79 79 78 78 78 78
59 57 54 58 63 63 65 69 68 70 68 60 63 64 65 68 68 71 74 73 73 73 71 71 71 72 75 76 77 77 77 76 76 78 79 79 79 80 78 76 78 79 79 77 77 78 77 79 80 81 79 77 76 76 77 77 77 78 77 77 77 77 76
58 56 55 53 48 62 68 64 67 69 64 62 65 66 69 71 71 71 71 72 72 73 70 73 72 75 76 77 76 76 77 77 76 76 76 76 77 78 78 77 78 79 76 75 75 77 79 80 80 80 80 76 75 75 75 74 75 76 76 76 76 76 75
52 50 48 49 57 60 68 65 61 65 68 69 70 69 68 71 73 71 70 71 72 73 73 73 74 75 74 75 76 77 77 77 77 76 76 76 76 76 78 79 77 77 75 76 76 76 78 77 78 79 78 75 74 74 73 74 75 75 75 75 75 74 74
55 52 55 61 62 64 68 68 67 69 70 72 71 71 71 71 71 73 72 70 73 74 74 74 74 73 73 74 76 75 75 76 76 75 75 75 74 73 74 77 76 76 75 74 75 74 74 73 74 75 77 75 74 73 72 73 73 74 74 74 74 74 74
60 62 59 61 65 65 66 70 70 71 71 73 74 73 69 69 70 71 70 71 72 74 75 74 73 73 74 74 75 75 75 75 74 74 75 75 77 77 76 75 76 77 78 76 75 73 72 73 72 74 77 78 74 73 73 73 74 74 74 73 73 73 73
57 50 63 59 59 61 64 66 70 71 71 70 70 68 68 69 70 70 69 70 70 71 71 71 70 71 73 73 72 72 73 73 73 74 72 72 72 72 72 72 74 77 77 75 73 74 73 74 77 78 78 79 76 73 73 74 75 74 74 73 72 72 71
57 57 61 61 59 59 63 64 65 67 68 69 69 68 69 69 70 71 71 73 71 72 71 70 71 70 72 72 71 73 72 72 72 72 72 72 73 72 72 72 73 75 75 75 75 76 75 75 77 78 78 77 75 74 76 77 76 73 72 72 72 72 71
56 59 59 59 60 60 60 64 66 67 67 67 67 69 69 70 69 69 70 71 71 72 70 71 71 70 70 72 73 74 72 71 71 70 71 71 72 72 73 73 73 73 73 75 75 75 74 73 74 74 73 74 74 74 75 75 73 72 72 72 74 74 74
52 53 53 59 56 52 56 60 64 65 66 68 68 68 68 68 66 67 67 67 68 70 70 70 70 68 67 69 71 71 70 69 69 70 70 71 72 71 71 71 72 71 70 71 71 71 71 71 72 72 72 72 74 77 77 76 74 72 71 73 73 74 75
54 59 59 60 61 57 58 59 61 63 64 65 65 65 66 67 67 67 66 64 63 64 65 69 69 67 67 67 68 69 68 66 68 69 69 70 71 72 72 72 72 72 71 71 70 71 72 71 72 72 73 74 74 77 76 75 75 73 73 71 72 74 73
60 64 62 63 61 56 57 60 61 61 62 63 63 62 62 63 64 66 67 65 62 60 63 65 67 66 66 67 68 66 67 67 67 68 69 71 71 72 72 72 71 71 71 71 72 72 72 71 72 72 74 74 73 76 75 75 75 74 73 72 71 72 73
59 62 62 61 60 58 60 63 64 66 68 66 60 61 62 61 62 62 62 63 67 67 65 65 65 66 65 67 68 67 67 67 67 67 67 68 69 70 71 71 71 71 71 71 72 72 71 71 71 72 73 73 74 76 74 74 74 73 72 73 75 74 73

ECMWFFLT2_sfc_temp_012.txt.gz
Temp
88 88 91 91 93 72 82 84 76 82 92 87 77 76 81 80 74 67 80 75 80 90 91 93 94 94 95 97 98 99 97 97 94 93 95 96 96 96 95 94 94 92 93 92 92 92 93 93 92 91 89 89 89 89 88 87 87 88 88 87 87 88 88
89 93 93 92 93 93 87 77 83 92 96 92 78 68 71 68 66 68 79 72 74 76 71 90 91 91 94 95 97 100 98 96 93 94 93 94 95 96 95 94 93 93 93 92 93 95 94 93 93 91 89 90 90 90 90 88 88 87 88 88 88 88 87
88 92 91 87 93 95 87 85 96 82 71 69 77 75 63 63 62 66 73 77 77 78 76 86 86 88 91 93 95 97 98 97 94 95 94 94 96 96 94 95 93 93 93 93 92 95 97 95 92 92 91 92 91 91 91 92 89 90 90 91 90 89 89
86 87 86 73 80 90 92 95 88 92 84 76 72 73 74 73 65 65 67 75 71 80 83 88 87 90 92 94 95 96 98 99 96 96 96 94 93 94 95 95 95 94 95 96 97 97 97 95 93 94 95 95 95 93 91 91 92 90 90 90 89 88 89
86 74 81 77 81 78 80 83 79 84 84 89 84 83 77 70 66 67 67 66 73 83 91 91 90 92 93 93 93 95 97 100 102 98 97 95 94 94 94 95 95 95 95 98 98 98 98 98 96 97 98 96 97 97 94 94 91 92 92 91 91 89 89
75 79 87 86 87 86 84 81 77 82 78 73 69 67 84 79 72 62 66 65 76 89 95 92 93 94 95 96 95 96 98 101 101 100 98 97 95 94 95 97 98 98 96 97 99 97 97 98 98 97 98 98 99 98 98 97 97 95 96 93 90 89 89
77 83 89 91 91 91 89 86 82 86 84 82 74 62 70 78 79 82 76 71 72 92 95 93 93 95 98 98 99 98 100 100 103 102 101 98 95 95 97 97 99 99 97 96 96 94 93 94 94 96 97 99 98 98 99 98 97 97 99 97 94 90 89
84 87 90 91 91 90 86 88 89 86 80 83 79 77 77 74 77 72 73 68 75 91 94 95 96 95 98 98 100 98 99 101 102 99 98 96 93 93 96 98 100 98 98 95 93 92 91 91 92 94 95 96 98 99 100 100 99 99 99 99 96 91 89
70 76 81 83 89 87 83 82 86 87 87 87 86 85 82 72 76 77 70 63 74 87 93 93 94 96 97 98 100 100 98 99 102 99 95 95 92 92 94 94 95 95 95 92 90 90 89 89 92 92 93 94 97 97 99 100 100 101 99 98 98 94 92
54 55 58 64 70 75 82 84 85 86 86 83 80 73 74 66 72 74 72 73 79 89 90 91 93 93 93 98 100 103 102 99 98 96 93 91 90 89 90 92 93 92 91 90 89 89 88 90 91 90 91 94 96 97 97 101 101 100 100 100 99 96 95
66 69 72 81 82 80 74 79 81 83 86 87 84 80 73 69 72 71 70 76 79 83 88 87 91 92 93 95 96 97 98 99 96 92 90 91 89 88 90 89 91 90 89 88 88 88 90 91 91 91 92 93 95 93 95 99 100 100 97 98 95 97 96
75 80 78 83 82 78 80 78 79 83 84 84 80 76 72 77 74 67 72 77 77 81 86 89 89 92 92 94 95 98 98 98 97 96 89 88 90 89 89 89 88 87 87 87 87 87 89 90 90 91 93 94 93 93 94 96 99 99 99 96 95 94 93
78 80 82 83 82 82 81 82 82 80 81 81 78 77 81 78 73 70 76 78 77 81 87 91 92 93 92 96 96 98 100 101 99 93 91 91 91 89 89 87 87 87 87 86 86 87 88 90 90 90 92 93 92 93 94 94 98 98 96 94 93 93 92
77 79 80 82 81 81 81 81 82 82 82 81 81 80 83 82 75 80 80 78 79 85 89 92 93 96 97 98 98 98 99 101 97 94 91 93 92 91 90 88 88 87 87 87 86 87 87 89 89 91 90 90 92 92 93 95 94 97 95 93 91 91 91
73 78 81 82 82 80 78 81 82 83 83 83 83 83 83 82 80 84 83 77 78 88 92 92 95 96 98 97 97 98 97 98 99 94 94 93 93 93 91 89 89 88 88 88 87 86 87 88 88 89 90 90 92 95 95 96 93 96 96 91 90 90 89
69 77 78 79 81 81 80 79 80 81 81 78 81 79 84 80 76 78 79 75 77 86 92 94 94 94 93 93 94 95 95 98 96 93 93 93 92 92 91 90 89 88 88 87 87 87 89 89 89 89 89 90 92 93 96 96 97 97 95 93 91 88 89
65 75 79 78 78 76 72 75 80 82 82 83 85 86 86 85 85 78 74 76 85 87 90 89 90 93 93 93 94 94 95 93 95 94 93 94 93 92 90 89 88 90 91 90 88 90 92 91 90 91 91 92 90 92 93 94 95 96 94 92 89 88 88
64 72 74 76 70 60 63 81 87 85 82 82 80 81 84 87 87 84 87 86 88 89 90 89 89 89 90 93 93 96 94 93 91 93 93 94 95 94 94 92 92 91 91 91 91 92 91 92 95 95 93 93 92 93 95 94 94 92 91 91 90 89 88
63 70 71 63 56 60 78 87 89 89 88 87 84 84 87 88 89 89 87 88 88 90 91 91 91 92 95 96 95 94 94 91 91 90 91 90 91 92 92 92 94 91 89 90 90 90 93 95 94 94 93 94 93 93 93 92 91 90 91 90 89 89 88
68 64 64 53 57 74 82 84 88 90 90 88 85 82 86 87 89 88 86 88 90 90 91 93 94 93 93 91 89 88 92 92 92 93 93 93 93 92 93 92 91 89 91 90 92 90 93 94 95 95 94 95 95 96 96 93 91 91 90 89 89 88 87
56 61 63 61 71 72 76 75 78 82 78 81 79 72 79 87 90 89 87 88 90 91 93 92 89 88 90 87 88 92 92 89 91 94 95 97 96 95 94 94 92 90 91 91 93 90 92 94 93 94 96 98 97 96 95 93 90 92 90 88 88 87 87
66 60 58 58 62 58 68 74 79 82 81 80 81 78 76 87 90 90 88 85 87 89 90 88 86 85 83 82 87 90 93 91 89 91 93 96 96 97 96 93 93 90 91 92 90 92 91 92 95 96 98 97 95 92 92 92 90 90 89 87 87 87 87
63 60 56 57 56 62 67 71 76 79 80 80 80 75 71 83 86 88 88 87 87 88 88 85 84 82 79 82 88 89 90 91 94 92 92 95 96 96 95 95 93 92 90 91 92 92 92 94 94 95 96 96 93 90 90 93 91 89 87 87 87 86 87
61 57 58 56 63 63 68 73 75 79 81 79 75 62 66 83 86 87 85 86 87 86 86 86 83 81 80 83 89 89 90 90 91 89 89 90 90 91 93 94 93 90 89 89 90 92 92 90 92 92 94 92 89 87 89 93 90 88 87 87 87 88 88
60 56 58 63 67 71 71 74 76 79 81 77 66 58 76 76 81 83 83 85 86 84 83 85 81 84 86 85 86 89 89 89 87 89 89 89 90 90 92 89 85 87 88 89 90 91 87 88 91 92 91 88 86 87 88 88 87 88 88 87 86 86 86
61 62 57 58 65 68 71 77 78 80 74 63 63 73 72 76 77 78 81 83 85 84 83 84 87 83 85 87 89 87 88 87 86 87 89 89 90 90 86 84 86 89 90 87 87 88 87 88 89 90 87 85 84 84 85 85 86 88 86 85 85 85 84
67 65 59 56 49 64 74 74 76 76 67 69 70 74 78 80 80 80 81 84 84 86 83 84 82 84 86 86 86 86 86 86 86 86 86 85 85 85 85 86 89 89 88 88 89 89 92 92 90 89 88 83 83 84 83 83 85 85 85 85 84 83 82
61 60 56 56 66 69 75 73 67 72 74 76 77 78 77 81 81 80 80 81 82 84 82 82 83 83 82 82 83 83 83 84 85 85 86 87 88 89 91 91 89 89 86 87 88 88 89 88 88 87 84 82 81 80 78 80 82 83 83 83 83 81 81
68 66 68 69 71 72 76 76 74 74 77 79 80 80 80 79 80 81 80 79 82 83 83 82 82 82 83 83 85 84 84 85 85 84 85 86 87 88 88 89 88 88 86 83 84 83 83 83 83 83 83 81 78 76 76 79 80 82 82 81 81 80 80
69 70 70 71 70 70 74 78 79 79 79 81 82 80 77 77 79 81 80 82 82 84 84 82 81 82 83 83 84 84 84 83 82 82 84 85 86 87 88 86 87 87 87 85 83 82 81 83 82 83 83 82 79 79 80 80 82 82 80 79 78 79 79
65 56 68 69 68 69 71 75 78 80 81 80 79 76 76 78 81 82 81 81 81 82 82 81 80 82 83 82 81 80 80 81 81 82 80 81 82 83 83 85 86 87 87 86 85 85 84 87 89 90 88 87 83 81 80 82 82 81 79 79 78 78 77
67 64 67 68 70 70 71 73 75 75 77 78 79 78 78 78 79 80 81 83 82 84 82 81 81 82 84 82 80 80 79 79 80 79 80 80 80 81 82 83 86 88 88 87 85 84 82 84 87 87 87 86 84 84 85 85 83 80 79 79 80 79 79
70 69 68 68 70 69 69 71 71 73 75 76 77 80 81 82 80 79 80 81 81 81 80 81 79 78 79 82 82 82 80 79 79 79 79 80 80 81 81 81 81 81 82 83 83 83 82 83 84 84 85 87 87 85 85 85 82 81 80 79 80 81 80
63 62 64 70 63 59 63 66 66 68 72 75 76 76 78 78 78 79 79 78 80 80 80 79 78 76 76 78 79 79 78 77 77 78 80 81 81 81 81 82 82 80 80 81 80 80 80 81 82 82 82 83 85 88 87 85 83 80 78 80 81 82 82
63 66 71 69 66 61 59 62 66 68 70 71 71 71 73 75 76 78 77 76 75 75 76 79 78 75 75 76 78 79 79 76 77 78 78 79 80 81 82 82 81 80 79 80 80 79 79 80 81 81 81 83 84 86 84 83 83 80 80 80 82 82 81
66 70 71 69 68 60 58 62 63 63 65 68 69 70 72 73 73 74 74 74 73 73 74 75 77 77 77 77 78 75 76 78 77 77 78 79 79 81 82 81 79 79 79 78 79 78 79 80 80 80 82 83 82 85 82 82 82 80 80 80 80 82 83
68 70 71 70 67 64 62 60 59 59 61 61 60 62 66 69 71 72 71 71 74 75 73 73 73 75 76 77 76 75 75 76 75 76 76 76 78 79 80 80 77 77 77 78 78 79 79 78 78 79 81 80 82 84 81 82 81 80 79 81 83 83 82

ECMWFFLT2_sfc_temp_015.txt.gz
Temp
92 92 94 93 96 77 87 87 78 85 95 88 78 79 82 79 74 70 82 79 83 92 95 97 95 96 97 100 100 102 101 103 101 100 98 96 96 99 98 98 98 96 97 96 96 95 96 95 94 93 92 92 91 91 91 90 89 90 90 89 90 90 90
93 97 95 95 96 97 91 79 85 96 99 94 81 71 73 71 66 70 81 77 79 79 76 93 92 93 95 96 97 103 101 102 101 100 100 97 97 98 98 99 98 98 97 96 97 98 97 96 95 93 92 93 92 93 92 90 90 89 90 90 90 90 90
92 96 94 89 95 98 90 89 100 85 74 72 80 77 64 64 64 68 75 80 81 82 80 88 87 90 92 93 95 98 101 102 100 100 100 100 100 97 98 100 98 97 98 97 96 98 100 97 94 94 94 95 94 94 94 94 91 92 92 94 92 91 91
92 92 89 75 83 93 96 98 93 96 88 80 74 77 77 74 65 66 69 76 73 84 87 91 88 91 93 94 95 98 100 101 102 102 101 100 98 97 101 100 100 99 99 100 100 99 100 98 96 97 98 98 98 96 94 94 94 92 92 92 91 90 92
91 78 84 80 83 80 83 85 83 88 86 92 88 86 80 73 68 67 66 66 73 84 95 95 92 94 95 96 96 96 97 99 104 104 102 101 99 98 99 100 100 100 99 101 101 100 101 101 99 99 100 98 98 99 97 97 93 94 95 94 93 91 92
79 82 90 89 89 89 87 85 82 85 83 78 73 71 86 81 74 64 66 65 77 91 100 96 98 97 98 98 97 96 100 103 101 101 103 102 101 99 100 102 103 102 100 100 101 101 101 101 100 100 100 100 100 99 100 99 99 97 98 95 93 91 91
81 86 92 95 94 94 92 91 85 89 88 86 77 63 71 81 81 84 78 71 74 93 98 98 98 98 100 100 102 100 102 103 105 104 106 104 99 100 102 102 103 103 101 100 100 98 98 99 98 99 100 101 101 101 101 100 100 99 100 99 97 92 92
89 91 94 94 94 92 89 90 92 90 84 87 84 82 82 76 78 75 75 68 77 93 96 98 99 97 101 100 101 99 101 102 102 102 103 100 98 99 102 102 104 102 102 100 97 96 96 96 96 97 99 100 101 102 103 103 102 102 101 102 100 95 92
73 81 85 86 92 90 85 85 89 92 91 89 90 89 85 75 79 79 73 65 77 90 95 97 98 99 99 100 103 101 99 101 104 104 103 103 101 98 100 99 100 100 101 98 95 95 93 94 98 96 98 100 102 101 103 103 103 104 103 101 101 97 95
58 59 62 66 73 79 85 87 88 90 88 85 84 77 77 69 75 76 73 74 82 91 93 95 96 96 95 99 100 104 103 100 103 102 103 97 99 96 96 97 98 98 97 96 94 94 93 96 98 95 95 100 102 102 102 105 104 103 104 104 103 99 96
69 73 76 85 85 84 78 82 85 86 89 91 89 82 75 72 75 73 73 78 82 85 91 91 94 96 96 96 97 98 99 102 101 100 97 97 96 95 96 95 96 96 95 94 94 94 96 98 97 97 98 99 102 99 100 104 104 104 102 102 100 101 98
78 83 81 87 86 82 84 83 83 86 87 87 84 78 75 80 77 69 76 79 80 83 87 91 91 94 94 95 95 97 98 100 102 101 94 93 96 95 95 95 94 94 94 94 93 93 94 95 96 97 99 100 100 99 100 102 105 105 104 101 100 99 97
81 84 85 87 86 85 86 87 85 84 85 85 82 80 85 82 75 72 79 80 79 83 90 93 94 94 95 98 97 99 101 102 100 98 99 98 97 95 95 92 92 93 93 92 92 93 93 95 94 95 97 98 98 99 100 100 105 105 102 100 98 99 97
81 81 83 85 85 85 83 86 87 86 86 85 85 85 87 86 78 83 84 82 84 88 90 94 96 98 99 100 100 99 99 101 98 100 99 103 102 99 95 93 94 92 93 92 91 91 91 92 93 95 95 95 97 98 99 102 101 104 101 99 96 97 96
77 82 83 84 83 82 81 83 85 86 87 86 86 86 86 86 85 87 86 81 81 90 94 95 98 97 99 99 100 100 98 99 101 100 101 101 101 100 98 94 94 93 92 92 91 90 90 91 92 93 93 94 97 100 101 102 100 103 104 97 97 96 94
71 79 80 81 83 82 81 81 83 84 84 82 85 81 86 83 79 82 83 78 79 89 94 97 96 96 95 95 95 98 98 101 99 98 99 99 99 101 102 99 94 92 92 91 90 90 92 93 93 93 92 95 97 98 100 100 102 104 102 99 97 93 94
67 76 79 78 79 75 70 73 80 83 86 86 87 89 89 88 88 81 76 78 87 91 93 91 93 95 94 95 96 95 97 96 99 99 98 99 100 100 99 98 93 95 95 94 91 93 94 94 94 95 95 96 94 96 96 98 99 101 101 97 93 92 93
67 75 77 79 70 59 62 80 88 86 83 86 85 86 88 89 89 85 88 88 90 91 92 90 90 93 92 93 94 98 97 95 95 100 100 101 102 104 102 99 99 96 95 95 95 95 94 95 98 98 97 97 96 98 99 99 98 97 96 95 93 92 92
67 73 74 65 57 61 78 87 89 90 89 88 86 88 91 91 92 92 90 90 90 91 93 92 92 93 96 98 97 100 102 98 98 99 101 98 99 100 96 93 97 96 95 95 94 94 97 98 97 97 97 98 97 99 98 97 96 94 95 94 92 91 90
73 69 66 53 57 75 84 87 89 91 90 89 86 83 88 93 93 91 89 92 92 92 93 95 95 95 98 99 97 97 102 103 102 103 101 101 103 101 99 95 94 95 96 95 97 94 97 98 99 99 98 100 100 100 101 97 97 96 94 93 91 91 90
62 65 65 64 73 74 79 80 82 84 79 81 80 71 78 90 93 93 90 91 93 94 95 96 97 97 98 93 93 101 103 100 103 105 104 105 104 102 101 102 100 97 97 97 99 95 97 99 99 100 100 101 100 100 99 97 95 96 93 91 91 90 90
70 64 63 64 64 60 69 75 80 87 87 86 85 77 74 84 87 94 92 89 91 93 96 95 95 95 90 86 90 98 104 104 104 105 106 107 106 107 105 101 101 97 97 98 98 98 98 99 100 100 101 100 98 96 95 95 94 94 92 91 91 90 90
67 64 60 61 58 64 73 73 78 83 86 87 84 76 70 83 87 91 94 93 91 92 93 94 93 90 84 84 88 97 101 103 105 104 104 106 106 105 104 101 100 98 96 97 98 96 97 99 99 100 100 99 97 94 93 95 94 92 90 90 90 89 90
66 65 61 60 67 67 72 79 81 83 85 85 79 62 65 82 88 91 90 91 94 93 92 94 91 87 81 85 90 100 103 104 105 101 99 100 102 103 103 103 100 96 94 94 94 97 97 96 98 97 99 97 94 92 93 96 94 92 90 90 91 91 91
64 61 64 68 70 76 79 80 81 85 86 81 65 57 71 77 81 85 85 86 93 94 92 92 87 90 92 92 95 99 102 104 101 100 100 100 101 101 103 101 93 95 94 95 95 97 96 95 98 99 99 96 92 92 92 92 91 92 92 91 90 90 90
64 66 62 64 69 77 81 83 85 86 77 64 63 74 78 81 82 85 87 86 86 89 90 91 91 94 99 97 100 97 96 95 94 95 97 98 99 101 98 93 95 94 96 93 95 98 95 96 98 99 95 90 90 90 91 90 91 92 90 89 89 89 88
70 67 63 60 52 69 81 82 81 84 70 72 78 79 84 85 84 83 85 86 88 89 88 93 93 94 98 98 95 95 94 92 91 92 94 93 95 94 90 91 94 95 93 92 96 97 98 100 98 95 93 89 89 89 88 88 90 89 89 89 88 88 87
63 63 59 58 72 77 83 80 72 77 78 79 81 81 81 85 84 84 83 84 86 88 88 88 89 93 93 90 92 91 90 91 92 92 92 92 92 90 95 96 95 96 93 94 93 94 97 95 93 93 89 86 87 86 86 88 88 88 87 87 87 86 84
71 68 72 71 77 80 84 81 78 79 82 83 83 83 83 82 84 84 83 83 85 86 88 88 89 88 89 88 90 88 88 90 89 88 88 89 90 92 92 95 92 93 91 90 92 91 92 91 90 89 89 86 84 83 84 85 85 85 84 84 84 84 83
71 74 75 77 79 79 81 85 85 85 85 86 86 84 81 82 84 84 83 83 83 87 87 87 86 87 87 88 89 89 90 89 89 88 89 90 91 93 93 91 91 92 93 91 89 88 87 88 88 88 88 86 82 81 84 84 84 83 81 81 82 82 82
66 55 70 73 73 79 80 79 82 86 86 85 85 82 82 82 84 83 80 85 83 86 89 87 85 86 88 86 86 86 86 87 87 89 88 88 89 90 90 90 88 90 90 90 89 90 89 91 92 92 89 88 83 83 84 87 86 84 83 82 81 81 80
64 62 67 70 77 77 79 81 79 81 83 84 83 83 83 84 82 83 82 83 85 87 83 83 84 85 87 85 83 84 84 83 83 83 84 85 87 88 89 90 90 90 90 90 89 89 87 90 91 91 90 88 87 88 90 89 86 83 81 81 81 81 81
66 67 71 73 74 74 74 76 79 81 81 82 83 85 82 82 82 81 82 84 80 79 81 83 83 83 83 85 84 84 83 83 83 82 82 83 83 83 84 85 86 85 85 86 85 86 86 88 90 89 90 92 92 90 89 87 84 84 82 81 81 82 82
61 59 62 72 65 61 68 72 76 78 79 80 78 78 78 79 78 79 79 78 80 81 82 82 82 79 79 81 81 82 81 81 82 83 83 84 85 84 84 84 84 83 83 83 82 83 84 86 88 88 88 89 90 91 89 88 86 83 82 82 83 84 84
53 67 69 68 67 66 68 70 72 75 77 76 74 73 74 75 76 76 74 74 73 74 76 78 79 78 78 78 81 81 81 79 81 82 83 83 84 84 85 84 83 82 82 82 82 82 83 85 86 87 87 90 89 90 88 87 86 83 83 82 83 83 82
64 67 70 73 70 65 65 68 69 71 72 73 72 73 73 73 73 74 73 72 70 69 71 73 75 77 78 79 80 78 79 81 81 82 83 84 84 84 84 83 81 81 81 81 81 81 83 84 85 86 88 88 86 88 86 85 85 83 83 82 81 82 84
59 65 69 72 69 68 69 68 68 68 68 68 66 67 69 71 72 71 69 69 71 70 68 68 71 72 74 77 78 77 78 79 80 81 80 79 82 82 83 83 81 80 80 82 82 82 83 83 84 85 85 85 86 87 85 85 84 83 83 84 85 86 84

ECMWFFLT2_sfc_temp_021.txt.gz
Temp
84 84 88 86 86 65 71 77 70 75 81 77 64 66 69 68 62 57 70 67 71 79 78 82 84 85 86 87 87 88 86 87 88 88 89 90 91 90 89 88 88 85 85 87 88 88 88 87 87 86 85 85 84 83 83 82 82 82 82 82 82 82 82
85 89 89 88 88 86 75 70 75 83 84 81 68 56 60 58 50 57 69 63 61 67 59 77 80 82 84 85 87 90 88 86 86 88 89 89 90 89 89 89 88 88 86 86 89 89 89 88 87 86 85 86 85 85 84 82 82 81 82 82 82 82 81
85 89 87 83 88 90 80 73 86 72 58 63 64 64 51 51 53 55 59 67 66 62 62 75 75 79 80 82 85 88 87 86 86 87 89 90 91 90 89 89 88 87 88 87 88 90 91 89 87 87 87 87 86 86 85 85 83 83 83 84 84 83 83
84 85 81 68 75 84 88 87 79 84 75 66 62 64 63 59 50 54 57 63 56 70 69 74 75 80 81 83 82 85 89 87 88 87 89 89 89 89 89 89 89 88 89 90 90 90 91 89 88 88 88 89 88 87 85 85 85 84 84 83 83 82 83
84 71 77 72 74 71 74 75 73 74 74 78 75 73 68 57 53 49 49 50 60 66 77 80 77 81 83 86 83 84 88 88 91 89 89 88 89 89 89 90 90 89 90 91 91 91 92 91 89 89 89 89 89 88 86 86 84 84 84 84 84 83 83
72 75 82 83 81 80 77 75 72 74 69 61 61 59 75 72 61 49 53 53 60 73 90 80 79 82 86 87 85 85 87 88 90 90 90 89 89 89 90 91 92 92 90 91 92 92 91 90 89 89 90 90 89 88 88 87 86 85 85 84 84 83 83
71 80 85 88 88 86 83 80 75 78 73 70 59 46 55 69 70 73 64 58 56 72 79 82 81 81 88 87 86 85 88 90 91 89 91 90 90 90 91 92 93 92 91 90 90 89 90 90 88 89 89 89 89 89 89 88 87 86 87 86 85 84 83
78 84 87 87 88 86 81 80 82 78 73 74 69 63 62 60 63 61 59 57 60 78 81 81 83 79 86 89 90 87 89 92 93 90 90 89 88 88 91 93 93 92 91 90 88 87 88 88 87 88 89 89 90 90 90 89 88 87 87 87 86 85 83
61 69 73 79 84 84 77 75 78 80 80 79 77 75 67 64 65 63 56 53 56 73 78 77 83 83 85 87 90 90 88 88 91 92 85 89 88 88 89 90 90 88 88 87 86 86 86 87 88 88 88 89 90 89 90 90 89 89 88 88 87 85 84
49 49 52 56 65 72 77 79 79 80 79 76 72 65 62 50 58 65 59 56 58 73 84 83 78 80 81 82 87 91 90 86 91 92 83 87 88 85 85 86 84 86 86 86 84 83 84 86 88 87 87 89 90 90 90 91 90 89 89 89 88 86 85
58 61 60 72 76 74 71 75 77 78 80 81 77 67 60 55 50 59 61 65 63 68 74 83 81 77 79 84 80 86 85 82 85 80 80 86 86 85 87 86 86 85 83 84 83 82 85 87 87 87 88 89 90 88 89 91 91 90 89 89 87 87 86
68 71 71 78 78 74 76 75 75 78 78 78 75 67 65 66 61 45 55 61 68 72 74 73 76 79 78 76 78 81 79 79 83 82 81 86 86 87 88 88 86 83 83 83 82 82 84 86 87 87 88 89 89 88 89 91 91 90 90 88 87 87 85
74 76 77 79 79 78 78 78 77 76 77 76 73 70 73 66 63 60 60 62 63 70 79 82 79 77 81 82 82 85 85 81 81 80 83 85 86 87 87 85 83 81 81 81 82 82 83 85 86 86 87 88 88 88 90 90 92 91 90 88 87 87 85
73 75 77 78 76 77 78 78 78 78 78 77 76 75 76 74 62 67 71 62 66 72 75 78 78 79 84 83 84 84 82 82 83 83 82 86 86 86 85 84 84 83 83 83 83 83 83 85 85 87 86 87 88 88 90 91 91 92 90 88 86 86 85
70 76 77 78 77 76 74 76 79 79 79 78 78 78 77 75 74 75 72 67 67 76 76 77 79 77 82 80 85 85 83 83 85 85 85 86 87 86 85 84 84 84 84 84 82 82 83 84 86 87 87 88 89 91 91 92 91 92 91 88 87 86 85
62 74 75 76 76 76 74 73 75 77 76 73 76 74 78 73 64 65 68 62 64 70 75 79 81 78 78 80 78 82 82 83 84 83 84 85 86 87 86 86 86 84 85 85 84 84 85 87 86 88 87 88 89 90 91 92 93 93 91 89 87 86 86
56 68 72 74 74 71 66 68 74 75 77 78 77 78 80 79 79 71 62 61 65 69 73 76 75 78 77 77 78 76 75 79 82 83 83 82 84 86 87 86 85 86 87 86 86 87 88 89 88 90 89 89 88 90 90 91 93 93 91 89 87 86 86
56 67 71 72 64 56 59 75 81 79 76 74 76 76 75 78 80 76 77 72 70 75 73 76 76 81 83 78 75 79 81 75 78 80 84 89 88 86 88 88 87 87 87 88 87 88 88 89 91 92 91 90 90 92 93 92 92 92 90 89 88 86 86
54 62 64 58 51 55 71 79 83 83 81 80 76 74 77 80 79 82 77 76 78 80 80 76 73 73 77 79 78 81 84 80 80 82 84 80 80 81 85 86 88 87 87 87 86 86 88 90 90 91 91 91 91 92 91 90 90 90 90 88 87 86 86
61 58 55 48 51 66 75 77 79 80 80 78 76 72 76 76 76 74 72 72 75 72 73 75 74 75 76 80 77 76 82 82 82 83 82 83 84 83 83 86 86 85 87 87 88 87 89 89 90 92 91 93 92 92 93 91 91 90 90 87 86 86 86
55 56 55 56 63 65 69 72 74 74 69 71 69 59 63 73 74 73 72 74 74 74 74 74 74 77 79 76 73 77 83 81 83 85 84 85 84 85 82 86 87 87 89 89 90 89 89 90 90 92 93 93 92 92 92 91 90 90 89 86 85 86 86
60 54 52 53 52 51 58 68 76 81 82 78 72 66 62 71 74 76 73 71 72 73 74 74 74 75 72 69 71 78 86 86 84 84 87 89 87 86 88 83 88 88 88 90 90 90 89 90 91 92 93 93 91 90 90 91 89 89 88 86 85 85 85
57 54 50 51 50 54 63 68 77 80 78 82 75 62 55 68 72 75 76 74 72 73 73 72 72 69 63 63 70 78 82 87 94 92 86 89 88 87 87 87 86 89 89 89 90 88 89 89 91 91 92 92 90 88 88 90 90 88 87 87 85 85 86
55 54 53 51 58 57 64 74 78 80 80 80 71 55 54 65 72 75 76 74 74 73 72 73 72 68 62 65 73 81 85 87 88 90 92 81 81 83 86 88 85 86 87 87 87 88 88 89 90 90 91 90 88 87 87 90 89 88 87 86 86 87 86
56 55 52 58 59 65 72 75 77 78 82 73 56 43 58 69 72 74 75 75 74 73 72 72 68 69 71 72 76 81 82 84 81 82 82 82 82 82 86 86 85 83 86 87 88 89 89 88 90 91 90 88 86 86 87 87 87 90 88 86 85 85 84
52 53 52 51 58 66 73 74 78 77 73 53 50 64 69 71 72 74 76 74 74 74 72 70 69 71 75 74 75 76 76 78 78 81 82 82 84 84 82 82 81 84 88 87 88 90 89 88 89 90 89 86 85 85 85 86 88 91 86 85 85 83 82
59 50 45 41 36 61 79 73 70 69 59 59 67 70 72 75 73 73 73 74 73 74 70 72 71 72 72 72 71 72 72 73 73 75 77 78 78 80 82 84 87 84 86 86 88 89 89 90 90 90 89 85 84 84 85 86 88 87 85 85 83 82 81
45 47 43 43 58 65 77 74 63 61 66 68 70 71 68 72 72 71 71 72 72 72 70 69 70 70 69 69 70 70 70 70 71 72 72 73 74 76 81 85 84 86 82 82 87 89 89 89 90 89 89 84 83 83 84 86 85 84 84 83 82 81 80
50 48 53 60 61 63 73 71 68 68 71 74 74 73 72 70 70 72 71 71 72 72 71 69 68 66 67 67 69 67 67 68 68 69 69 71 71 73 74 74 73 79 82 77 74 78 84 88 88 88 88 84 82 82 83 83 83 83 82 81 80 79 79
59 61 61 61 59 60 64 71 70 71 75 75 73 72 68 68 68 69 68 71 71 71 70 67 65 65 66 66 66 66 66 66 67 68 69 69 70 72 73 73 71 72 75 73 72 69 68 73 82 86 86 86 82 82 83 83 84 83 81 80 79 79 78
51 44 58 58 58 60 61 68 72 76 74 71 71 68 67 67 68 68 68 68 69 70 69 67 65 65 66 65 65 65 65 65 65 66 66 66 67 68 69 70 71 70 71 70 70 69 70 70 70 78 86 86 84 83 82 83 83 81 80 79 77 77 76
51 52 56 58 61 61 63 64 69 70 70 71 70 69 68 68 68 68 67 68 67 68 68 68 67 66 67 65 64 64 64 64 64 65 65 66 66 67 69 69 70 69 68 67 67 68 67 68 69 68 73 80 84 84 84 83 82 80 78 77 77 75 74
55 60 60 58 60 60 63 64 62 67 69 69 69 70 69 69 67 66 67 67 66 66 65 67 66 65 65 66 65 65 64 64 65 65 65 66 66 66 67 69 69 69 68 67 67 69 67 68 69 69 70 70 70 72 74 74 73 71 71 71 71 72 72
49 50 52 56 51 51 58 63 63 62 67 69 67 67 66 66 65 65 64 64 65 65 65 65 65 63 63 65 65 64 64 64 64 65 66 66 66 67 68 69 70 70 69 68 68 68 68 68 68 68 68 70 71 72 72 72 72 71 71 71 71 72 73
48 55 57 59 58 57 57 59 63 65 66 65 65 64 64 64 65 65 64 62 61 62 63 65 64 63 63 63 64 65 64 63 64 66 66 66 66 67 68 68 68 69 69 69 68 66 67 68 69 69 69 71 71 71 71 72 72 72 72 70 72 74 74
55 59 60 59 57 55 58 61 62 63 65 66 64 65 65 64 64 64 63 62 61 60 61 62 64 63 64 64 64 63 64 65 65 66 67 68 67 67 68 68 69 68 68 70 68 66 67 69 68 69 69 70 71 71 71 72 74 74 73 71 70 72 73
53 59 60 59 60 60 60 62 62 62 65 65 63 63 64 63 64 64 62 61 62 61 60 60 62 63 63 64 63 62 62 64 65 65 66 66 67 66 68 70 69 68 68 69 70 70 68 68 68 69 71 73 73 74 76 76 77 76 75 75 74 73 72

ECMWFFLT2_sfc_temp_024.txt.gz
Temp
80 77 81 80 80 61 65 72 65 66 71 72 57 55 61 59 55 53 51 61 61 64 71 74 79 81 81 82 82 84 83 85 84 83 84 86 86 86 86 86 86 85 86 85 86 86 86 85 84 84 83 83 82 81 81 80 80 80 80 80 80 80 80
79 84 82 82 83 73 65 66 66 73 77 75 65 50 57 55 47 51 61 59 54 62 55 69 71 75 79 79 80 83 83 84 83 84 84 85 87 86 86 86 86 87 86 86 86 87 87 86 85 84 83 84 83 83 82 81 80 79 80 80 80 80 80
78 83 81 77 81 83 76 66 75 72 54 58 57 54 51 48 49 47 53 59 56 58 57 62 68 72 75 77 79 81 81 82 83 84 85 86 87 87 86 86 86 86 86 86 86 87 88 87 85 85 85 84 84 83 83 83 81 81 81 82 81 81 81
78 78 75 64 70 78 81 77 71 75 64 65 56 60 51 54 45 51 49 55 52 60 60 65 71 74 77 78 78 80 82 83 84 85 86 85 85 86 87 87 87 87 87 88 88 88 87 86 85 85 85 86 85 84 83 82 83 82 81 81 81 80 81
75 66 69 69 71 67 69 70 69 68 68 67 71 64 63 52 42 40 46 50 52 55 64 71 72 75 77 80 79 80 83 84 85 86 87 86 86 87 88 88 88 87 88 88 88 89 89 88 86 86 86 85 85 85 83 83 81 81 81 82 81 81 81
62 67 74 76 76 76 73 71 68 71 65 57 58 56 68 59 55 43 46 51 46 60 74 74 75 75 79 81 81 81 84 85 85 86 87 87 87 87 88 89 90 89 87 87 88 89 88 87 86 86 86 86 86 85 84 84 83 82 82 81 81 81 81
66 70 76 81 82 81 79 76 72 73 67 58 55 46 44 59 59 60 51 50 57 66 72 75 75 76 80 82 83 83 85 86 86 87 88 88 88 88 89 90 91 90 88 87 87 86 86 86 85 85 86 86 86 85 85 84 83 83 83 83 82 82 81
71 75 76 76 79 81 77 77 78 73 68 69 62 48 48 57 52 57 54 54 58 62 68 71 73 70 78 83 85 85 87 87 85 86 87 87 86 87 89 91 92 90 89 86 84 83 84 83 83 84 85 86 86 86 86 85 84 84 84 84 83 82 81
55 65 68 69 73 76 73 72 76 77 76 72 68 65 55 57 52 59 54 52 57 57 71 80 80 71 76 80 82 82 83 83 84 85 85 86 86 87 88 89 89 88 87 83 82 83 83 83 84 84 85 85 86 86 86 85 85 85 85 85 84 82 82
45 46 50 53 59 67 72 74 75 76 75 70 63 61 56 49 51 54 50 55 46 55 66 80 85 80 69 75 81 85 85 84 85 84 84 84 85 84 86 86 85 83 82 82 82 82 82 83 84 83 84 85 86 86 86 87 86 85 85 85 84 83 82
56 58 52 54 63 68 67 70 71 73 76 76 72 62 55 56 44 54 50 53 57 66 70 75 82 82 79 74 75 77 81 81 84 83 83 84 83 83 84 84 84 80 78 80 81 81 83 84 84 84 85 85 86 85 86 87 87 86 85 85 84 83 82
66 68 67 71 70 69 71 70 69 73 74 74 70 63 61 53 54 56 53 50 62 61 64 68 74 81 77 70 74 80 76 76 79 78 80 84 84 84 83 83 81 79 79 80 80 81 83 84 84 84 85 86 86 85 86 87 87 86 86 85 84 83 82
70 72 72 74 72 69 70 73 73 71 72 73 69 66 64 60 62 59 58 52 58 62 69 72 72 71 70 73 73 78 82 82 76 74 78 80 83 82 81 81 80 80 80 80 81 81 82 84 84 84 84 85 85 86 87 86 87 87 86 84 83 83 82
68 70 71 74 72 71 70 70 72 72 73 72 73 72 70 66 60 62 59 53 62 64 69 72 75 74 75 76 72 73 75 79 77 76 77 81 82 81 81 81 81 80 81 81 80 80 81 83 83 84 83 84 85 85 86 87 87 87 86 84 83 83 82
62 69 72 73 73 71 68 69 72 73 73 72 73 74 72 69 67 65 62 59 61 65 64 70 69 66 69 74 75 75 74 75 80 82 80 81 83 84 83 82 82 82 82 81 80 79 80 81 83 84 84 84 86 87 87 88 87 88 87 84 83 83 82
54 67 69 71 72 72 69 66 66 69 71 69 70 68 71 67 59 61 60 56 59 59 64 71 71 67 73 75 72 72 73 75 74 75 79 81 82 84 84 83 82 81 81 80 79 80 81 83 83 84 84 85 85 86 87 88 88 88 87 85 84 83 83
46 60 68 69 70 67 62 64 69 68 66 71 74 75 74 74 71 63 58 61 60 66 66 70 72 70 73 73 72 70 71 73 74 75 77 78 80 81 81 80 79 81 82 81 81 82 83 84 84 86 86 85 84 86 86 87 88 88 87 85 84 83 83
47 57 61 68 62 53 56 70 74 72 70 69 66 68 72 74 75 70 70 71 63 62 63 69 72 69 70 73 72 72 78 74 73 77 78 80 81 81 82 83 83 83 83 83 83 84 84 85 87 88 87 87 87 88 88 88 87 87 86 85 84 83 83
47 55 58 57 50 54 58 66 74 76 76 73 69 66 67 68 69 73 68 67 64 65 70 72 72 69 67 68 71 70 72 74 79 78 79 80 81 82 83 82 83 83 84 84 84 84 85 86 87 87 87 87 88 88 87 86 86 85 86 85 84 83 82
51 50 50 48 49 58 66 70 71 72 73 73 69 64 66 65 66 66 64 67 67 67 67 68 64 70 71 71 70 71 75 73 74 77 79 80 82 83 85 84 85 85 86 86 86 85 86 86 87 88 88 89 88 88 88 86 86 86 86 84 84 83 82
44 46 48 49 57 62 65 68 68 67 63 67 68 54 58 65 66 67 65 64 67 67 68 68 68 69 68 67 70 74 74 72 74 75 80 84 83 85 85 87 88 89 89 88 88 86 86 86 86 88 89 90 88 88 87 87 86 86 86 84 84 83 83
54 49 46 51 51 48 54 59 67 73 71 69 69 64 59 64 67 67 67 64 64 65 66 65 65 67 70 59 62 71 74 76 76 78 77 79 79 81 83 83 84 81 80 85 87 87 86 85 87 88 89 89 87 86 86 86 85 85 85 84 84 83 83
51 49 46 48 45 46 51 65 70 74 74 73 68 62 50 61 65 66 67 66 64 65 67 65 63 64 55 59 61 69 72 72 76 74 75 76 77 76 79 85 85 85 85 85 86 84 85 85 87 88 88 88 86 84 84 86 86 85 84 84 84 83 84
48 47 46 45 52 50 54 58 62 69 74 72 66 46 47 59 66 67 68 67 66 64 65 67 65 61 57 58 62 71 72 71 72 71 71 72 73 75 78 78 78 82 84 82 82 84 84 85 87 86 87 86 84 83 84 86 85 85 85 85 86 86 86
46 48 46 48 53 56 59 60 61 66 71 68 54 41 56 64 67 67 67 67 66 65 65 65 62 62 63 64 66 70 70 69 69 70 71 71 72 73 75 76 76 74 77 82 84 85 86 86 87 88 87 85 84 84 84 84 84 86 87 87 87 86 85
43 45 46 45 50 54 60 62 62 68 69 57 47 58 63 64 65 66 68 67 66 66 65 64 63 63 67 68 67 67 67 67 66 68 69 70 72 73 73 74 73 75 76 76 80 85 86 87 86 86 84 84 83 83 83 84 85 89 88 87 87 86 84
48 46 42 38 34 51 63 60 62 64 56 53 62 65 66 67 66 66 65 66 65 66 63 64 63 64 64 64 64 64 65 65 65 66 66 66 67 68 70 71 72 74 72 73 76 77 79 81 80 81 82 82 83 83 83 84 87 88 88 87 86 84 82
42 42 39 39 50 57 62 58 49 56 59 63 63 67 63 65 65 65 64 64 64 65 63 63 62 63 62 62 63 63 64 65 65 66 66 66 66 68 70 71 70 72 71 71 71 71 73 74 75 77 77 74 74 75 77 82 84 86 85 84 83 82 81
48 45 49 54 58 59 61 59 58 60 65 66 66 65 64 63 63 64 64 63 64 64 64 63 62 62 62 62 63 62 62 64 64 64 64 65 66 67 67 68 69 69 69 68 69 70 72 72 73 72 72 72 72 74 74 77 77 77 78 79 81 80 80
56 58 56 57 58 58 58 61 61 62 64 66 65 64 62 61 62 64 64 64 64 64 64 62 61 62 62 62 62 62 63 63 64 65 65 65 66 67 68 67 68 67 68 68 69 69 68 69 69 70 71 72 69 68 72 75 77 77 78 77 77 79 79
49 42 55 55 56 58 58 59 61 63 65 65 64 61 61 62 64 64 64 64 64 64 64 62 61 61 62 61 61 62 63 63 63 64 64 64 65 65 65 67 67 66 66 66 66 66 66 67 69 69 69 69 69 69 70 73 75 75 75 75 75 76 76
48 48 54 55 58 59 59 58 56 57 60 63 64 63 62 62 63 63 63 64 63 64 62 61 61 60 61 60 59 60 60 61 62 63 64 64 65 66 66 67 67 66 65 65 65 65 65 67 68 69 69 69 69 70 71 75 75 74 72 71 72 72 73
52 56 57 55 57 58 58 58 58 59 60 61 62 63 64 64 62 62 62 63 62 62 61 61 61 60 60 60 60 60 60 60 60 61 62 63 64 65 66 66 67 66 65 65 65 65 66 67 68 68 68 69 69 69 70 71 71 69 67 66 67 68 68
46 48 51 54 49 49 53 56 57 58 61 61 61 62 62 61 61 61 60 60 61 62 62 61 61 59 59 60 60 60 60 59 60 61 61 62 63 65 67 68 67 66 65 65 65 65 66 67 68 68 68 68 69 70 70 70 70 68 68 68 68 67 67
45 54 54 56 56 55 55 56 58 59 60 60 59 58 60 61 61 61 60 59 59 59 60 61 60 59 59 59 60 61 60 60 60 61 62 62 64 65 67 67 67 66 65 66 66 66 66 68 68 68 68 68 69 69 70 70 70 69 69 67 67 67 67
54 57 56 58 56 54 55 57 58 58 60 60 59 59 61 61 60 60 59 59 58 57 58 59 60 60 60 60 61 60 60 62 62 62 63 65 65 65 66 66 66 66 66 65 65 65 66 67 67 67 68 68 69 69 69 69 69 69 68 66 65 65 66
51 56 56 57 57 57 57 57 58 58 60 61 59 59 60 59 60 60 58 58 59 59 57 57 58 60 60 61 60 59 60 61 62 63 64 64 66 64 65 65 65 66 66 67 66 66 66 67 67 67 67 68 68 69 69 68 68 66 67 67 66 66 66

ECMWFFLT2_sfc_temp_027.txt.gz
Temp
72 74 76 74 74 58 61 66 59 65 67 66 54 52 52 52 49 49 48 56 54 58 67 69 73 76 77 79 81 82 81 81 80 79 80 81 83 83 83 83 82 82 83 83 84 84 84 83 83 82 81 81 81 80 80 79 79 79 79 79 78 79 79
74 77 74 76 77 68 61 60 65 67 69 71 61 48 52 51 45 46 52 55 52 58 52 61 69 69 74 76 78 81 81 80 79 80 80 81 83 83 84 83 83 84 84 83 84 85 85 84 84 83 82 82 82 81 81 80 79 78 79 79 79 79 78
72 76 73 70 74 78 74 67 71 68 51 53 50 47 49 44 46 46 44 51 53 54 55 61 63 68 71 72 75 78 79 79 78 80 81 82 83 84 83 83 83 83 83 83 84 85 86 85 84 84 84 83 82 82 82 82 80 81 80 81 80 80 80
72 72 68 60 67 72 74 70 68 70 61 60 52 56 45 50 44 45 46 50 56 57 60 63 69 68 72 74 74 75 78 80 80 81 82 82 82 82 84 84 84 85 85 85 85 85 85 85 84 84 84 84 83 83 82 81 82 81 81 80 80 79 80
69 60 63 64 67 64 66 64 63 63 65 61 67 56 59 53 38 38 43 46 51 52 59 67 70 71 72 74 75 76 78 80 82 82 83 82 82 83 84 85 85 85 86 86 86 86 86 86 86 85 85 84 84 84 82 82 81 81 80 81 80 80 80
59 60 68 72 71 72 69 67 64 67 63 54 54 52 58 52 51 40 41 50 56 55 65 71 70 73 75 75 77 77 79 81 82 84 84 84 83 83 84 86 86 87 86 87 87 87 86 86 85 85 85 85 84 83 84 83 82 82 81 80 80 80 80
63 67 71 74 77 75 74 71 68 67 62 55 54 43 50 52 56 53 50 49 58 61 66 70 73 72 75 76 76 77 79 80 83 84 85 85 85 84 86 86 87 87 87 87 87 85 84 84 84 84 84 84 84 84 84 83 82 82 83 82 81 81 80
63 68 69 69 70 74 70 71 72 69 64 64 66 60 50 55 48 53 48 51 54 66 63 68 71 70 73 75 76 77 80 81 82 83 84 83 82 83 86 87 88 88 87 86 85 83 82 82 82 83 84 84 84 84 84 84 83 83 83 83 82 81 80
52 59 62 64 67 68 65 66 70 72 73 69 63 54 50 57 53 54 49 50 54 60 61 67 66 68 71 73 74 76 78 79 81 82 82 82 82 82 83 84 85 86 86 84 82 82 81 81 83 83 83 84 84 84 84 84 84 84 83 83 82 81 81
42 43 46 50 56 61 63 65 69 72 71 68 62 61 52 52 48 52 48 50 46 55 59 70 67 66 65 67 71 75 78 79 81 81 81 79 79 80 81 82 84 84 84 83 81 81 81 82 83 82 82 83 84 84 84 85 84 84 83 83 83 82 81
49 51 51 53 59 61 63 66 66 68 71 73 70 60 54 54 44 53 48 49 52 61 69 68 70 70 74 74 68 69 73 75 76 76 78 78 79 80 82 82 84 83 81 81 81 81 82 83 83 83 83 83 84 83 84 85 85 84 83 83 82 82 81
51 55 54 61 65 65 66 65 66 68 67 69 68 63 59 52 51 53 49 47 59 58 56 59 62 67 70 73 75 73 70 72 75 77 76 79 78 79 80 81 80 80 81 81 80 80 81 82 82 83 83 84 84 83 83 84 85 84 84 83 82 81 81
56 57 58 61 62 67 68 68 68 67 67 66 65 65 59 58 61 59 53 51 56 58 61 65 67 70 71 73 70 73 76 75 71 70 74 76 79 80 79 78 78 79 80 79 79 80 81 82 81 82 82 83 83 83 84 84 85 84 84 82 81 81 80
53 56 58 60 61 63 66 68 68 69 69 68 68 68 64 63 61 61 60 53 61 65 69 70 73 70 73 69 66 66 68 73 74 73 74 78 79 80 80 80 80 79 80 80 80 80 80 81 81 82 81 81 82 83 83 84 84 85 83 82 81 81 80
50 54 58 60 61 63 63 64 68 70 70 70 70 70 68 64 65 64 58 53 56 62 64 73 75 73 67 65 66 71 72 70 71 72 74 77 79 81 81 80 80 80 80 80 79 79 79 80 81 82 82 82 83 84 84 84 84 85 84 82 81 81 80
45 53 55 57 58 59 61 64 63 65 67 65 69 67 69 62 59 61 58 53 55 60 64 64 66 64 65 68 66 66 68 69 68 71 74 75 76 78 80 79 78 78 79 79 78 79 80 81 81 82 81 82 82 83 84 85 85 85 84 83 82 81 81
40 51 55 55 55 55 54 59 66 67 66 68 70 70 70 70 70 63 60 63 65 68 68 66 68 68 66 66 67 67 64 63 68 72 74 75 76 78 79 78 78 79 80 80 80 81 82 82 83 83 83 83 82 83 83 84 85 85 84 83 81 81 81
42 50 52 54 48 43 52 69 72 70 67 66 64 66 69 68 69 69 72 73 72 69 63 65 69 71 67 70 66 63 67 66 64 67 71 76 78 78 80 81 81 81 81 81 82 82 83 83 85 86 85 84 84 85 85 85 84 84 83 83 82 81 81
40 48 49 44 38 45 61 60 71 74 73 69 67 66 68 71 68 68 66 67 68 66 67 67 70 68 64 63 63 65 64 65 68 67 68 69 71 75 78 77 79 78 79 80 80 80 81 83 84 84 84 85 85 85 84 83 83 83 83 82 82 81 80
45 42 41 35 34 50 58 61 63 68 71 67 67 62 62 59 61 62 64 61 63 61 61 61 59 64 66 64 64 64 66 66 65 66 68 70 71 73 76 78 79 78 78 79 80 80 82 82 83 85 85 86 85 85 85 84 83 83 83 82 81 81 80
37 40 41 44 52 54 59 58 57 54 52 56 63 57 55 59 61 58 65 65 61 60 61 63 65 65 65 64 65 68 68 67 67 67 68 70 71 73 73 74 76 77 81 82 83 82 82 83 83 84 86 86 85 85 83 83 83 83 83 81 81 81 81
47 41 38 39 40 42 44 51 58 61 62 59 57 61 58 58 59 61 62 64 62 63 64 67 66 62 65 63 60 66 68 68 68 67 68 70 69 69 71 72 76 76 76 78 79 82 82 82 84 85 86 86 84 82 82 82 82 82 82 81 81 81 81
46 41 37 36 38 40 48 51 57 60 61 60 58 57 54 56 61 60 61 62 61 65 68 65 62 65 60 56 56 65 65 66 68 66 66 68 68 69 69 69 69 71 74 76 78 78 77 80 81 82 84 84 83 81 81 82 82 81 81 81 81 81 81
44 42 39 35 43 44 49 55 58 60 60 60 59 50 49 55 60 62 62 62 61 60 61 64 62 65 63 60 57 64 66 66 66 64 64 65 66 68 69 70 69 69 70 76 76 79 78 79 81 80 80 81 80 80 80 82 81 81 81 81 82 83 83
44 44 38 41 46 53 55 56 59 61 62 57 56 46 50 57 61 61 61 60 60 59 60 61 60 57 59 59 61 65 65 64 64 65 66 65 66 67 68 68 69 68 69 71 74 78 79 78 78 79 81 80 80 80 80 80 81 83 83 83 83 83 83
38 40 39 40 44 51 55 59 59 62 57 49 45 53 60 60 60 61 62 61 61 62 61 61 60 60 62 64 64 63 64 63 63 64 65 66 67 68 69 70 68 68 68 68 70 73 73 74 77 78 79 79 79 78 78 79 82 85 84 83 83 83 82
44 42 39 38 34 47 58 57 58 60 48 48 56 57 61 63 61 61 61 62 61 62 60 60 60 61 62 63 63 63 64 64 63 63 64 64 64 65 66 66 68 68 67 68 68 69 70 72 74 77 77 76 76 77 77 80 81 81 80 80 81 81 80
38 40 36 37 48 53 59 56 48 54 56 59 60 58 58 61 60 60 60 60 61 61 60 60 60 61 61 61 63 63 63 64 64 64 64 65 65 66 66 67 66 67 66 67 67 68 68 69 69 73 78 75 75 74 76 73 75 77 77 78 78 78 78
46 42 45 54 55 56 58 57 56 58 60 62 61 59 59 58 59 60 60 60 61 61 61 61 61 60 61 61 63 62 62 63 63 63 64 65 65 65 65 65 66 66 65 65 66 66 67 67 68 67 70 75 74 76 75 72 74 77 78 77 77 77 79
55 55 55 56 57 57 56 59 59 59 60 61 61 58 57 58 59 60 60 60 60 60 61 59 58 59 60 60 61 61 61 60 61 63 64 66 67 67 66 65 65 65 65 66 66 66 66 67 68 68 67 69 73 74 71 73 76 77 78 77 76 77 78
46 40 54 54 54 56 56 57 59 60 60 58 58 56 56 58 59 60 60 60 60 59 59 58 57 57 58 57 58 58 59 59 60 61 63 64 65 66 65 66 65 64 65 65 66 66 66 67 68 68 68 68 67 67 68 71 74 76 77 77 76 76 76
45 46 52 54 57 57 57 56 55 55 57 59 59 57 57 58 59 60 59 60 59 60 58 58 58 57 58 57 57 57 58 58 60 61 62 63 65 66 67 66 65 65 65 65 65 66 66 67 67 68 68 67 68 68 70 72 73 73 74 74 73 73 73
51 54 55 55 56 56 57 58 57 57 57 58 58 58 57 58 57 58 59 60 59 59 58 59 59 57 57 58 58 58 58 59 60 61 62 63 64 65 66 65 65 64 65 65 65 66 66 67 67 67 67 67 68 67 68 70 70 70 71 70 70 70 71
45 46 49 53 49 48 53 56 56 57 59 59 58 57 57 57 56 57 58 58 59 59 59 59 59 57 57 58 58 58 58 58 59 60 61 63 64 65 66 66 65 65 65 65 65 65 66 67 67 67 67 68 68 69 68 68 68 67 66 67 68 69 70
43 52 53 54 55 53 54 56 57 58 59 58 57 56 56 57 58 58 58 57 57 57 57 59 59 57 57 57 59 59 58 58 59 60 61 62 63 64 65 65 66 66 66 66 66 66 66 67 67 68 68 68 68 68 68 68 68 67 68 67 68 68 69
52 55 55 57 55 52 54 56 58 57 58 58 57 57 57 57 57 57 57 56 56 56 57 57 58 58 58 58 59 58 58 59 59 60 61 64 64 65 65 65 65 66 66 66 66 65 66 67 67 67 68 68 68 68 68 68 67 66 66 66 66 67 67
50 55 55 55 55 56 56 57 57 57 58 59 57 57 57 57 57 57 55 55 55 56 56 56 57 58 58 58 58 57 58 59 60 61 62 63 65 64 64 65 65 65 65 66 66 66 66 66 67 67 67 67 68 68 68 68 68 66 66 65 65 65 65

ECMWFFLT2_sfc_temp_030.txt.gz
Temp
69 72 70 69 71 54 55 61 56 61 63 62 53 49 49 49 46 43 44 51 52 56 61 68 68 69 72 74 76 77 78 79 78 77 78 79 80 81 81 81 81 80 81 81 81 81 82 82 81 80 79 80 79 79 78 77 78 78 77 77 78 78 78
68 70 74 71 74 64 59 55 61 63 68 65 56 45 44 47 39 42 47 50 46 52 53 56 65 65 70 70 73 76 77 78 77 78 78 78 80 81 81 81 81 81 81 81 82 83 83 83 82 81 80 81 80 80 80 78 78 77 78 78 78 78 77
67 68 69 64 70 71 69 63 67 65 46 50 45 46 44 39 40 39 40 42 49 51 54 55 63 64 67 69 71 73 75 76 77 78 78 78 80 81 80 81 81 81 81 82 82 83 85 84 82 82 82 82 81 81 81 81 79 80 80 80 79 79 79
64 66 66 55 62 67 69 65 65 63 58 52 47 51 41 47 38 43 39 46 52 53 58 59 65 67 68 70 69 71 75 77 78 79 80 79 79 79 81 82 82 82 83 83 84 84 84 84 83 83 84 84 83 82 81 81 81 80 80 79 79 78 79
63 55 59 61 63 60 61 60 58 59 60 58 62 52 56 47 40 38 41 43 48 53 58 65 67 67 70 71 71 72 75 77 79 80 81 81 80 80 81 82 82 83 83 84 85 85 85 85 85 85 85 84 84 83 82 82 80 80 80 81 80 79 79
54 55 65 69 68 69 65 63 60 61 57 52 49 46 56 50 48 39 39 47 50 51 60 68 69 69 71 72 73 73 75 77 78 80 81 82 81 81 81 83 84 84 84 84 85 85 84 85 85 84 84 84 84 83 83 83 83 82 82 81 80 79 79
56 62 68 73 74 72 71 68 64 66 58 52 49 42 46 51 53 48 47 45 56 58 64 66 69 70 71 73 73 74 75 76 79 80 83 82 82 82 83 84 85 85 84 84 84 83 82 83 83 84 84 84 84 84 84 83 83 82 83 83 82 80 79
57 62 62 65 65 67 66 67 68 64 62 63 61 59 48 52 46 52 47 47 50 58 63 67 69 69 70 68 70 74 76 77 78 79 80 80 79 80 81 82 84 83 84 83 82 81 80 81 81 82 83 84 84 84 84 84 83 83 83 83 83 81 80
50 55 57 59 60 64 60 61 65 66 67 65 65 57 46 53 51 55 48 47 51 55 53 61 63 64 69 71 70 70 73 74 74 75 77 78 77 77 77 77 80 81 83 80 79 80 79 79 82 82 82 83 84 83 84 84 84 85 84 84 83 82 81
39 40 42 43 48 54 54 57 64 66 66 64 58 58 50 49 47 51 48 49 39 53 54 63 64 63 64 69 68 68 68 70 72 72 74 73 74 74 75 76 77 79 80 80 79 78 78 80 82 80 81 83 84 84 84 85 85 84 84 84 84 82 82
41 43 42 47 54 51 53 58 61 63 66 68 66 60 51 52 41 50 50 52 48 57 65 63 66 63 66 71 70 68 70 70 70 69 70 72 73 75 76 76 78 77 76 77 78 78 80 82 82 82 83 83 84 82 83 85 85 85 84 83 82 82 82
46 50 50 54 55 50 52 52 58 62 64 65 63 59 57 51 48 50 51 46 58 58 59 61 62 64 62 64 66 67 66 68 69 68 68 73 71 72 73 73 75 75 76 77 78 78 80 81 81 82 83 84 83 82 83 84 85 85 84 83 82 81 81
50 51 52 54 54 54 54 56 57 60 62 62 61 61 56 57 59 56 56 50 53 56 60 64 65 67 68 70 70 70 68 67 67 67 69 70 72 73 73 73 74 75 76 76 77 78 79 81 80 81 82 82 82 82 84 83 85 85 84 82 81 81 80
48 50 51 53 52 53 54 55 57 60 62 63 64 64 63 61 59 59 60 51 59 63 65 64 65 64 68 65 64 63 64 67 66 67 67 70 71 72 73 74 76 76 77 77 77 78 78 79 79 81 80 80 82 83 83 84 83 85 83 82 80 81 80
44 49 51 52 53 52 51 54 55 58 61 64 66 65 64 60 61 62 58 52 55 63 63 69 71 65 65 67 68 71 69 69 69 67 69 70 71 72 73 73 75 76 77 78 77 77 77 78 79 80 80 81 82 84 84 85 83 84 84 81 81 80 80
40 47 49 50 52 52 51 52 54 55 57 57 62 61 64 60 57 57 59 56 54 59 62 62 64 65 64 68 70 70 69 67 65 66 69 69 69 71 73 74 75 75 77 77 77 78 79 80 80 81 80 81 82 83 84 84 85 85 84 83 81 80 80
34 46 48 49 49 50 50 56 60 60 58 61 62 63 63 67 67 61 58 61 64 65 64 65 68 68 68 64 66 68 65 59 62 66 68 70 71 71 69 71 73 76 79 79 78 80 82 81 81 83 83 82 81 82 82 84 85 84 83 83 80 79 80
35 45 46 48 43 38 46 55 56 58 61 63 60 63 64 63 67 69 70 70 68 66 63 66 70 69 69 69 64 62 64 61 59 61 64 67 69 70 70 71 74 75 76 79 80 81 81 82 84 85 84 84 83 84 85 84 83 83 82 82 81 80 80
34 43 44 39 36 42 52 59 58 57 56 60 64 66 67 66 66 68 66 64 65 66 68 71 73 73 61 60 62 63 63 61 61 61 62 62 64 67 69 69 72 73 74 76 77 77 80 83 82 82 82 84 84 83 83 82 82 80 81 81 80 80 79
40 37 35 31 37 46 56 56 56 59 56 56 56 59 65 67 66 65 65 66 66 65 65 67 66 60 62 62 62 63 64 64 64 63 63 64 65 65 68 69 70 71 74 75 78 78 81 81 82 83 84 85 84 84 84 83 82 82 81 80 80 80 79
33 34 34 39 47 50 49 47 50 52 49 49 48 45 53 57 55 61 64 65 64 63 61 63 60 60 63 62 64 64 64 63 64 64 64 65 65 66 66 67 69 70 73 75 77 77 78 79 80 82 84 85 84 84 83 83 81 82 81 79 79 79 79
43 37 33 35 34 35 40 50 54 58 58 57 55 49 48 54 57 58 59 63 65 64 59 59 60 62 67 61 63 65 64 65 65 65 65 66 66 66 67 67 67 67 68 73 76 79 78 78 80 81 83 83 82 80 80 81 81 81 80 79 79 79 79
39 37 32 32 33 38 43 48 54 57 58 58 55 50 46 53 55 57 58 60 63 65 63 58 61 65 63 61 60 61 63 64 66 64 65 66 66 66 67 67 67 68 68 69 74 75 76 78 78 80 82 82 81 79 79 81 81 80 80 79 80 79 80
42 38 35 34 39 42 47 52 55 57 59 57 52 44 43 51 55 56 57 58 61 63 62 63 65 67 62 62 63 62 64 64 65 64 64 64 65 66 68 68 68 68 68 71 74 74 75 75 77 78 80 80 79 78 79 81 81 80 80 80 80 81 81
43 43 37 40 43 49 52 53 56 58 59 56 47 43 46 52 54 58 59 59 59 58 60 64 66 59 62 61 62 64 65 64 63 65 66 65 65 66 67 67 69 68 69 69 69 71 71 74 77 78 79 78 77 77 77 78 79 81 82 81 80 80 80
39 39 39 39 43 48 52 56 57 58 55 45 43 51 55 56 57 60 61 59 59 59 59 60 62 60 63 64 64 63 64 63 63 64 65 65 66 67 68 68 67 68 69 68 69 69 69 70 75 77 77 76 75 75 75 77 79 82 81 79 79 79 79
44 41 37 36 33 46 55 55 54 58 48 49 54 55 58 59 58 59 59 60 60 61 59 61 61 62 62 63 62 63 63 63 63 64 64 64 64 64 65 66 66 67 66 67 67 67 68 69 69 73 77 75 75 75 75 77 80 79 78 79 78 78 78
38 38 36 36 43 48 55 55 48 54 56 58 58 56 55 58 58 57 58 60 61 61 61 60 61 61 61 61 62 62 62 63 64 64 65 65 65 66 66 66 66 66 65 66 66 67 67 68 68 67 70 74 73 73 75 77 78 77 78 78 77 77 77
45 42 43 50 52 54 56 56 55 58 60 60 59 59 57 56 57 59 58 57 60 61 62 61 61 60 60 60 61 61 61 62 63 63 64 65 65 65 64 64 65 66 65 65 66 66 67 67 68 67 68 69 70 72 71 71 75 76 76 76 76 77 77
51 52 52 54 54 55 55 58 59 58 59 60 59 58 57 58 59 59 57 58 59 60 60 59 60 59 60 60 60 61 62 62 63 64 65 65 66 65 65 64 65 65 66 66 66 66 66 67 67 68 68 67 67 67 68 70 72 74 76 76 75 76 77
44 40 53 52 52 54 55 56 59 60 60 58 58 56 55 56 58 61 60 60 59 59 60 58 57 58 60 59 60 61 61 62 62 63 64 65 65 65 64 65 66 66 66 65 65 65 65 66 67 68 68 68 68 68 68 70 72 72 73 75 75 75 75
42 43 51 52 56 55 56 56 55 55 56 58 57 57 57 57 57 57 57 59 58 60 59 58 58 58 60 59 59 60 61 61 62 63 63 64 65 66 66 66 67 66 66 65 65 65 66 67 68 68 68 68 68 68 68 70 71 71 72 73 73 73 74
46 51 53 54 54 55 55 56 57 57 57 56 56 57 57 58 56 56 58 58 57 58 58 59 59 58 59 59 60 60 60 60 61 62 63 64 65 65 65 66 66 66 66 66 66 66 66 67 68 68 68 68 68 68 68 68 69 70 69 68 70 72 72
39 43 49 53 47 47 52 55 56 57 58 57 56 56 56 57 56 56 55 57 59 58 58 58 58 58 58 59 59 60 60 60 61 62 63 64 64 65 66 67 67 66 67 67 66 66 66 67 68 68 67 68 68 68 68 68 68 68 68 68 68 69 69
41 49 51 53 53 52 54 55 56 57 57 56 56 55 55 56 56 56 55 54 55 57 57 58 57 57 57 58 60 61 61 60 61 62 63 63 63 64 65 65 65 65 66 66 66 66 66 67 68 68 68 68 68 68 68 68 68 67 67 68 67 67 67
47 49 52 54 53 51 53 56 57 57 57 57 56 56 56 56 55 55 55 54 53 54 56 57 57 56 56 57 59 59 59 60 61 62 63 63 63 63 64 64 64 64 64 64 65 65 66 67 67 68 68 68 68 69 69 68 68 67 66 66 65 65 66
46 54 54 54 54 55 55 56 57 57 59 58 56 56 56 56 56 56 54 54 55 55 54 55 56 57 56 57 58 58 58 59 60 61 62 63 64 63 63 64 63 63 64 64 65 65 65 65 66 67 68 68 68 68 68 67 67 66 66 66 66 66 66

ECMWFFLT2_sfc_temp_033.txt.gz
Temp
77 78 80 77 80 60 69 71 63 68 78 72 64 61 62 62 59 57 67 65 70 77 78 82 84 82 83 85 86 87 87 88 86 85 86 87 87 87 87 86 86 85 87 86 86 86 87 87 86 85 84 84 84 84 83 82 82 83 82 82 82 82 82
77 83 81 79 80 80 71 63 70 78 80 77 66 57 59 58 54 58 63 62 65 66 64 79 82 81 83 83 84 87 86 87 86 86 86 86 87 87 87 87 87 87 87 87 88 88 88 88 88 86 84 85 85 85 85 83 83 82 83 83 83 83 82
75 78 80 75 80 82 75 72 82 68 58 57 63 61 51 52 52 56 60 64 65 68 68 76 75 78 81 82 83 85 85 86 86 87 87 87 88 88 87 87 86 87 87 87 87 89 90 89 87 87 86 87 87 86 86 87 84 85 85 86 85 83 83
74 75 75 62 68 76 77 80 74 80 73 65 57 61 62 61 55 54 57 59 60 71 74 78 79 79 81 84 83 83 86 87 87 88 89 87 86 86 87 88 88 88 89 90 90 90 90 90 89 89 90 90 89 88 86 87 87 86 85 84 84 83 84
74 64 70 68 70 66 68 70 69 70 71 74 73 68 65 60 57 56 56 56 65 72 80 81 81 83 83 84 83 82 84 87 90 89 89 88 87 86 87 88 89 89 89 91 92 91 91 92 91 91 92 90 90 90 89 88 86 86 86 86 85 83 84
65 69 75 77 76 76 72 70 68 70 67 62 58 56 69 67 61 53 56 55 67 77 78 82 83 85 87 86 84 84 86 88 87 88 90 89 88 87 88 90 91 91 90 91 92 92 91 92 92 92 92 92 91 90 91 90 90 89 89 87 85 84 84
67 72 76 81 82 80 78 76 72 75 74 71 63 53 59 65 67 68 65 58 63 80 78 81 85 87 89 89 87 86 87 88 89 89 92 91 89 89 90 90 92 92 91 90 90 89 88 89 90 91 91 92 91 91 91 91 90 90 91 90 88 84 84
71 74 76 77 76 75 74 76 78 75 71 72 69 67 67 63 64 60 62 56 65 77 76 81 85 84 87 86 86 85 89 89 89 88 89 88 87 87 90 91 92 91 91 89 88 87 86 86 87 89 90 90 91 92 92 92 91 91 91 91 90 86 85
60 66 72 73 73 73 71 72 75 76 77 76 75 72 65 63 65 66 61 54 65 76 73 76 77 80 83 86 87 85 84 86 88 88 87 87 85 86 87 87 88 88 90 87 85 85 84 85 88 88 89 89 91 91 92 92 92 93 92 91 91 88 87
46 46 49 55 61 66 68 70 73 74 74 72 69 63 61 56 63 65 62 63 70 77 74 77 78 79 78 83 85 87 85 83 86 87 86 83 83 83 84 85 86 86 85 85 84 84 84 86 88 86 87 90 91 91 91 93 93 92 92 93 91 89 89
54 53 51 56 58 61 62 65 66 70 74 76 73 70 62 59 61 62 64 67 70 73 78 79 82 80 81 84 86 85 84 84 83 80 81 83 82 82 85 84 85 84 83 83 83 83 86 89 88 89 89 90 91 88 89 92 93 92 91 91 89 90 89
53 57 56 61 59 55 59 60 63 66 68 72 70 65 62 66 63 57 66 68 67 71 76 78 80 82 80 81 81 83 84 83 83 83 79 79 82 83 82 83 82 82 82 82 83 83 85 87 88 89 90 91 90 89 89 91 93 93 92 90 88 88 87
56 58 59 61 59 59 59 61 62 63 65 65 65 67 69 68 64 61 67 66 65 71 78 82 82 81 82 84 86 87 85 84 81 78 81 84 86 85 84 82 81 82 83 82 82 84 85 87 87 88 89 90 89 89 90 90 93 92 90 89 87 88 86
56 58 60 60 58 59 59 60 61 63 64 64 65 66 71 71 67 70 71 67 69 76 80 83 86 85 87 87 82 81 82 86 81 82 81 85 86 86 85 84 84 82 82 83 82 83 83 85 85 88 87 87 89 89 90 91 90 92 90 88 86 87 86
53 58 59 60 59 58 57 60 62 63 65 65 66 67 68 70 69 72 73 69 67 78 80 83 86 83 81 79 81 85 84 83 85 84 87 88 87 87 85 84 83 83 83 84 83 83 83 83 85 86 86 87 89 92 92 92 90 92 92 87 87 87 86
51 57 56 57 59 59 59 60 62 64 64 62 66 64 69 67 65 67 69 65 67 75 79 80 79 77 77 79 81 83 84 88 84 83 86 86 85 86 86 84 83 82 83 83 83 83 86 86 86 86 85 88 90 91 92 92 93 93 92 90 88 85 86
48 55 56 55 56 58 56 59 65 67 68 69 71 72 73 73 74 68 64 67 76 78 79 79 80 83 82 82 83 82 83 81 83 83 84 85 86 86 82 81 80 83 86 86 84 86 88 88 87 89 88 89 87 89 89 91 92 93 92 90 86 85 86
48 53 55 56 53 45 51 62 62 62 63 66 66 68 71 74 75 73 77 77 79 79 79 78 79 82 82 84 85 85 83 83 81 82 83 85 87 85 83 82 82 83 83 85 88 88 87 89 92 92 91 90 89 91 92 91 91 90 88 89 87 87 85
46 52 53 49 42 48 61 65 67 65 65 63 62 64 69 74 77 77 76 78 78 79 80 80 81 82 85 84 81 81 80 78 81 81 83 80 79 79 79 77 81 80 80 81 83 85 89 91 91 91 90 91 91 91 91 90 89 86 87 87 87 86 85
52 48 48 38 45 57 63 66 64 66 65 64 64 67 69 67 66 68 72 77 80 80 79 81 82 81 79 78 74 74 76 76 78 79 81 81 80 79 80 78 76 76 79 81 84 85 88 90 92 92 92 93 93 93 93 91 90 89 87 86 87 87 85
43 47 48 47 56 56 61 61 60 62 59 59 60 58 64 65 64 63 63 66 72 76 79 80 80 77 78 77 78 78 77 75 75 76 77 77 77 77 77 78 78 77 77 78 81 83 86 90 91 92 94 94 93 93 92 91 88 90 88 86 86 85 85
51 47 45 47 47 43 53 59 64 65 65 64 62 60 60 63 64 64 63 63 66 68 71 74 74 74 75 73 78 81 79 76 75 76 76 77 77 77 77 77 77 78 79 80 81 83 87 87 91 92 93 93 91 89 89 90 89 89 88 86 85 85 85
49 46 43 43 42 49 59 59 62 65 65 65 64 59 58 61 62 64 64 63 64 66 67 69 71 72 71 74 80 80 76 76 76 75 76 77 77 77 77 76 77 78 78 78 81 84 85 87 89 90 92 92 91 87 87 91 90 87 86 85 85 85 85
46 47 44 43 50 50 58 62 64 66 67 64 62 52 57 58 63 64 64 62 62 64 66 68 68 70 71 76 82 78 76 75 74 72 73 74 75 77 78 79 77 77 77 80 81 85 86 86 89 88 91 89 87 86 87 90 89 87 86 86 86 87 87
44 44 46 51 53 60 64 63 66 66 65 63 54 50 58 61 62 64 63 63 63 63 64 67 66 72 69 69 70 74 74 73 72 72 73 75 75 75 77 76 75 78 79 79 79 80 78 79 85 89 90 88 85 85 86 86 86 89 89 88 87 86 86
42 45 43 46 54 63 67 66 67 68 63 52 54 61 60 62 63 65 64 62 63 63 63 65 68 70 70 71 72 71 72 70 70 71 72 75 77 79 76 73 75 78 78 76 78 79 78 80 84 87 86 84 84 84 84 85 86 90 88 87 86 86 85
46 45 42 42 35 56 68 65 64 66 57 60 62 62 65 65 65 64 64 63 62 61 62 68 68 68 68 67 67 67 68 70 69 70 71 71 72 71 71 75 77 77 76 74 74 75 78 79 80 83 86 83 83 83 83 84 87 88 87 87 86 85 84
39 40 37 40 53 57 64 67 60 64 66 67 65 63 63 65 65 63 61 63 61 62 61 65 67 65 64 64 66 66 67 68 70 71 70 70 70 71 71 72 75 77 75 74 73 73 74 75 76 78 82 82 81 82 80 79 84 86 86 86 85 84 84
42 43 48 56 57 59 63 63 67 68 67 66 65 64 63 62 63 62 61 60 62 62 62 63 64 63 64 63 65 65 66 67 68 68 68 68 68 69 69 70 71 73 73 72 72 72 73 73 73 74 77 79 79 77 76 78 81 84 85 85 84 84 85
51 54 54 56 58 59 62 67 66 67 66 66 66 65 64 63 62 61 59 60 60 62 63 62 61 62 64 64 64 65 65 65 66 68 69 69 70 70 71 70 70 71 73 73 72 70 70 72 72 72 73 73 71 71 75 77 79 81 83 83 83 83 84
42 37 56 57 58 61 63 63 65 65 68 65 65 63 63 63 63 62 62 62 62 63 63 62 61 61 63 63 64 64 65 65 65 67 67 67 68 69 69 70 71 71 71 70 69 69 69 70 72 72 72 73 73 74 74 77 79 80 82 82 82 83 83
40 42 51 53 55 54 56 57 61 63 63 63 63 64 64 63 63 62 63 64 63 64 63 62 62 62 63 62 62 63 64 65 66 66 66 67 68 70 70 71 71 70 70 69 69 69 68 69 70 71 72 73 74 75 76 77 79 80 80 80 82 82 82
44 49 51 53 55 55 56 59 60 64 65 63 63 64 63 63 62 63 65 65 64 63 62 63 64 63 62 62 63 64 64 64 65 65 66 67 68 69 70 71 71 70 70 70 69 69 68 70 71 72 73 74 75 75 76 77 78 78 77 77 79 79 79
38 41 49 54 47 48 54 57 61 63 65 64 63 62 60 59 59 61 64 65 65 65 63 63 63 62 62 63 63 64 64 64 65 65 66 66 67 67 69 70 70 70 71 70 69 69 69 71 72 73 73 74 74 75 75 76 77 76 75 75 74 73 74
40 50 53 54 51 48 50 54 59 63 65 64 63 61 58 58 59 61 62 62 63 63 63 64 62 60 61 62 64 64 65 64 66 66 65 65 65 66 68 68 68 68 68 70 70 70 70 71 72 72 72 73 73 74 74 75 75 74 74 71 71 71 71
49 52 51 52 50 48 52 56 59 61 64 64 62 61 60 59 59 60 61 61 61 61 63 63 64 62 62 62 63 63 64 66 67 67 67 67 66 67 68 67 67 67 67 67 67 68 70 71 71 72 72 73 74 75 75 75 75 74 74 72 71 71 72
46 53 53 53 53 54 56 57 58 61 65 64 62 60 60 59 59 60 59 60 61 62 61 62 63 63 62 62 63 64 65 66 67 66 67 67 68 68 68 68 67 66 67 68 68 69 69 69 69 70 71 73 74 75 75 75 75 74 74 73 72 72 73

ECMWFFLT2_sfc_temp_036.txt.gz
Temp
84 84 87 86 88 67 77 79 71 76 86 81 71 71 72 72 69 66 76 72 77 86 87 90 91 92 93 95 97 98 98 99 98 98 98 99 99 98 97 96 95 92 94 93 93 92 93 93 92 92 90 90 89 89 89 87 87 88 87 87 87 88 87
85 89 89 88 88 89 82 71 78 87 89 85 73 64 67 65 61 65 75 70 73 73 70 89 89 88 91 93 95 98 97 98 97 97 97 97 98 98 97 96 95 94 94 94 94 95 95 94 94 92 90 91 90 90 90 88 87 86 88 88 88 88 87
85 89 87 83 88 90 84 80 91 76 66 64 72 68 58 60 59 64 71 75 75 77 75 83 84 86 89 91 93 95 96 97 97 97 97 97 99 99 97 97 95 95 95 95 93 96 97 96 93 93 92 93 92 92 92 93 89 90 90 91 90 88 88
84 84 82 69 77 86 89 90 83 88 81 72 66 68 70 69 63 63 67 72 69 80 82 87 85 87 90 92 92 93 97 97 98 98 99 98 96 97 98 97 97 96 96 97 98 97 98 96 95 96 96 96 96 94 92 92 93 91 90 90 89 88 89
83 71 78 75 78 74 76 77 77 79 79 85 81 78 72 68 64 65 66 65 73 82 91 89 88 89 90 93 92 93 95 98 101 100 100 99 97 97 97 98 98 97 97 99 99 99 99 100 98 98 98 97 97 97 95 94 92 93 92 92 91 89 89
73 76 84 84 83 82 79 77 75 78 74 70 64 63 78 75 69 60 65 64 76 84 93 90 91 93 93 94 94 94 97 99 99 101 101 101 99 97 98 100 101 100 98 99 100 99 99 100 100 98 99 99 98 97 97 96 97 95 95 93 90 89 89
75 81 86 88 89 88 84 82 79 82 80 78 70 58 66 74 74 77 74 68 72 88 90 91 92 94 96 96 96 95 98 99 101 101 104 101 98 98 100 100 102 101 99 98 98 97 96 97 97 99 98 99 99 98 98 98 97 97 98 96 94 90 89
81 85 88 87 88 87 82 83 85 82 77 79 76 74 76 71 73 69 70 64 74 88 89 90 93 93 97 97 98 96 98 100 100 100 100 100 97 96 99 100 101 100 100 98 95 95 94 94 95 97 98 98 99 99 99 100 99 98 98 98 96 92 90
68 74 77 79 85 85 80 79 82 84 84 83 82 82 80 70 74 74 69 62 73 85 89 90 93 94 95 96 98 98 96 97 100 100 98 97 95 94 96 96 97 97 98 96 92 93 91 92 96 96 96 97 99 99 100 100 100 100 99 98 97 95 93
52 53 55 60 67 73 80 82 82 83 82 80 76 70 72 63 70 72 70 70 79 84 85 88 90 92 91 94 97 100 99 96 98 99 97 92 92 91 92 93 94 95 94 94 92 91 91 94 95 93 94 97 99 99 99 102 101 100 100 100 99 96 95
65 67 65 71 75 77 72 77 79 81 83 84 81 77 71 65 69 69 72 74 77 77 83 84 88 90 90 92 94 95 96 98 97 92 91 94 91 91 93 92 93 92 91 91 91 91 94 96 96 96 97 97 99 96 97 101 101 101 98 98 96 97 96
62 65 66 71 71 74 76 76 76 81 81 81 78 73 70 76 71 64 73 75 75 78 82 85 86 89 89 91 92 95 96 94 95 95 92 89 93 94 92 92 91 90 90 90 90 90 93 95 95 96 97 98 97 96 97 99 101 102 100 98 96 95 95
65 66 68 71 71 71 71 76 78 76 79 79 75 74 79 77 70 67 74 75 73 79 86 88 88 88 89 93 94 96 97 97 97 93 94 97 98 95 94 91 90 90 91 89 90 92 92 94 95 95 96 97 96 96 97 97 101 101 99 97 95 96 94
64 67 68 69 69 69 70 72 72 75 77 77 78 78 80 79 73 76 77 76 77 83 85 89 90 92 93 94 95 96 95 97 95 95 94 98 100 100 97 94 94 91 91 91 90 91 90 92 93 96 95 94 96 96 97 99 97 100 98 96 94 94 94
62 66 68 67 68 67 66 70 72 74 74 75 77 77 78 78 77 80 79 75 74 85 88 88 91 92 94 93 93 94 93 94 96 95 97 97 98 99 99 96 96 95 93 92 91 90 90 90 92 93 94 94 96 99 99 100 97 99 100 95 95 94 92
60 65 66 67 67 67 66 67 70 71 72 70 73 72 76 74 70 73 75 71 73 83 88 89 88 89 88 88 89 90 92 96 95 94 96 95 95 97 99 100 98 94 94 92 92 91 93 93 92 93 92 95 97 98 99 99 100 101 100 97 95 91 92
59 65 65 64 64 64 61 64 69 72 74 75 78 78 78 78 79 73 69 72 81 84 86 86 87 88 89 89 91 90 91 91 94 93 95 97 98 98 97 98 96 98 99 97 93 95 97 96 95 96 95 96 94 96 96 98 99 100 99 98 93 91 92
58 61 62 64 60 51 56 74 79 77 74 74 72 74 77 80 81 78 82 82 85 86 86 84 84 86 87 89 91 94 91 90 91 95 96 98 99 100 101 100 100 97 95 96 98 97 96 97 101 100 97 97 96 98 99 99 99 97 95 96 94 92 91
54 60 59 55 49 54 68 74 77 76 79 78 77 78 80 82 83 83 82 83 83 84 86 86 86 87 90 93 93 95 98 95 92 91 94 94 94 95 95 95 98 96 92 91 92 92 97 100 99 99 99 99 98 99 98 98 96 94 95 94 94 92 90
58 55 56 45 52 64 69 73 74 76 77 76 73 72 76 78 81 81 79 82 84 85 86 88 89 89 92 92 91 91 94 96 94 94 94 96 98 97 98 94 91 88 91 91 94 94 95 97 100 101 100 101 101 101 101 99 98 96 95 93 94 93 91
49 54 55 56 64 63 67 67 70 73 70 70 70 66 72 79 75 76 76 77 81 84 85 86 88 87 87 85 87 95 96 95 96 97 97 98 97 95 92 93 92 90 88 89 91 91 92 96 99 101 102 103 101 101 100 99 96 98 96 92 92 92 91
58 53 52 54 54 50 60 68 72 75 75 74 73 69 69 73 76 75 75 75 77 78 81 81 81 82 80 78 84 93 98 100 97 97 96 95 92 92 92 90 90 89 89 89 90 91 93 93 96 99 101 101 99 97 97 99 98 97 96 92 91 91 91
55 52 49 50 49 56 67 67 72 74 76 76 74 68 66 70 75 74 75 76 75 75 76 76 77 77 76 79 86 87 91 95 95 92 91 92 92 90 89 89 90 90 89 87 90 91 90 93 95 96 99 99 99 95 95 99 98 95 93 92 91 91 91
53 53 50 49 56 57 66 71 73 76 77 75 71 57 62 68 75 74 74 73 75 75 73 74 75 74 75 82 84 85 88 86 87 84 84 85 85 88 89 90 88 85 85 85 86 90 93 92 95 95 98 97 95 94 95 99 98 95 93 92 93 93 93
51 49 52 57 59 67 71 72 75 76 77 72 60 54 64 70 73 74 74 75 75 74 73 74 72 77 80 82 83 86 85 86 85 85 85 85 85 85 87 86 82 86 88 88 89 91 88 87 92 97 98 95 93 93 93 93 94 97 95 94 93 92 92
50 52 50 51 59 68 74 76 78 77 70 59 60 66 70 73 72 74 74 74 74 74 73 73 74 76 80 82 84 83 84 82 82 82 84 85 86 87 83 82 83 86 88 85 88 90 88 90 92 94 93 91 90 90 91 91 93 97 96 93 92 92 91
54 53 49 48 41 62 71 71 71 74 62 67 68 72 74 75 75 74 74 74 74 73 72 75 74 76 79 81 81 79 79 80 80 80 80 80 81 81 81 82 84 86 85 85 86 86 89 90 90 92 93 89 89 89 89 90 94 95 95 93 91 91 90
46 47 45 46 59 61 69 68 61 64 68 70 73 72 74 76 76 75 74 74 73 73 72 72 74 75 76 76 77 77 78 79 80 81 80 79 81 82 83 83 81 85 84 84 84 83 84 85 86 89 90 88 88 88 88 89 92 93 92 91 91 90 90
46 50 57 61 60 65 70 69 68 68 70 74 73 73 73 74 75 73 73 72 74 75 71 71 72 72 74 73 74 72 74 76 76 77 77 77 79 82 79 79 78 81 82 80 82 81 83 82 83 84 87 87 86 83 83 87 88 89 90 90 90 89 90
57 59 59 62 64 65 69 71 70 69 70 72 74 73 71 73 73 73 72 72 72 70 70 69 71 72 72 70 72 73 74 74 75 75 76 77 79 82 80 78 78 79 80 78 77 76 78 81 82 82 83 84 81 81 84 85 87 89 89 88 88 88 89
49 44 60 60 62 65 66 67 69 70 72 70 72 70 70 72 74 75 73 71 69 69 68 67 65 66 68 68 70 70 72 73 73 75 75 76 76 76 76 76 77 78 78 77 75 75 75 78 81 83 83 83 83 83 84 87 87 86 87 88 87 87 88
47 49 57 59 62 63 65 66 66 66 68 68 68 69 70 71 72 73 72 72 69 68 67 66 66 66 66 65 67 70 71 71 73 74 74 74 75 76 76 76 76 76 76 75 74 75 75 78 79 80 80 81 82 83 85 85 87 87 86 87 87 87 88
54 58 59 60 61 62 64 66 68 69 67 66 65 66 68 72 72 73 72 71 70 69 67 68 67 66 65 66 66 68 69 69 70 71 72 72 73 74 75 75 76 76 76 75 75 75 76 77 78 78 78 79 80 80 81 83 84 83 84 84 86 87 87
48 51 56 60 54 56 64 67 65 64 66 65 65 66 66 69 70 71 73 72 72 71 69 68 67 65 65 66 67 67 67 67 68 68 69 71 71 72 73 74 74 74 75 75 75 75 75 76 77 77 78 79 81 82 82 82 81 79 79 80 82 83 85
48 57 60 61 58 56 58 60 64 65 66 66 64 63 63 67 71 69 70 72 71 69 68 69 66 65 65 66 68 69 69 68 69 69 69 70 71 71 73 73 72 73 73 75 75 75 75 76 77 77 78 79 80 81 82 82 82 81 80 78 79 79 79
55 59 59 59 57 54 58 62 63 64 65 65 64 65 66 68 70 70 68 70 69 68 68 68 68 67 67 69 71 70 70 70 71 71 72 72 72 72 73 72 72 72 73 72 72 72 75 76 76 77 77 78 78 79 80 82 83 82 82 81 80 80 80
52 59 59 59 58 59 62 63 63 64 64 64 63 64 66 68 69 70 68 67 70 69 67 67 69 71 71 72 71 70 70 70 71 71 71 72 72 72 72 72 72 72 72 72 73 74 75 75 76 76 76 77 78 80 80 80 80 80 80 81 82 82 83

ECMWFFLT2_sfc_temp_039.txt.gz
Temp
89 88 91 91 94 72 82 84 75 80 91 86 76 77 82 81 76 70 82 78 83 92 92 95 95 96 98 99 100 101 100 101 101 100 96 99 101 102 102 100 99 96 98 96 97 96 97 96 95 95 93 93 92 91 90 89 88 89 88 88 89 89 89
91 94 92 93 94 94 87 76 82 91 94 90 78 68 72 70 66 70 80 76 77 77 72 91 91 91 95 97 98 101 100 100 100 101 100 97 100 103 103 101 99 98 98 97 98 98 98 97 96 95 93 94 93 93 92 90 89 88 89 89 90 90 89
90 94 91 88 93 95 88 84 95 81 71 69 77 73 63 64 62 67 75 79 80 80 77 88 87 89 91 94 96 98 98 99 99 101 102 100 101 102 102 102 100 99 98 98 96 99 100 98 95 96 96 96 96 95 94 94 91 92 92 93 92 90 90
89 89 86 73 81 91 94 96 88 93 85 77 71 73 74 73 66 66 69 76 73 84 86 90 89 91 91 94 95 96 100 100 101 101 103 102 101 101 103 103 102 100 100 101 100 100 100 99 98 98 99 98 98 97 94 94 95 93 92 92 91 90 92
87 75 81 78 81 78 80 82 82 84 83 89 85 83 76 72 68 69 69 68 75 86 95 94 92 92 93 95 94 95 98 101 103 103 103 101 101 102 103 102 101 102 100 102 102 101 102 102 100 100 100 99 99 99 97 97 93 94 94 94 93 91 92
76 79 87 88 88 87 83 82 80 83 78 75 69 67 84 79 73 64 69 68 81 91 99 96 96 96 96 97 97 96 99 102 101 102 103 101 100 100 102 103 103 103 102 102 103 102 102 102 101 100 100 100 100 99 99 98 98 97 97 95 92 91 92
79 84 90 93 94 93 89 87 83 88 85 83 75 62 70 78 79 82 79 72 76 90 95 95 96 98 99 99 100 99 100 101 104 103 106 104 102 102 104 104 107 105 103 102 102 100 99 100 99 100 100 100 100 100 100 99 99 98 99 98 96 92 92
86 90 92 92 93 92 87 88 89 87 82 84 81 78 80 75 77 73 75 68 78 90 94 96 97 96 100 99 100 98 101 103 103 103 104 102 101 102 105 105 105 101 102 102 99 98 97 97 98 99 100 100 101 101 101 101 100 100 100 100 98 94 93
74 79 84 85 89 90 85 83 86 88 89 88 88 86 85 74 77 78 72 64 77 87 93 94 95 97 98 99 101 101 100 100 104 104 104 102 99 99 101 102 103 104 104 99 97 97 94 95 100 99 99 100 101 100 102 102 102 102 101 100 100 97 96
59 59 61 65 71 77 85 87 86 87 86 85 81 74 76 67 75 77 74 74 83 86 89 90 93 96 95 99 100 103 103 100 102 102 100 97 98 96 98 99 101 101 98 97 95 95 95 98 100 97 97 100 102 102 102 103 103 102 102 103 101 98 97
70 71 73 84 84 82 77 82 84 85 87 89 85 81 75 70 74 74 77 80 77 82 87 89 93 94 93 95 98 98 98 100 97 95 96 98 95 95 98 97 98 98 97 96 95 95 98 101 100 100 101 101 102 100 100 104 104 103 101 101 99 99 98
74 72 75 80 84 80 81 82 82 85 84 85 83 77 74 79 76 68 77 80 79 82 86 88 89 93 94 96 96 98 98 98 99 97 95 95 98 97 97 96 95 94 94 95 95 95 97 100 100 101 102 102 101 100 101 102 105 104 103 101 99 98 97
78 77 75 79 81 83 83 83 84 82 84 84 80 79 83 81 75 72 78 79 78 83 88 90 92 92 92 96 96 99 100 99 98 97 98 100 100 98 98 95 94 94 94 93 94 95 96 99 99 100 101 101 100 100 101 101 105 105 102 100 99 99 96
75 75 76 78 77 81 80 81 85 86 85 84 84 84 86 84 78 82 83 79 82 88 90 93 93 94 96 96 98 97 96 98 98 99 97 101 102 101 99 97 97 94 94 93 93 94 93 96 96 99 99 98 100 101 101 103 101 104 103 100 97 98 97
70 76 77 76 77 76 76 81 84 85 86 86 85 85 86 85 84 85 84 79 79 90 93 94 96 95 96 95 95 97 96 97 98 97 98 99 100 102 101 98 99 97 96 95 94 93 93 94 96 97 97 98 100 103 103 104 101 103 105 99 99 98 96
64 72 72 74 75 75 75 77 79 82 84 80 83 81 86 83 78 81 82 77 78 87 92 94 93 91 90 90 91 92 93 97 96 95 97 97 98 100 100 101 102 100 99 97 95 95 96 97 96 97 96 99 100 101 103 103 104 105 104 102 100 95 96
61 71 74 73 74 72 67 69 76 79 81 85 88 88 88 87 88 81 76 78 86 88 90 89 89 91 90 91 92 92 93 93 95 95 95 97 98 99 99 99 99 103 105 102 98 100 102 100 99 100 99 100 98 99 99 102 103 104 103 103 97 95 96
61 70 73 74 66 56 59 78 84 83 80 80 78 80 83 85 86 83 86 86 87 87 88 87 87 89 90 91 92 95 93 92 93 96 97 99 100 101 102 102 102 101 101 102 102 104 102 103 106 103 101 101 100 102 102 102 102 100 99 100 99 97 95
62 68 69 61 54 58 75 82 85 85 85 84 82 83 85 86 87 87 85 87 87 88 90 90 90 91 93 94 95 96 99 97 96 95 97 96 96 97 98 99 102 99 97 97 98 98 103 106 104 104 103 103 102 102 101 101 100 97 98 98 98 97 94
65 63 60 50 54 70 79 81 83 86 86 85 82 80 84 86 87 86 85 86 88 88 89 90 91 90 92 94 94 95 97 98 97 98 98 99 100 100 101 99 95 94 97 97 99 98 99 102 105 106 105 106 105 104 104 102 101 100 98 96 97 97 94
55 60 61 60 67 68 72 74 75 78 74 78 77 70 76 85 88 88 86 87 89 90 91 92 93 93 93 88 89 97 98 98 101 101 101 103 102 102 100 100 98 95 94 95 96 96 97 100 102 105 107 108 106 105 103 103 100 101 99 95 95 95 94
63 58 58 59 60 55 64 73 80 83 85 86 85 78 75 84 87 89 86 83 83 84 87 88 88 88 83 80 85 94 100 102 99 98 103 106 103 101 98 96 96 96 96 96 96 96 97 97 100 102 105 106 104 101 101 102 101 100 99 96 95 94 94
61 58 55 56 54 61 72 73 79 82 82 83 81 74 68 81 85 84 85 85 84 85 85 85 84 81 77 80 86 90 93 94 96 94 93 96 96 95 95 95 95 95 91 90 92 94 95 96 99 100 101 103 105 100 99 103 102 99 97 95 95 94 95
58 58 55 55 63 61 69 75 78 82 84 82 77 60 65 77 82 83 83 83 83 82 80 81 81 79 77 81 86 91 93 93 94 90 89 90 91 93 95 97 92 89 89 90 91 94 97 96 98 98 101 100 98 99 100 103 102 99 97 96 96 97 96
55 53 57 62 65 71 73 75 79 79 84 78 63 56 65 75 79 80 80 82 81 80 79 81 79 83 86 86 87 92 91 91 89 90 91 91 92 91 92 91 86 91 93 93 92 95 94 90 95 98 100 99 96 97 97 97 98 101 99 98 96 95 95
55 57 55 57 65 73 79 76 78 79 72 59 59 63 73 76 77 80 81 80 80 80 79 79 81 83 86 87 89 88 89 87 87 87 90 89 90 92 90 87 87 90 93 90 91 95 93 95 96 97 95 94 94 94 95 95 97 102 100 96 96 95 94
60 58 54 52 46 62 76 73 74 74 62 60 67 71 76 80 79 79 79 80 79 80 77 80 80 82 84 84 84 85 85 85 85 86 86 85 85 86 86 88 89 89 90 89 91 90 93 93 93 94 97 93 93 93 93 94 98 99 99 98 95 95 93
52 53 50 51 64 65 73 73 61 63 67 70 70 72 74 79 81 75 77 78 78 79 77 77 78 79 79 80 82 82 82 83 85 85 85 85 85 87 90 90 87 89 88 88 89 88 89 88 89 90 92 91 91 91 92 95 96 97 97 96 94 93 92
51 54 62 62 65 69 73 73 71 72 74 75 74 72 71 71 72 76 76 76 78 78 76 75 76 77 80 80 82 81 81 82 83 82 82 83 84 86 86 87 85 86 88 85 86 86 87 86 87 87 91 91 90 90 89 91 93 94 95 95 93 92 92
62 64 62 65 67 69 72 75 74 73 75 77 76 71 68 71 73 74 74 76 76 76 76 74 75 76 77 77 79 80 80 81 82 81 82 82 84 86 87 85 84 85 87 85 84 83 85 86 86 86 89 90 87 87 89 90 91 92 93 92 91 91 91
54 48 65 64 65 67 68 69 71 73 77 75 75 73 70 71 72 74 76 75 74 76 74 73 72 72 73 72 73 74 76 78 79 80 80 80 80 81 80 80 80 82 84 83 81 81 82 85 87 88 87 88 88 87 88 91 91 90 91 90 89 90 91
52 54 62 67 69 67 68 69 70 70 73 73 73 72 73 72 73 75 75 75 75 75 74 73 71 72 73 70 71 73 74 74 75 77 78 78 79 80 80 80 80 80 80 79 79 80 80 81 82 84 85 87 87 88 90 91 92 89 88 89 90 90 91
60 63 64 65 66 66 67 69 71 73 72 70 70 71 72 73 72 73 75 75 74 75 74 73 71 71 71 72 72 72 71 70 71 72 73 75 76 77 77 78 79 79 79 79 78 79 78 80 81 81 82 83 85 85 85 87 88 89 88 88 89 90 90
52 54 59 63 57 58 67 70 70 68 70 69 69 69 70 71 70 71 73 75 76 76 75 72 72 70 70 71 71 70 71 71 70 71 72 74 76 77 78 78 79 79 79 79 79 79 79 80 81 81 82 83 84 85 85 85 85 84 85 88 89 89 90
52 61 64 65 64 62 64 65 68 69 69 69 67 67 67 68 70 71 71 72 73 72 73 73 71 69 69 71 72 73 73 71 72 72 73 74 75 76 77 78 77 78 78 79 79 79 79 80 81 81 81 82 82 84 85 85 84 84 84 83 84 86 86
61 65 64 65 63 60 63 67 68 68 69 68 67 68 69 69 70 71 71 71 70 69 71 72 71 70 71 73 74 72 72 73 73 74 74 75 76 76 77 76 76 76 76 77 77 78 79 80 80 80 81 81 82 84 85 86 86 84 83 83 82 82 83
59 64 64 64 63 63 66 67 68 68 68 68 66 67 68 69 70 71 70 70 71 70 68 69 73 74 73 73 73 72 72 74 75 76 76 75 76 76 76 76 75 75 76 77 77 78 79 79 80 80 79 79 81 82 82 83 84 85 86 86 85 84 83

ECMWFFLT2_sfc_temp_042.txt.gz
Temp
91 89 92 91 93 72 82 83 74 79 90 84 74 75 80 78 73 67 79 76 81 89 91 95 96 97 97 98 99 100 99 96 94 95 95 96 99 95 92 92 92 90 90 88 88 90 93 94 93 92 90 90 88 87 86 85 85 86 85 85 85 86 85
91 95 94 92 93 94 86 75 81 90 93 90 77 66 71 70 65 68 78 73 75 75 70 90 92 91 94 96 96 99 99 100 96 95 94 95 97 99 97 95 94 92 88 87 90 92 92 91 94 93 90 91 90 89 88 86 85 84 86 86 86 86 85
90 95 92 87 92 96 87 83 95 79 70 68 75 72 61 62 62 66 73 77 78 78 76 86 86 88 90 91 95 96 97 99 98 98 95 96 98 99 98 96 94 94 94 91 90 93 94 93 93 94 93 94 93 91 90 89 87 87 87 89 88 87 87
89 89 85 71 79 90 94 95 88 91 84 75 69 71 73 72 65 64 68 75 71 84 85 88 88 89 90 92 93 96 98 98 99 99 97 96 96 96 98 99 96 96 96 96 97 97 98 95 96 96 97 96 95 93 90 89 89 88 88 88 87 86 88
88 76 81 76 79 77 80 82 81 83 82 88 83 81 75 70 66 66 65 65 73 84 94 92 91 91 92 93 92 93 96 99 101 100 96 95 96 97 98 99 99 98 98 98 97 97 97 91 96 97 97 96 96 95 92 91 89 89 89 89 89 87 88
78 80 87 86 85 85 83 81 80 82 77 74 68 66 82 78 71 61 67 65 78 90 98 95 94 95 95 95 94 95 97 100 98 100 98 97 97 97 99 101 101 99 98 98 96 94 93 91 97 97 97 97 97 95 94 93 92 91 90 90 88 87 88
81 85 90 92 91 91 89 86 83 87 84 81 73 60 69 77 78 81 77 71 73 89 96 97 97 97 98 97 97 96 98 99 101 101 104 99 97 99 102 101 101 100 98 98 96 92 92 93 95 97 97 97 97 96 96 94 93 92 93 92 91 89 88
88 90 92 91 92 90 86 87 88 87 81 82 79 77 79 73 75 72 73 67 75 90 91 96 99 96 100 97 99 96 98 100 101 101 102 97 96 97 101 101 102 98 98 96 92 90 91 93 94 96 96 97 97 97 97 96 94 94 94 94 93 90 89
69 80 83 84 88 88 83 83 85 88 88 87 86 86 83 73 76 77 71 63 75 87 92 92 94 97 98 98 100 100 97 98 102 101 100 97 95 95 99 98 94 94 94 92 89 91 90 92 97 95 96 96 97 97 97 97 96 96 95 95 94 92 92
56 59 60 63 70 75 82 86 86 86 86 85 80 73 75 64 73 75 72 72 81 87 89 91 93 94 93 97 99 102 101 98 100 101 98 93 94 92 95 93 93 93 90 90 88 89 90 95 97 94 94 97 98 98 97 99 98 97 96 97 96 93 92
67 72 74 83 83 81 75 81 84 84 86 88 85 80 74 69 74 72 75 77 77 81 86 87 91 92 93 95 95 97 93 94 94 92 92 94 92 93 96 93 93 90 88 89 89 90 94 98 98 98 97 97 98 95 96 99 99 98 96 96 95 94 93
74 76 76 81 83 80 80 81 82 85 84 85 83 77 73 78 75 67 76 78 77 80 85 87 89 93 93 94 94 95 95 93 94 92 90 93 97 96 95 96 92 90 89 90 90 91 95 97 97 99 99 99 97 96 97 98 100 100 99 97 95 94 93
77 79 80 81 79 80 83 82 83 83 84 83 80 79 83 81 74 71 77 78 77 82 89 91 91 90 92 97 98 97 96 97 95 92 94 96 96 95 96 92 89 89 91 90 91 93 93 96 96 98 99 98 97 97 98 98 101 100 98 96 95 95 93
75 78 80 81 79 80 79 83 84 86 85 83 84 84 86 85 78 82 83 81 84 88 90 92 94 96 97 96 97 96 95 96 93 97 95 98 97 97 95 93 93 91 92 92 91 92 92 94 94 98 97 95 97 98 99 100 98 101 98 96 94 95 94
71 75 80 80 79 77 74 80 86 86 86 85 85 86 86 85 84 85 86 79 80 90 91 92 95 94 97 96 96 97 94 96 97 96 98 97 97 96 95 92 94 92 92 92 92 91 91 92 94 95 95 96 99 101 101 102 99 101 101 95 95 95 93
65 74 74 77 79 77 76 75 82 83 83 80 83 81 87 83 78 81 83 76 79 88 93 94 93 93 92 91 91 93 94 96 95 96 97 98 95 96 95 94 94 92 93 92 92 92 95 96 95 95 94 97 100 100 101 101 102 103 102 99 97 92 93
61 70 73 76 75 74 69 69 79 86 86 88 88 87 88 88 88 81 76 79 86 89 90 89 90 92 91 91 93 91 92 89 94 95 95 96 97 98 94 93 92 96 96 95 93 96 97 96 96 98 97 99 95 97 98 99 101 103 102 101 94 92 93
60 69 72 75 68 58 60 78 84 86 84 85 83 84 86 89 91 86 88 87 88 90 92 91 87 89 88 89 91 94 92 89 90 95 95 97 98 99 101 101 100 99 97 95 96 98 96 97 101 100 99 99 98 100 101 100 101 98 97 98 96 93 92
58 66 67 62 55 58 75 82 85 90 86 85 86 88 90 90 91 92 89 89 87 90 92 92 89 89 92 95 95 96 97 94 93 92 96 95 96 95 95 94 97 93 93 94 96 95 102 103 99 99 99 100 99 100 99 99 97 93 95 95 95 93 92
65 61 61 50 54 71 80 83 87 88 87 87 84 81 88 90 90 90 88 88 89 88 88 91 91 90 94 94 92 92 97 96 97 96 96 98 98 98 99 92 91 91 94 94 98 95 96 100 105 103 101 102 102 101 102 100 99 97 95 93 94 93 91
56 60 59 59 69 70 76 76 79 83 78 79 77 71 80 89 90 88 86 88 89 89 91 92 92 92 92 87 89 97 97 97 99 99 95 96 99 100 97 96 94 92 94 95 96 95 96 98 100 103 105 104 102 102 101 101 97 100 97 92 93 92 92
63 57 56 58 58 57 65 76 84 88 88 87 86 78 75 86 91 91 88 85 87 89 90 89 90 91 85 81 84 92 97 96 94 94 95 96 95 96 97 95 94 91 90 92 94 95 95 96 98 99 102 103 101 97 98 100 99 98 97 94 92 91 91
59 57 51 54 53 60 72 76 82 86 86 86 86 76 70 83 86 90 90 89 86 86 90 87 87 83 77 78 83 87 91 92 92 90 91 93 94 94 93 91 91 91 90 90 92 92 93 94 96 98 100 99 101 97 95 101 100 97 94 92 92 91 92
55 55 52 51 61 58 69 80 84 84 86 85 79 61 63 68 80 82 86 89 85 86 79 84 84 79 77 80 79 91 91 91 90 88 88 88 90 92 92 91 91 90 90 91 91 94 95 91 94 96 99 97 94 93 97 101 100 95 94 92 92 94 94
55 53 56 62 56 61 66 76 81 80 85 80 62 55 60 70 77 81 81 84 82 80 80 82 78 82 83 82 85 89 89 88 88 89 91 90 90 90 91 89 87 90 91 92 91 93 92 91 95 96 95 94 93 92 92 94 95 99 96 94 93 92 92
53 57 53 57 55 61 68 76 74 75 72 60 56 62 70 74 76 78 81 77 78 79 77 78 77 79 83 84 86 86 86 86 85 87 88 88 88 90 89 88 88 88 91 90 91 94 92 93 92 93 93 90 89 91 92 92 95 99 96 92 93 92 91
57 57 53 51 42 56 71 73 70 69 60 56 65 67 68 74 72 75 76 75 76 77 75 78 77 79 81 83 83 83 84 84 84 84 85 84 85 85 87 89 88 88 88 88 90 90 91 90 90 90 90 88 90 90 90 92 95 97 98 94 92 91 90
50 51 49 46 52 61 72 69 57 66 67 68 67 67 67 71 72 71 72 73 75 76 75 74 76 78 78 78 79 80 81 82 83 84 83 83 84 86 89 90 87 87 87 87 87 88 88 87 88 88 88 86 89 90 90 92 94 95 96 94 91 90 90
53 52 54 56 60 66 69 70 69 72 75 74 73 69 68 67 70 74 72 71 75 77 75 75 75 75 76 76 78 77 78 80 81 81 82 82 83 85 85 87 84 84 85 86 85 85 86 87 87 86 87 87 91 89 86 89 91 93 92 93 91 91 91
61 64 62 64 65 68 69 73 72 73 76 77 75 71 67 70 71 73 72 73 75 77 77 74 74 73 75 75 76 76 77 78 79 80 81 82 83 84 84 83 82 83 85 86 85 83 85 86 86 87 87 88 84 84 89 90 90 92 92 92 91 91 90
53 47 64 63 65 69 70 69 72 74 77 74 73 71 69 70 73 73 74 74 75 76 76 75 72 73 74 75 74 74 75 76 75 77 76 77 78 80 79 80 81 82 83 82 82 82 81 82 83 86 87 88 86 87 88 90 91 89 90 92 89 90 89
53 52 60 62 65 65 69 70 69 70 71 71 72 71 71 72 73 74 73 75 75 76 75 75 74 73 76 73 72 72 74 74 74 75 75 76 77 79 79 79 79 79 80 80 79 80 79 80 82 83 83 84 86 85 87 87 90 89 88 89 89 89 90
59 62 63 63 64 66 68 70 71 73 70 69 69 71 71 72 72 72 73 74 75 75 74 74 74 73 73 73 73 73 73 73 73 73 74 75 77 78 78 79 79 79 79 79 79 79 79 81 82 82 83 84 84 85 85 86 84 86 86 87 88 89 89
53 55 60 64 58 59 66 70 70 68 70 70 69 69 69 70 70 70 71 73 74 75 75 74 74 72 71 72 73 73 74 73 73 74 74 75 76 77 79 79 80 79 79 79 79 79 79 80 80 81 81 81 83 85 86 85 86 84 86 86 87 87 88
53 62 66 66 65 64 65 68 70 71 69 68 67 67 67 69 70 71 70 70 70 72 73 74 73 72 71 72 74 74 76 74 75 75 75 75 75 76 77 78 78 78 78 79 78 78 79 80 80 80 80 81 82 83 84 86 85 85 84 82 84 85 85
60 63 63 65 63 61 63 67 67 68 69 68 67 68 69 69 70 71 70 70 69 69 72 73 73 73 73 74 75 74 75 77 77 76 76 77 76 77 78 78 77 77 77 78 78 78 79 80 79 79 79 80 80 82 81 82 84 85 84 83 82 83 83
57 64 64 64 64 65 67 67 68 68 69 69 67 67 68 68 69 71 69 69 70 71 70 71 73 74 73 74 74 74 73 76 77 77 77 77 78 77 77 77 77 77 77 77 77 78 79 79 79 79 78 79 80 81 81 82 81 83 82 82 83 83 84

ECMWFFLT2_sfc_temp_045.txt.gz
Temp
82 82 86 84 86 63 73 76 67 70 78 74 61 64 70 68 60 54 65 63 70 77 80 79 84 87 87 87 87 88 86 87 87 87 87 87 88 88 88 87 87 85 85 86 87 87 86 86 86 86 85 85 84 83 82 81 81 82 82 82 81 82 82
83 87 87 87 87 85 75 69 72 81 82 79 66 53 56 54 50 54 66 62 59 64 57 81 79 78 84 86 88 91 85 88 86 87 87 87 88 88 88 87 87 86 86 85 87 88 87 87 87 87 86 87 85 84 84 82 82 81 82 82 82 82 81
83 87 86 82 86 89 78 75 85 72 59 60 61 63 49 49 49 51 61 66 64 64 64 75 77 79 79 80 85 90 85 87 87 86 87 87 89 89 88 87 86 86 86 86 86 87 88 88 87 88 87 88 86 85 85 84 83 83 83 84 83 83 82
82 83 80 67 74 84 87 85 80 83 72 64 56 63 62 58 48 54 53 62 55 70 71 76 78 80 81 80 79 85 88 87 89 87 87 87 88 88 88 88 87 87 87 88 88 88 88 88 87 88 89 89 88 87 85 85 85 84 83 83 83 82 83
81 70 75 72 74 71 74 74 71 75 73 76 70 69 64 54 51 49 52 51 61 67 77 81 81 82 82 82 82 78 84 88 90 89 89 88 88 88 89 89 88 88 88 89 89 89 89 90 89 90 91 90 89 88 86 85 84 84 84 84 84 83 83
71 74 82 81 80 79 76 74 70 73 70 63 60 53 72 68 59 47 53 52 59 76 90 83 83 85 86 84 84 84 81 87 89 90 90 89 88 88 89 90 90 89 88 89 90 90 90 90 90 90 91 91 90 89 88 87 86 85 85 84 84 83 83
72 79 84 87 86 84 82 79 74 78 75 69 60 46 56 66 66 72 64 56 57 71 80 82 86 87 88 86 86 83 85 85 89 91 91 91 89 89 91 91 91 90 89 88 88 88 88 88 88 89 90 91 90 89 89 88 86 86 86 86 85 84 83
75 82 86 86 86 84 79 80 81 78 73 75 66 62 64 62 63 60 59 54 58 69 79 82 87 86 89 88 89 82 85 87 88 91 91 90 88 88 91 92 92 91 89 88 87 86 86 86 87 88 89 89 90 91 90 89 87 87 87 87 86 85 84
60 68 78 78 83 82 76 75 78 80 79 79 77 74 68 61 64 65 55 48 56 69 77 82 85 88 89 88 89 86 85 84 86 90 90 90 89 88 90 90 89 89 89 87 85 86 85 85 87 87 87 88 89 90 91 89 88 88 88 88 87 86 85
47 48 52 58 64 70 76 78 78 79 78 76 73 64 59 51 57 64 58 56 63 73 75 77 80 80 80 87 88 89 86 83 87 89 90 89 89 87 88 89 88 88 87 87 85 85 84 85 86 85 86 88 89 91 92 92 89 89 88 88 88 87 86
49 56 59 72 75 73 69 74 76 77 80 80 76 66 57 54 53 61 56 60 63 71 75 77 79 79 79 79 80 81 81 80 81 86 86 89 87 87 88 88 89 88 85 84 85 84 85 87 87 87 88 88 90 90 91 93 92 90 89 89 88 87 87
61 64 67 75 78 72 74 74 74 78 78 78 73 68 61 61 59 48 61 63 66 68 74 75 75 78 76 79 80 81 80 81 82 86 86 88 88 87 88 88 87 85 84 84 84 84 85 87 87 88 89 91 91 91 92 93 93 92 91 89 88 87 87
66 70 72 75 75 77 76 76 76 75 77 77 73 69 71 68 57 52 60 63 65 68 75 76 75 76 79 81 82 83 83 85 83 82 87 87 86 84 86 85 85 84 83 82 83 84 86 87 87 88 90 91 91 92 93 92 94 93 92 90 89 88 87
64 68 72 75 74 74 75 76 76 77 78 77 77 74 76 73 64 67 66 65 71 78 79 78 78 80 84 84 84 83 82 84 84 85 86 88 87 86 85 84 85 84 84 84 83 84 85 87 88 90 90 90 91 92 92 93 93 94 92 90 88 88 87
60 65 67 68 73 74 69 73 77 77 77 78 79 78 77 75 74 78 73 67 67 76 80 79 80 84 84 82 83 85 84 86 87 86 87 86 85 85 85 82 84 83 84 84 83 83 85 87 88 90 90 91 92 94 93 94 93 94 94 90 89 88 87
54 62 65 68 70 73 70 68 71 72 74 73 76 75 77 71 66 71 71 65 66 75 80 80 81 81 81 79 79 80 80 83 82 84 87 84 83 84 85 85 84 83 85 84 84 85 87 89 89 90 89 91 92 93 94 94 95 96 95 92 90 88 88
50 62 61 63 68 65 61 63 69 71 71 74 80 81 79 78 78 70 63 64 72 74 79 78 78 80 79 78 78 77 78 78 82 82 82 83 83 83 80 80 81 85 86 85 85 88 90 91 91 92 91 91 90 92 93 94 95 95 95 93 90 88 89
48 58 63 66 56 46 49 69 77 74 72 74 76 76 79 80 80 72 70 70 75 77 80 78 76 78 77 78 76 79 78 78 79 82 82 84 86 85 85 86 88 85 82 84 85 86 86 88 92 91 91 91 91 93 95 94 95 94 94 94 91 89 88
46 54 56 50 43 48 66 74 76 79 78 78 75 77 83 81 80 82 79 77 75 74 76 78 78 77 78 81 82 83 82 80 80 79 81 80 83 82 83 83 82 79 81 83 83 84 87 90 88 89 89 90 89 92 92 92 93 90 92 93 91 89 88
50 47 50 43 46 61 73 74 77 81 79 77 75 66 69 70 68 75 78 78 78 79 79 79 79 82 83 83 81 81 83 83 83 84 83 83 83 81 81 80 80 83 85 84 85 83 85 88 90 91 91 92 92 92 93 90 90 92 90 90 89 87 88
42 46 47 51 60 62 67 67 67 67 66 70 65 57 60 65 68 70 73 78 82 80 80 81 81 82 82 76 76 83 83 83 85 86 84 84 84 84 84 84 82 81 82 83 84 84 84 85 87 91 92 94 93 92 91 92 87 89 89 87 88 86 87
49 42 45 50 48 45 51 57 65 72 72 79 76 68 60 67 67 72 71 73 79 80 80 79 79 81 73 68 70 79 83 84 84 85 86 86 85 84 84 83 84 82 81 83 84 85 84 84 85 86 89 92 89 89 89 90 89 88 87 86 86 84 85
47 45 42 44 46 48 53 57 65 69 71 75 78 65 54 63 65 71 71 69 71 75 78 78 78 72 65 65 70 77 81 82 84 82 83 84 85 84 84 83 82 82 80 80 83 83 82 83 84 86 86 88 89 84 85 92 91 89 87 85 84 83 84
47 46 40 41 48 44 54 60 66 68 70 76 69 49 47 61 65 70 70 69 69 70 71 72 70 68 63 64 70 80 81 82 82 81 80 80 82 83 84 84 83 81 81 82 82 85 85 83 85 86 86 84 82 84 84 88 90 89 88 86 83 84 85
48 48 46 50 51 57 60 61 67 67 71 70 51 42 51 62 67 69 70 69 69 70 69 70 66 68 71 73 77 80 81 80 79 81 81 82 82 82 83 81 82 82 83 82 82 84 81 82 84 84 84 82 81 80 80 82 82 86 88 86 84 84 84
44 45 39 46 49 55 60 63 66 68 65 47 45 55 64 66 67 69 69 69 69 70 69 68 68 71 74 75 76 76 78 77 77 79 80 80 81 83 82 82 82 81 82 81 83 84 82 83 84 83 82 80 80 79 79 80 81 86 84 84 85 85 84
50 47 43 40 34 51 63 62 62 64 52 51 59 62 67 69 68 67 68 69 69 70 68 70 70 71 72 73 73 74 75 76 76 76 77 77 77 79 79 78 80 81 79 80 81 81 83 83 81 81 82 79 79 80 78 79 82 82 83 84 85 85 84
41 40 36 37 49 54 63 59 49 57 58 62 64 64 62 67 68 66 66 68 69 70 69 68 69 70 70 70 71 72 73 74 74 74 74 75 77 79 80 80 78 79 78 79 79 79 80 79 80 80 79 78 79 78 78 80 81 82 82 83 81 83 83
46 42 46 52 55 57 63 59 58 62 67 67 66 63 64 64 65 68 66 66 70 70 69 69 68 68 70 69 70 70 70 72 72 72 72 73 74 76 76 76 76 77 78 77 77 77 77 77 78 78 79 78 78 77 79 79 80 81 81 81 81 81 81
57 58 57 58 59 61 61 65 63 62 66 69 68 63 59 62 66 67 66 67 69 70 70 68 67 68 69 69 69 69 70 71 71 71 72 72 73 75 76 75 75 75 78 77 76 75 75 77 77 77 78 78 76 76 80 81 81 80 80 80 80 80 80
48 41 57 58 57 61 60 59 65 64 66 65 66 62 61 62 66 68 68 68 68 69 69 68 66 67 68 67 67 67 67 68 69 70 69 70 71 72 72 72 74 74 75 74 74 74 73 74 76 77 78 78 78 78 79 80 81 80 80 80 80 80 81
49 49 55 58 61 61 63 63 60 63 62 63 65 65 65 63 65 66 67 69 68 69 68 67 67 67 68 66 65 67 67 67 68 68 68 68 69 71 72 72 72 72 73 72 72 72 72 73 75 75 76 76 78 78 79 80 80 80 80 80 80 80 81
53 57 59 58 59 60 62 63 63 64 64 63 64 65 66 65 63 64 66 68 67 67 67 68 67 66 66 67 66 67 67 66 66 67 68 68 68 70 70 72 72 71 72 72 72 72 72 73 74 74 74 75 76 76 77 78 78 78 78 80 79 79 80
46 48 51 54 46 47 56 61 62 63 64 65 64 64 64 64 62 61 63 66 67 68 67 67 67 65 66 67 67 67 68 67 68 67 67 68 69 70 71 72 72 72 72 72 72 71 72 72 73 73 73 74 75 77 76 77 77 77 76 77 78 79 79
41 50 53 54 52 53 56 58 62 62 63 63 62 60 62 64 65 64 62 63 64 64 65 67 66 65 65 66 68 68 69 69 70 69 68 68 68 69 71 71 71 71 72 73 72 71 71 72 72 72 72 73 74 76 76 76 76 76 75 76 76 76 76
51 54 54 55 53 51 55 59 61 62 62 63 62 61 62 63 63 64 63 63 62 62 63 65 66 66 66 67 69 67 68 70 71 71 71 70 70 71 71 71 72 71 71 71 71 72 72 73 72 72 72 73 74 76 76 76 76 76 76 75 75 75 77
48 54 55 55 55 56 58 59 60 62 64 64 61 61 62 61 62 64 62 61 62 62 62 63 66 66 66 67 67 67 67 70 71 72 72 73 74 72 71 71 70 69 70 71 71 71 72 72 71 71 71 72 73 75 75 76 76 75 75 76 76 76 77

ECMWFFLT2_sfc_temp_048.txt.gz
Temp
75 77 80 78 79 59 68 70 63 66 68 70 57 54 57 54 51 52 49 59 60 64 70 74 73 74 77 80 82 81 82 83 82 82 83 84 84 85 85 84 84 83 84 84 85 85 85 85 84 84 83 82 82 81 81 80 80 81 80 80 80 80 80
78 81 79 81 81 72 68 64 68 72 77 73 61 47 48 50 44 45 55 55 49 59 54 66 73 72 75 75 80 81 81 82 81 82 83 84 84 85 85 85 84 84 85 84 86 86 86 86 85 84 83 84 83 82 82 81 80 80 80 80 80 80 79
76 81 78 74 81 82 74 71 77 71 56 58 58 54 47 44 45 42 49 56 55 54 55 60 71 74 74 73 75 79 79 81 81 82 83 84 85 85 85 84 84 84 84 85 85 86 87 87 86 85 85 85 84 83 83 83 81 82 81 82 82 81 81
74 76 74 61 69 79 79 77 76 75 65 62 55 59 49 53 41 50 46 53 52 60 59 64 71 76 78 78 72 77 79 81 82 82 83 83 83 84 84 84 84 84 85 86 86 86 86 86 86 86 86 86 84 84 83 82 83 82 82 81 81 80 81
69 64 68 67 69 66 68 69 68 71 67 66 64 62 58 49 42 43 44 45 50 59 71 76 77 79 79 79 76 75 80 82 83 84 84 84 84 84 85 85 85 84 85 86 86 87 87 87 87 86 86 85 85 85 83 83 82 82 82 82 82 81 81
55 62 75 76 75 74 71 69 66 70 65 58 58 51 65 58 50 39 45 48 49 70 83 79 79 81 83 83 81 76 80 82 84 85 85 85 84 85 85 85 86 85 85 86 87 87 87 86 86 86 87 86 85 84 84 84 83 83 82 82 81 81 81
55 65 73 79 81 79 76 74 67 74 69 63 59 47 53 62 58 56 51 47 54 63 73 80 81 82 84 86 84 77 80 83 85 86 86 86 86 86 86 86 86 86 85 85 86 85 85 85 85 86 86 86 86 85 85 84 83 83 83 83 83 82 81
59 68 74 75 79 79 74 74 72 71 69 69 66 59 52 57 56 56 53 49 52 63 64 73 81 83 85 86 84 77 82 84 86 86 86 85 84 85 87 87 87 86 86 85 84 83 83 83 83 85 86 86 86 86 85 85 84 84 84 84 83 82 81
49 58 63 68 74 76 72 71 73 73 75 73 65 63 57 59 57 60 50 44 58 61 68 70 73 79 82 84 82 81 81 84 85 85 85 85 84 85 85 85 85 85 85 83 82 83 82 82 84 85 86 86 87 86 86 85 85 85 84 85 84 83 82
36 42 42 43 55 66 72 74 74 74 73 70 64 57 55 49 53 56 52 46 60 61 69 71 72 75 79 82 80 82 84 84 85 85 85 84 84 83 84 84 84 83 83 83 82 82 82 83 84 84 85 86 87 87 86 87 85 85 85 85 84 83 83
38 44 47 56 60 59 61 71 73 72 73 73 70 56 50 54 46 56 53 61 60 63 72 69 72 73 77 76 75 77 79 82 85 84 84 84 83 83 84 83 84 83 81 81 81 81 83 84 85 85 86 86 87 86 86 87 87 86 85 85 84 84 83
48 52 52 58 59 57 60 67 71 73 72 70 68 62 59 53 54 47 55 59 62 60 64 66 68 68 69 73 74 74 78 81 84 84 83 85 84 84 84 84 83 81 80 81 81 81 83 84 85 85 86 87 87 87 87 87 87 87 86 85 84 84 83
49 51 54 57 60 63 65 66 72 71 72 70 66 64 63 58 58 54 58 58 59 64 68 68 68 69 73 74 75 77 79 82 83 83 83 84 84 83 84 83 82 82 81 80 80 81 82 84 84 84 86 86 87 87 88 88 88 87 87 85 84 84 83
47 51 55 60 61 64 66 68 72 74 73 71 70 68 65 66 56 61 63 58 64 69 72 69 71 70 73 74 74 73 75 80 82 83 83 84 84 84 84 83 84 82 82 81 80 81 81 83 83 84 84 85 86 87 87 88 88 88 87 85 84 83 83
45 53 59 61 63 63 63 66 73 74 74 73 71 71 68 66 64 64 63 58 62 66 68 69 70 71 73 74 74 77 78 79 82 82 83 84 84 84 84 83 83 82 82 81 81 80 81 82 83 84 84 85 86 87 88 89 88 88 88 85 84 84 83
41 52 54 55 61 64 62 62 65 72 72 69 70 67 66 63 62 62 60 58 60 68 71 73 72 73 73 71 70 72 74 79 80 81 82 83 83 84 84 83 83 82 81 80 80 81 82 83 84 84 84 85 86 87 88 89 90 90 88 86 85 83 84
38 50 52 51 57 56 53 53 55 61 68 66 70 71 65 61 64 61 56 61 61 68 72 73 70 74 72 71 71 72 72 72 80 81 81 82 82 83 82 82 82 83 83 82 82 83 84 84 85 86 86 86 85 87 87 89 90 91 89 87 85 84 84
38 46 48 51 49 41 44 58 63 62 63 63 58 56 58 61 63 59 63 63 65 69 73 72 69 70 70 70 70 71 72 73 73 76 77 79 80 81 82 83 83 82 81 82 83 84 84 85 87 87 87 87 87 89 90 90 90 90 89 88 86 84 84
38 42 45 45 40 43 56 64 64 63 65 63 60 59 60 60 62 63 64 68 68 69 71 71 71 71 73 75 75 76 76 75 74 74 74 75 76 76 76 76 77 76 77 78 79 80 83 86 86 87 87 88 88 89 89 89 89 88 89 88 87 85 84
42 39 38 37 37 50 59 61 62 63 64 62 62 57 59 61 62 62 61 64 69 70 71 73 73 73 74 75 76 76 78 78 77 77 76 77 77 76 76 76 75 77 79 80 81 79 82 85 85 88 88 89 89 90 91 89 89 89 88 88 87 85 84
36 39 37 39 50 53 55 52 54 56 53 55 55 50 55 61 62 63 61 63 67 71 72 73 73 74 74 70 71 77 77 77 79 79 78 79 78 78 78 79 77 77 79 80 80 80 80 81 82 84 88 89 90 90 90 90 88 89 88 87 87 85 85
43 35 34 36 39 35 42 51 58 62 63 63 63 61 54 61 63 65 63 62 63 65 68 69 72 74 68 63 65 72 76 78 78 79 79 80 79 79 79 79 79 79 79 80 79 80 79 79 80 81 83 85 86 86 88 88 87 88 88 86 86 85 84
41 38 34 35 32 41 49 49 55 60 63 63 63 60 50 61 63 65 65 63 64 65 66 65 68 68 60 59 64 70 74 76 77 76 77 78 78 78 78 78 78 78 78 79 80 79 78 78 79 80 80 80 80 79 80 85 87 86 86 85 85 84 84
41 40 36 32 39 37 47 52 56 59 63 65 61 49 46 58 63 66 66 64 63 64 65 67 65 64 60 61 65 73 74 75 76 75 74 75 76 77 77 78 78 78 78 79 78 78 78 77 78 79 79 78 78 77 77 79 81 82 83 83 83 84 84
41 43 40 41 40 48 52 53 56 59 64 63 50 40 50 59 62 65 66 65 65 65 64 65 61 63 66 68 70 73 73 72 72 75 76 76 76 75 76 76 78 77 77 77 77 77 76 77 78 78 78 78 76 77 75 74 75 78 80 80 80 81 82
38 41 38 38 41 49 52 54 57 61 59 46 44 53 60 59 61 64 66 65 66 66 65 65 65 66 69 70 70 70 70 70 70 72 73 74 75 76 76 77 77 76 76 75 77 77 76 77 78 78 77 76 76 76 75 76 77 79 78 77 79 79 79
44 40 39 36 31 45 54 53 56 59 50 49 55 58 59 60 62 63 64 65 65 67 65 67 66 66 67 67 67 68 68 69 68 69 70 71 72 72 73 73 75 76 74 74 74 74 76 76 76 76 76 75 75 75 74 76 77 78 78 77 77 79 79
36 35 35 36 45 48 54 52 45 51 55 57 58 57 54 57 61 62 63 64 65 66 66 65 65 65 65 65 66 67 67 68 69 69 69 69 71 72 74 74 73 75 73 73 73 73 74 74 74 75 74 74 75 75 74 76 77 78 78 77 75 77 78
41 38 45 51 53 53 56 54 54 57 61 62 59 57 56 55 56 62 62 62 64 65 65 65 64 63 64 64 66 65 65 67 67 67 67 68 69 70 70 71 72 73 72 71 72 72 73 73 73 74 73 73 74 73 74 76 76 77 77 77 75 76 78
52 54 55 54 56 56 54 57 57 57 59 62 61 57 54 56 58 58 58 62 63 64 64 63 63 63 63 63 64 64 65 65 66 67 67 68 69 70 70 70 71 71 72 71 71 71 72 72 73 73 73 73 72 72 74 76 76 77 77 77 75 75 76
44 38 52 51 52 56 53 53 56 57 60 59 60 57 56 58 59 58 59 61 63 63 64 62 62 62 63 63 63 64 63 64 64 65 65 66 67 67 67 69 70 70 70 70 70 71 71 71 71 73 72 73 72 73 74 75 76 76 76 77 76 75 75
44 44 48 51 55 57 56 51 51 51 54 58 60 60 60 60 61 60 60 61 61 63 63 62 62 63 64 62 62 63 63 63 64 64 65 65 67 67 68 69 69 69 70 69 69 69 70 70 70 71 71 71 72 73 74 75 75 74 75 77 76 74 76
47 52 51 51 54 55 56 55 55 54 54 54 57 60 61 61 61 61 60 61 59 60 61 61 61 61 62 63 62 63 63 63 64 64 64 65 65 66 67 68 69 68 69 69 69 69 69 69 70 70 70 70 71 72 73 74 74 73 74 76 76 74 76
39 41 44 49 42 42 50 53 54 56 57 56 56 57 60 61 60 59 59 60 61 60 60 60 61 60 60 62 62 63 63 63 64 64 64 65 66 67 68 69 67 68 69 69 68 68 68 68 68 69 69 70 70 72 72 73 73 72 73 74 73 73 73
37 45 48 51 49 48 50 52 54 56 57 55 54 55 56 58 61 61 59 58 60 60 60 60 60 59 59 61 62 63 64 64 65 66 65 66 66 66 67 68 67 67 68 70 69 69 68 68 69 69 69 69 70 71 71 72 73 72 72 72 72 72 72
45 48 48 49 47 45 49 52 54 55 57 58 55 58 57 57 59 60 59 58 58 58 60 61 61 60 60 62 62 62 63 65 65 66 67 67 67 66 67 68 67 67 67 67 67 68 67 68 68 68 69 69 70 71 72 72 73 72 72 70 71 72 72
42 48 48 48 48 49 51 52 53 55 57 58 56 57 59 59 59 61 58 58 59 59 59 59 62 62 61 62 61 62 62 64 66 68 68 69 70 68 67 67 67 66 66 66 66 66 66 67 68 68 68 69 70 72 73 74 74 73 73 72 72 72 72

ECMWFFLT2_sfc_temp_051.txt.gz
Temp
72 73 75 74 74 56 64 66 59 63 66 65 54 50 53 52 48 52 49 55 54 58 66 69 69 73 76 79 80 81 80 80 80 79 80 81 82 82 82 82 82 81 82 82 83 83 83 83 82 82 81 81 80 80 79 78 79 79 78 78 78 79 79
70 78 76 75 77 68 62 59 64 68 72 68 58 48 48 46 44 44 48 53 52 56 52 63 68 68 72 74 78 81 80 80 78 79 80 81 82 83 83 83 83 83 83 83 84 84 84 84 83 82 81 82 81 81 80 79 79 78 78 79 79 79 78
65 73 74 70 75 78 71 67 74 65 53 54 55 51 46 43 41 41 44 49 54 57 55 61 66 68 68 69 74 78 79 79 79 80 80 82 83 83 83 83 82 82 82 83 83 84 85 85 83 83 83 82 82 81 81 81 80 80 79 80 80 79 79
58 61 67 57 63 73 77 72 70 70 61 59 53 56 47 49 39 44 46 48 50 56 61 66 71 70 72 69 70 75 79 80 80 80 81 81 81 82 83 83 83 83 83 84 84 84 84 84 84 84 83 83 82 82 81 81 81 81 80 79 79 79 79
58 51 61 62 65 61 64 65 63 65 62 61 64 56 53 52 35 37 39 46 48 52 59 66 72 72 73 72 70 74 78 80 81 82 82 82 82 83 83 84 83 83 84 84 85 85 85 85 85 84 84 83 83 83 82 81 80 80 80 80 80 79 79
44 51 61 64 64 65 64 65 63 65 61 54 54 51 57 49 49 37 40 47 46 54 68 71 72 74 74 73 72 74 78 80 81 82 83 83 83 83 84 84 85 84 84 84 85 85 85 85 84 84 84 84 83 83 83 82 82 81 80 80 80 79 79
45 52 59 62 62 60 60 64 65 68 63 57 54 45 48 56 54 52 47 46 54 62 70 73 76 78 79 78 74 75 78 80 81 82 84 84 84 84 85 85 85 85 84 84 85 84 84 84 84 84 84 84 83 83 83 83 82 81 82 81 81 80 79
50 55 58 60 61 63 62 64 67 67 64 66 64 59 50 55 51 55 52 47 52 58 60 68 75 77 80 81 75 74 77 80 82 82 83 83 82 83 85 86 86 85 85 84 83 82 82 82 82 83 84 84 84 84 83 83 82 82 82 82 82 81 80
44 56 60 59 64 63 59 57 63 68 71 70 61 56 52 57 55 60 49 46 57 64 62 62 64 69 73 76 75 77 77 79 81 82 82 83 82 83 83 84 84 84 83 82 81 82 81 82 83 83 84 84 84 84 84 83 83 83 83 83 82 81 80
30 39 40 39 37 43 50 54 58 64 69 67 59 56 52 52 50 54 52 52 55 62 64 67 66 66 68 73 76 78 81 80 81 82 81 81 81 81 82 82 82 81 81 82 81 81 81 82 83 82 83 84 84 84 84 84 83 83 83 83 83 82 81
32 36 37 45 49 47 43 49 51 52 55 66 66 52 48 51 44 52 55 58 62 66 73 74 73 64 66 68 69 74 76 79 81 81 80 81 81 80 81 81 82 81 80 80 80 81 82 83 83 83 84 84 84 84 83 84 84 84 83 83 82 82 81
41 45 44 48 49 44 46 45 48 53 56 59 63 60 58 52 50 50 50 52 61 67 71 73 75 67 63 65 68 74 76 77 79 80 79 81 81 81 81 81 80 79 79 80 80 80 81 82 83 83 84 85 84 84 83 84 85 84 84 83 82 81 81
45 47 47 49 48 48 48 50 51 54 57 58 59 64 59 57 59 55 52 51 57 68 73 76 75 67 68 69 71 76 79 79 79 78 79 79 80 80 80 79 79 79 79 79 79 80 81 82 82 82 83 84 84 84 85 84 85 84 84 83 82 81 81
43 44 46 48 46 48 51 51 53 55 57 58 60 65 59 64 58 60 60 55 61 70 73 74 73 66 66 67 69 71 73 76 77 78 78 80 80 80 80 80 80 80 80 80 79 80 80 81 81 82 82 82 84 84 84 85 84 85 84 82 81 81 80
39 43 47 50 51 51 48 55 56 55 58 61 62 65 61 61 60 60 60 58 60 66 61 61 61 61 65 68 70 73 75 76 78 78 79 79 80 80 81 80 80 80 80 80 79 79 79 80 81 82 82 83 84 85 85 85 84 85 84 82 81 81 80
35 43 47 47 48 48 49 51 52 52 52 56 61 59 56 57 58 57 58 54 59 59 63 66 64 64 62 61 60 66 71 76 77 78 79 79 79 80 81 81 81 80 80 79 78 79 80 81 82 82 82 83 84 84 85 85 86 86 85 83 82 81 81
32 41 45 44 44 46 45 46 49 50 54 57 56 56 57 54 54 53 55 58 56 56 63 63 62 64 64 65 64 61 66 69 77 78 79 79 80 80 80 80 80 81 81 80 79 81 82 82 83 84 84 84 83 84 84 85 86 86 85 83 81 80 81
33 41 42 43 41 38 38 52 57 54 53 55 53 52 55 56 57 52 55 58 60 60 62 62 62 64 64 65 67 67 65 66 71 77 79 80 81 81 82 82 82 81 81 81 81 82 82 83 85 85 85 85 85 86 86 86 86 85 84 83 82 81 81
30 39 39 40 37 39 53 58 58 57 58 58 56 56 57 57 58 58 57 59 61 64 65 65 64 67 68 70 70 71 71 67 68 69 71 72 76 77 78 77 79 78 79 79 79 79 81 83 83 83 83 84 83 84 85 84 84 83 84 83 82 82 81
37 35 35 35 37 48 55 57 57 58 58 56 56 56 57 58 57 58 56 58 61 63 65 66 66 67 70 70 70 71 72 72 70 71 70 71 73 74 74 75 73 75 76 77 79 78 79 81 82 84 83 84 84 85 85 84 84 84 83 82 82 82 81
30 36 35 35 44 48 51 48 50 51 48 50 48 47 54 59 59 59 58 58 61 62 64 64 66 67 70 66 67 71 72 72 74 73 72 73 73 73 73 75 74 75 77 78 78 79 79 80 80 82 83 85 85 85 84 85 84 85 84 82 82 82 82
38 31 31 32 35 35 42 48 54 56 57 56 56 53 54 60 60 61 60 59 59 61 63 64 64 66 65 60 61 68 71 73 73 74 75 76 75 75 75 75 76 76 76 77 78 79 77 77 77 81 83 85 83 82 83 84 84 84 84 83 82 82 82
36 34 29 30 31 37 45 47 51 55 57 56 56 52 49 58 58 60 61 61 61 60 62 63 65 64 59 58 62 67 69 71 72 72 73 74 75 76 76 76 75 76 76 76 77 76 76 75 75 76 81 84 83 81 81 84 84 83 83 83 84 83 83
35 35 31 28 36 33 44 49 52 54 57 57 52 45 46 55 56 58 60 62 62 62 63 64 63 62 58 59 62 68 69 70 71 70 70 72 73 74 75 75 75 75 76 76 75 74 74 73 75 76 77 79 80 81 81 83 84 83 83 84 85 86 85
36 37 35 39 37 46 49 49 53 55 58 56 47 39 46 54 55 57 60 60 62 63 62 63 59 60 63 64 67 69 68 68 68 71 72 72 73 73 74 74 76 74 74 74 73 73 73 74 75 76 77 76 75 75 74 74 75 76 76 75 78 81 82
31 34 34 36 38 45 50 52 54 57 56 44 40 49 54 54 53 56 58 58 60 63 62 62 62 64 67 67 67 67 67 66 67 68 70 71 72 73 74 75 75 74 74 73 73 73 73 74 75 75 75 74 73 73 73 73 73 76 75 75 74 77 80
40 39 37 34 30 43 52 51 53 54 46 46 52 54 55 55 54 54 56 58 59 61 61 63 63 64 65 65 65 65 66 66 66 66 67 67 68 69 70 72 73 74 72 71 72 72 73 73 73 74 74 73 73 72 72 72 73 74 75 74 73 73 76
35 34 32 33 42 46 52 49 43 49 51 53 54 53 50 54 54 54 54 58 60 61 61 62 63 64 63 63 63 64 65 66 66 66 66 67 68 69 71 71 71 72 71 71 70 71 71 71 72 72 73 72 73 72 70 72 73 74 74 74 73 71 74
38 36 40 45 49 51 51 50 49 50 53 54 54 54 52 51 52 55 56 57 60 62 61 63 62 62 62 62 63 62 62 64 64 65 65 65 66 67 68 69 71 71 70 69 70 69 70 70 71 70 71 72 72 71 70 72 72 73 73 75 75 72 71
46 49 49 51 50 51 50 52 52 50 51 53 53 53 52 53 55 56 55 58 59 61 62 60 61 61 61 61 62 62 63 63 64 65 66 66 67 67 68 68 69 70 70 70 70 69 68 69 70 70 70 70 69 68 71 72 72 72 73 74 75 75 73
40 36 49 47 47 50 51 51 52 53 52 51 52 51 52 55 56 57 58 58 59 60 60 58 58 60 61 60 61 62 62 62 62 63 64 65 65 65 66 67 69 68 69 69 69 69 68 68 69 69 69 69 68 69 70 71 72 72 73 74 75 75 74
40 40 46 47 49 51 52 50 49 49 50 52 52 52 53 55 56 57 58 59 59 60 58 57 58 59 61 60 60 61 62 62 62 62 63 64 66 66 66 67 68 67 67 67 68 68 67 67 68 68 68 68 69 69 70 70 70 71 72 74 74 73 74
43 47 48 46 49 50 50 51 51 51 50 50 52 52 53 56 55 56 58 59 58 58 57 58 58 59 60 61 60 61 61 62 62 63 63 63 64 65 66 66 67 67 67 67 67 67 66 66 67 67 67 68 68 68 69 69 69 70 71 73 73 72 71
36 39 41 44 37 39 46 50 50 51 52 52 52 52 52 54 53 54 55 57 59 58 58 57 58 58 58 60 59 60 61 62 62 63 63 63 63 64 65 66 66 67 68 67 66 66 66 66 67 67 67 68 68 69 69 69 69 69 70 71 71 71 71
35 42 45 46 46 45 46 49 51 51 52 51 50 51 51 52 53 55 56 55 56 57 59 59 57 57 57 58 59 60 61 61 63 63 63 63 63 64 65 65 65 65 65 67 66 66 65 66 67 67 67 67 68 68 69 69 68 68 68 69 70 70 70
43 46 46 48 46 43 46 50 51 50 52 51 50 52 52 52 53 55 56 56 54 55 57 58 58 57 57 58 58 59 60 62 63 64 64 64 63 63 64 64 64 64 65 65 65 65 65 67 66 66 66 67 67 68 69 70 69 68 68 68 68 69 70
41 47 47 47 46 47 49 50 51 51 53 52 50 51 52 52 54 57 56 56 56 56 55 55 57 58 58 58 58 58 59 61 63 65 66 66 67 65 64 65 65 64 64 64 65 65 66 66 66 66 65 66 67 68 69 70 70 70 70 69 68 68 70

ECMWFFLT2_sfc_temp_054.txt.gz
Temp
59 60 63 68 69 52 57 62 54 59 63 62 51 48 49 48 43 49 47 50 51 57 63 67 66 68 73 75 76 77 77 78 77 77 78 79 80 80 80 80 80 80 80 80 81 81 82 81 81 80 79 80 79 78 78 77 77 78 77 77 77 78 77
60 62 61 63 71 64 58 55 60 64 68 65 54 44 45 43 39 40 42 53 50 54 53 64 64 64 70 72 74 76 77 77 76 77 78 79 80 81 81 81 81 81 81 81 82 83 83 82 82 81 80 80 80 80 79 78 78 77 78 78 78 78 77
57 61 61 63 68 72 66 62 69 63 47 50 55 49 41 39 38 36 43 45 50 54 55 56 63 64 67 69 71 73 74 75 76 77 78 79 81 81 81 81 81 81 81 81 81 83 84 83 82 82 82 82 81 81 81 81 79 79 79 80 79 79 79
53 57 57 51 58 67 73 67 66 64 58 56 50 53 42 47 36 39 45 48 51 55 59 62 67 66 68 70 69 71 75 76 77 78 79 79 79 80 81 81 82 82 82 83 83 83 83 83 83 83 83 83 82 82 81 80 81 80 79 79 79 78 79
53 46 53 55 58 56 60 59 56 61 59 57 61 52 52 47 37 36 38 42 45 50 56 66 69 69 69 71 71 72 75 77 79 80 80 79 80 80 82 82 82 82 82 83 84 84 85 85 84 84 83 82 82 82 81 81 79 80 80 80 80 79 79
40 46 54 52 51 50 49 53 56 60 57 51 49 47 55 52 47 37 39 43 42 54 63 69 70 72 73 72 73 74 75 78 78 80 81 80 80 81 82 83 84 83 83 83 84 84 84 84 83 83 84 83 83 82 82 82 82 81 80 80 79 79 79
42 49 55 58 58 57 56 55 54 59 57 51 51 43 45 52 54 49 44 42 50 58 62 68 71 71 73 74 75 75 76 77 79 81 82 82 81 82 83 84 85 85 83 83 83 82 82 83 83 83 83 83 83 82 82 82 82 81 82 81 81 79 79
47 51 55 56 57 55 52 55 56 55 53 56 57 54 47 51 46 50 51 47 54 61 58 65 70 70 72 71 72 74 77 78 79 80 81 80 80 80 83 84 85 85 84 83 81 80 81 81 81 82 83 83 83 83 83 83 82 82 82 82 81 80 79
42 51 51 52 53 53 47 45 49 52 54 53 53 54 49 53 51 56 47 44 55 59 57 61 63 66 69 70 72 73 75 76 77 79 80 81 79 80 81 82 82 83 83 80 79 80 79 80 82 82 82 82 83 82 83 83 82 83 82 82 82 81 80
31 34 38 33 33 40 45 48 49 51 50 49 50 49 50 47 48 51 51 53 59 62 61 66 63 63 64 64 67 71 72 73 75 76 78 78 78 78 79 80 81 81 80 80 79 79 79 81 82 81 81 83 83 83 83 84 83 82 83 83 82 81 80
33 36 34 42 44 42 40 44 46 46 50 52 50 47 43 48 43 50 52 55 61 59 65 66 68 63 66 68 65 67 70 72 74 72 75 78 78 78 79 79 80 79 78 78 79 79 81 82 82 82 83 83 83 82 82 84 84 83 82 82 81 81 81
40 42 42 46 46 41 43 42 43 47 48 49 48 45 46 48 45 50 52 53 56 64 66 65 67 69 65 64 65 68 69 72 75 76 73 78 79 79 79 78 78 77 78 78 78 79 81 82 82 82 83 84 83 82 82 83 84 83 83 82 81 80 80
42 44 44 46 45 45 45 45 45 44 47 48 46 47 51 50 51 51 56 51 55 65 69 70 70 68 69 70 68 70 73 75 75 74 74 76 78 78 78 77 77 77 78 77 78 79 80 81 81 81 82 83 82 82 83 83 84 83 83 82 81 81 80
41 42 43 45 43 44 44 44 45 47 47 49 50 50 52 53 49 53 56 54 58 67 71 67 67 64 67 67 65 64 66 71 71 73 74 77 78 78 78 78 78 78 78 78 78 79 79 80 80 82 81 81 82 82 82 83 83 84 82 81 80 80 80
37 42 44 45 44 44 43 47 49 51 52 51 52 52 53 54 53 56 57 56 57 64 56 61 60 57 58 61 62 66 66 68 70 72 74 76 78 78 78 77 79 78 79 78 78 78 78 79 80 81 81 82 83 84 84 84 83 84 83 81 81 80 79
33 40 42 44 45 45 43 43 47 48 50 48 52 50 52 51 50 51 54 53 58 59 60 59 61 62 62 61 61 62 63 66 69 71 74 75 76 77 78 78 79 78 78 77 77 78 80 81 81 81 80 82 83 83 84 84 85 85 83 82 81 79 80
30 39 41 41 41 43 42 43 47 49 53 53 55 55 55 53 52 49 52 57 55 56 59 58 60 62 62 62 62 63 64 62 66 71 74 76 77 77 77 77 77 79 79 79 79 80 81 82 82 83 83 83 82 83 83 84 85 84 83 82 80 79 80
29 37 39 40 37 35 40 51 54 53 52 51 48 52 53 55 55 51 52 53 57 58 60 59 59 61 62 62 64 65 64 63 62 67 70 75 78 79 79 80 80 79 80 80 81 81 81 82 84 85 84 84 83 85 85 84 84 82 82 81 81 80 79
27 34 37 37 32 38 49 55 56 56 56 55 50 53 56 55 56 55 55 57 58 59 59 62 62 63 65 66 66 67 68 67 64 66 69 69 72 74 76 77 79 78 79 79 79 79 82 83 82 83 82 83 82 84 84 83 83 81 81 81 80 80 79
34 30 29 27 32 46 53 54 55 57 58 55 52 54 56 56 55 54 53 56 60 60 60 61 63 64 66 67 68 68 69 69 68 67 70 70 73 75 76 77 76 76 78 78 80 79 81 82 83 84 83 84 84 84 85 83 83 82 81 80 80 80 79
26 29 29 32 42 45 47 47 48 50 46 48 46 41 51 54 55 53 53 55 61 62 62 62 63 63 66 65 66 71 69 69 70 69 68 72 73 73 73 76 75 75 78 78 79 79 80 82 83 83 84 84 84 84 84 83 82 83 82 80 80 80 80
35 27 26 26 33 35 40 46 51 56 56 55 54 47 49 55 55 55 53 54 59 61 62 63 62 63 65 60 62 67 69 70 70 70 71 72 73 74 74 73 74 75 76 77 79 81 79 80 82 82 83 84 83 81 82 82 82 82 81 80 80 79 80
31 27 23 24 27 34 42 44 49 53 56 54 55 47 46 52 53 54 52 53 56 60 61 62 63 62 59 59 61 65 68 69 70 69 70 72 72 74 75 76 76 76 77 78 79 79 79 79 79 81 83 83 82 80 80 82 82 81 80 80 80 80 80
33 31 26 23 32 30 42 46 49 52 55 56 51 42 43 50 51 53 52 52 55 57 61 62 61 61 58 58 61 66 68 69 70 69 69 70 71 72 74 76 76 76 76 77 77 78 79 78 79 81 82 82 80 79 80 82 82 81 80 80 81 82 82
33 33 30 34 34 45 47 47 50 52 53 52 43 38 43 50 51 53 52 52 55 56 60 60 58 59 61 63 65 67 69 69 68 70 72 72 72 72 73 74 76 75 76 76 76 76 75 76 79 81 82 80 78 78 78 78 79 81 81 80 81 81 81
30 32 30 31 36 44 48 49 51 51 51 41 39 47 53 51 50 52 53 52 55 55 58 60 60 61 64 65 66 67 67 68 68 69 70 71 72 73 74 75 74 73 73 73 73 74 74 77 78 79 78 77 75 75 75 74 74 75 75 76 78 80 80
38 37 34 33 30 42 48 48 50 47 41 41 46 48 52 53 51 51 52 52 53 55 54 60 61 62 63 63 64 66 66 67 68 68 68 68 68 69 70 71 73 74 72 72 72 73 75 76 77 77 77 74 74 74 73 73 74 75 76 75 76 77 79
34 34 33 33 41 44 49 47 39 43 43 47 48 48 46 49 50 50 50 52 53 55 54 55 59 61 62 63 64 65 66 66 68 69 68 68 69 70 71 72 71 72 71 71 71 71 73 74 75 76 75 73 73 72 71 73 74 75 75 75 75 75 76
36 35 39 43 47 48 49 48 47 47 49 50 49 48 47 47 47 50 50 52 53 55 55 55 57 59 61 62 64 63 64 66 66 66 67 67 67 68 68 70 71 71 70 69 70 70 71 71 72 73 74 74 73 71 71 73 73 74 74 75 75 73 73
44 46 48 48 48 49 49 49 50 48 49 50 50 48 46 48 49 49 50 52 53 54 55 53 55 57 59 61 62 64 64 65 65 66 66 67 67 68 69 69 70 70 70 70 69 69 69 70 70 71 72 73 71 70 72 73 73 74 75 75 75 75 74
38 36 45 44 44 47 50 49 51 51 51 49 49 48 48 48 49 50 51 52 54 54 55 54 53 56 59 58 59 62 63 64 64 65 64 65 66 66 66 68 69 68 69 69 68 68 67 68 69 70 70 70 70 71 71 72 72 73 75 75 75 75 74
38 39 44 44 47 50 51 49 47 48 49 50 50 50 50 49 50 51 52 53 54 55 55 54 53 54 57 57 57 59 62 63 63 64 64 64 65 66 66 68 68 68 67 67 67 67 67 67 68 69 69 69 69 69 70 71 71 73 74 75 74 73 73
41 46 46 45 47 49 49 50 50 50 49 48 49 50 50 51 50 51 53 54 55 56 57 57 54 53 55 56 56 58 61 62 63 63 64 64 64 65 66 66 67 66 67 67 66 67 66 67 68 68 68 68 69 68 69 69 69 71 73 74 73 72 72
35 37 39 43 36 37 44 47 48 48 50 50 49 49 50 50 49 50 50 52 55 57 58 56 55 53 54 57 57 57 59 61 62 63 64 64 65 66 66 67 66 67 67 67 66 66 66 66 67 67 67 68 68 69 69 69 69 71 72 71 71 71 71
34 41 44 46 45 44 45 47 49 50 50 49 48 48 48 50 51 51 50 50 52 55 56 56 55 55 54 56 58 57 58 60 62 64 64 64 64 65 66 66 66 67 67 68 67 66 66 67 67 67 67 67 68 68 69 69 69 68 68 69 70 70 71
43 46 46 47 45 42 46 49 50 50 49 48 48 48 49 49 50 51 51 51 51 53 54 56 56 55 55 57 57 56 57 60 62 64 64 65 65 65 66 65 65 66 66 65 65 65 65 66 65 66 67 67 67 68 69 70 69 68 68 69 70 71 71
41 47 47 48 47 48 49 50 51 51 51 50 47 48 49 49 51 53 51 51 53 54 54 54 55 56 55 55 56 56 56 59 62 64 63 64 65 65 65 65 65 65 64 65 65 64 64 65 65 66 66 66 67 68 69 70 70 70 70 70 70 70 72

ECMWFFLT2_sfc_temp_057.txt.gz
Temp
66 65 67 69 74 57 67 69 60 65 75 70 61 60 62 61 58 54 66 63 67 75 78 82 82 81 83 86 87 87 86 87 86 85 86 87 87 87 87 86 86 85 86 85 86 86 86 86 86 85 84 84 83 83 83 82 82 82 82 81 82 82 82
65 68 68 68 71 72 69 61 67 76 78 74 63 53 57 55 51 55 62 60 63 64 60 80 80 79 82 83 84 87 86 86 85 85 86 86 87 88 88 87 86 86 86 86 87 88 88 87 87 86 84 85 85 85 84 83 82 81 82 83 83 83 82
64 68 70 69 73 75 70 69 80 65 56 55 62 58 48 49 48 52 58 62 64 67 66 74 76 78 81 82 83 85 85 85 85 86 86 87 88 88 87 87 86 86 87 87 86 88 89 88 87 87 86 87 87 86 86 87 84 85 85 86 85 83 84
62 65 67 58 66 74 76 77 71 77 70 62 57 58 60 58 51 51 54 60 57 70 72 77 77 80 82 85 83 83 85 85 86 86 87 87 86 86 87 88 88 88 88 89 89 89 89 89 88 89 89 89 88 88 86 86 87 86 85 85 84 83 84
61 57 63 62 67 64 66 65 65 69 68 73 70 68 61 56 53 53 53 52 60 71 78 79 79 81 83 85 84 82 84 86 88 88 88 87 87 87 87 88 89 88 88 90 90 90 91 91 90 90 90 89 89 89 88 88 86 86 86 86 86 84 84
56 60 63 62 61 61 60 62 63 68 64 60 55 53 68 64 58 50 53 52 64 76 80 81 82 85 86 87 87 87 86 88 88 88 88 88 87 87 88 89 90 90 89 90 91 90 91 91 90 90 90 90 90 89 89 89 89 88 88 87 85 84 84
55 61 63 65 64 62 62 63 63 63 63 64 60 49 56 63 64 66 63 57 61 79 80 79 83 87 89 89 89 89 90 89 89 89 91 89 88 88 90 90 91 91 90 90 90 89 88 89 88 89 90 90 89 89 90 89 89 88 89 89 87 85 84
58 62 64 62 63 63 59 59 60 61 58 57 56 57 59 59 62 59 59 53 62 78 80 82 82 81 83 82 85 85 91 91 89 89 89 88 87 87 90 91 92 91 91 90 88 87 86 87 87 88 89 89 90 90 90 90 89 89 90 90 88 86 85
51 56 58 59 62 63 59 58 58 58 59 59 59 60 60 55 62 63 58 51 61 76 77 80 81 80 81 84 86 86 83 86 88 89 88 89 86 86 88 89 89 90 90 87 85 85 84 85 89 88 88 89 90 89 90 90 90 91 90 90 89 87 87
37 38 41 46 51 53 55 55 55 56 55 55 58 56 58 51 60 63 60 60 69 77 76 79 83 84 81 83 86 87 86 84 86 86 87 86 86 84 86 87 88 88 87 86 85 84 84 87 88 86 86 89 90 90 90 91 91 90 90 91 89 88 88
44 45 40 44 49 52 50 53 54 55 56 57 56 55 53 54 59 59 63 65 68 71 76 77 81 83 84 86 84 83 84 85 84 82 83 86 84 84 86 85 87 86 85 85 84 84 87 89 89 89 89 89 90 88 88 91 91 90 89 89 87 88 88
46 50 48 51 50 47 51 50 52 56 54 54 53 53 55 54 55 53 64 67 67 70 75 78 80 83 83 83 82 84 83 83 85 85 81 83 87 86 85 85 85 84 84 84 84 84 86 88 89 89 90 90 89 87 88 89 91 91 90 88 87 86 86
50 51 51 51 50 50 51 52 52 52 55 54 51 53 56 55 52 54 60 60 61 69 76 80 81 81 82 87 89 87 84 85 85 83 84 85 87 87 86 83 83 84 84 83 84 85 86 88 88 88 89 89 89 88 89 89 91 90 89 87 86 87 86
47 49 50 51 49 50 51 52 53 54 55 55 56 55 58 57 54 57 59 60 62 68 74 75 77 77 77 78 80 80 82 83 79 80 82 86 88 88 87 85 86 84 85 84 83 84 84 86 86 89 88 87 88 88 88 89 88 90 88 87 85 86 85
44 48 51 51 50 50 49 52 54 55 56 57 57 58 59 60 58 60 60 59 59 70 70 70 74 74 75 77 80 80 76 77 79 79 81 83 86 89 88 86 86 85 85 85 84 83 83 85 86 87 87 87 89 90 90 90 88 90 89 86 86 86 85
41 48 49 50 52 52 50 50 52 54 55 54 57 57 59 57 56 58 60 57 61 67 69 71 72 73 72 73 73 74 75 76 76 76 78 80 82 85 88 90 87 85 86 85 84 85 86 87 87 87 86 88 89 90 90 90 90 91 89 87 87 84 85
39 47 47 47 48 49 47 49 54 57 58 60 59 59 58 56 57 57 58 64 60 62 67 68 70 72 72 71 71 70 72 72 74 74 75 77 80 83 84 86 87 88 88 87 85 87 88 88 88 89 88 89 87 89 88 90 90 90 89 89 86 84 85
39 45 46 48 45 38 43 59 65 62 59 59 57 55 54 55 57 55 57 57 61 63 64 65 68 70 69 69 72 73 71 70 72 74 75 77 79 81 85 88 89 89 88 88 88 88 88 89 91 91 90 90 89 91 91 90 90 88 87 87 86 85 84
35 44 45 42 36 41 54 58 61 63 63 62 60 56 53 54 55 55 56 57 57 59 61 66 69 70 73 74 73 74 75 73 73 73 75 76 77 79 83 85 89 88 86 87 87 87 90 91 90 91 90 91 90 91 90 89 89 86 86 86 86 85 84
41 38 41 31 38 51 55 58 59 62 62 61 61 53 52 53 54 53 52 54 56 58 60 63 70 72 75 76 76 74 75 74 73 73 75 77 79 79 84 86 86 85 88 87 89 87 90 91 92 92 91 92 91 91 92 90 89 88 86 85 85 85 84
31 38 41 43 49 49 52 52 52 54 51 53 56 49 49 52 54 53 51 53 55 56 59 62 68 73 75 73 74 77 74 73 75 75 77 79 79 81 84 89 88 87 89 89 90 88 90 91 91 91 92 93 92 91 90 90 88 89 87 85 85 84 84
40 36 36 37 39 35 44 50 56 58 57 58 56 55 51 53 54 54 52 51 53 54 57 60 64 71 70 69 72 74 73 74 74 76 79 81 82 83 87 88 88 86 88 89 89 90 90 90 92 92 92 92 91 89 89 90 89 89 87 85 85 84 84
36 36 32 35 34 39 47 50 53 57 58 57 58 56 49 50 53 54 52 51 52 53 53 55 63 70 68 68 68 70 71 72 74 74 76 80 82 83 85 88 87 88 86 88 89 89 89 90 90 91 91 91 91 87 87 90 89 88 86 85 85 84 85
35 36 34 34 42 38 48 52 54 57 59 56 54 44 45 47 51 52 50 49 51 52 53 55 61 63 61 60 63 67 68 71 75 73 75 77 80 82 85 88 89 86 85 85 87 88 89 88 90 90 92 90 87 86 88 90 89 87 86 85 86 87 87
35 35 37 42 43 51 50 50 53 55 55 52 44 42 44 48 49 50 49 49 51 52 52 54 50 54 57 61 65 67 69 73 73 75 76 78 80 80 83 84 84 85 86 87 88 90 88 87 91 91 91 89 86 86 87 87 87 88 88 87 87 86 86
33 37 35 39 46 48 49 52 53 52 48 42 44 45 50 50 48 49 50 48 50 51 52 52 52 54 58 60 65 66 69 70 71 72 75 77 79 82 81 80 82 86 89 87 88 90 87 88 90 90 88 85 84 84 85 86 87 90 89 87 87 86 85
38 38 36 36 32 45 50 50 52 49 43 40 44 49 52 52 49 48 48 49 49 50 50 54 55 56 58 57 58 64 69 70 70 71 72 73 74 76 78 79 81 84 84 86 88 88 89 90 90 90 89 84 84 84 84 85 89 89 88 88 86 86 85
33 34 33 35 40 44 50 48 41 44 44 48 50 50 49 51 49 47 47 49 50 50 50 52 54 56 56 55 57 61 67 69 70 72 72 74 75 76 78 80 80 81 80 82 84 86 89 88 88 88 87 83 83 83 83 85 87 87 87 86 85 85 85
35 35 38 42 47 48 49 49 47 48 50 51 52 52 51 49 48 50 48 48 50 50 51 53 54 53 54 54 56 57 63 67 68 69 71 72 73 74 75 77 78 79 79 79 80 81 83 84 85 86 86 83 82 82 82 83 84 84 85 85 85 85 85
43 44 46 48 48 49 49 50 51 49 50 52 53 52 50 51 50 50 48 49 50 51 52 52 54 54 54 53 54 56 60 65 67 69 71 72 73 75 76 76 77 79 79 79 78 77 77 80 82 83 85 85 81 80 81 82 84 84 84 84 84 84 85
38 35 45 44 45 47 50 49 50 52 53 52 53 52 52 51 51 51 51 51 51 52 52 54 53 53 54 53 54 55 57 61 65 67 68 70 71 71 72 73 74 75 77 76 75 75 75 77 79 81 81 82 80 80 80 82 83 83 83 83 83 84 84
37 36 43 46 48 49 52 51 49 49 50 52 53 53 53 53 52 52 52 52 52 53 52 54 54 54 56 54 53 54 56 57 61 65 67 68 70 71 73 73 73 74 74 74 73 74 73 75 77 78 78 79 79 80 82 83 84 82 81 82 83 83 84
41 46 46 46 48 50 50 52 52 51 50 50 52 53 53 52 51 52 53 54 52 53 53 55 55 55 57 56 54 55 55 57 59 63 66 69 69 70 72 73 73 73 73 74 73 74 73 75 76 76 76 77 78 78 79 80 82 83 82 81 81 81 83
37 36 39 43 37 39 46 49 51 52 52 52 52 53 52 52 51 51 51 52 54 54 55 56 57 56 57 57 56 55 56 56 58 63 65 67 68 69 71 73 73 73 73 73 73 73 74 75 75 75 75 76 77 78 79 79 81 82 81 81 81 81 82
35 42 45 45 43 42 45 48 51 52 52 52 51 50 49 50 52 52 51 50 52 52 54 57 57 58 57 58 57 56 57 57 58 62 64 65 66 68 69 70 71 72 72 72 72 72 72 73 74 74 74 75 76 77 78 78 80 81 81 81 82 83 82
44 46 45 47 44 42 46 50 51 52 53 52 51 51 51 50 51 52 52 52 50 51 53 56 59 59 58 58 58 56 57 59 58 61 64 66 67 68 69 69 69 70 71 71 71 71 72 73 73 73 74 75 75 77 77 78 78 79 79 81 82 82 82
41 46 46 47 48 48 49 51 52 52 53 54 51 50 50 50 51 53 52 52 54 53 53 55 58 60 58 58 58 58 57 60 61 62 64 65 66 67 68 69 68 69 69 70 71 71 72 72 72 73 73 74 75 76 77 79 79 79 79 80 81 81 81

ECMWFFLT2_sfc_temp_060.txt.gz
Temp
79 79 81 81 83 63 74 75 66 71 82 77 68 68 72 71 66 63 74 70 75 84 85 88 88 90 91 93 94 94 94 96 95 95 96 97 97 96 95 94 94 91 93 92 92 92 92 92 92 91 89 90 89 88 88 86 86 87 86 85 86 86 86
77 81 82 81 82 83 79 68 73 82 85 81 70 60 64 62 57 61 71 67 69 70 66 85 85 85 88 90 92 95 94 96 95 95 96 96 97 97 96 95 94 93 93 92 93 94 94 93 93 92 90 91 90 90 89 87 87 86 87 87 87 87 86
75 77 77 76 81 84 76 76 87 71 63 61 69 65 54 56 55 59 67 71 71 73 72 82 82 83 86 88 90 92 94 94 95 96 97 97 98 98 96 96 94 94 94 93 92 94 96 94 92 93 92 93 92 92 92 92 89 90 90 91 90 88 88
73 74 73 62 69 79 82 83 78 84 77 69 63 65 66 65 58 59 62 68 64 77 79 84 83 86 87 90 90 92 94 95 95 95 97 97 97 97 97 96 96 95 95 96 96 95 96 95 94 95 95 95 95 94 92 92 93 91 90 90 89 88 90
71 61 69 67 71 68 70 71 69 74 75 81 77 74 67 63 59 60 61 60 67 78 87 87 86 87 89 90 90 91 94 96 98 97 97 97 97 97 97 97 97 96 96 97 97 97 97 98 96 96 96 95 95 95 94 94 91 92 92 92 91 89 90
61 66 76 75 76 77 74 71 68 73 70 67 61 61 76 71 64 56 60 59 72 84 91 89 89 90 91 92 92 93 94 97 97 97 99 98 98 97 98 99 99 98 96 97 98 97 97 98 97 96 97 97 97 96 96 95 95 94 94 93 91 89 90
64 71 75 75 75 73 71 73 72 75 74 72 66 54 63 70 70 73 70 64 68 86 88 89 90 91 93 93 94 93 96 97 98 98 101 100 98 98 99 99 100 100 98 97 97 96 95 96 95 96 97 97 97 96 97 96 96 95 97 96 94 90 90
64 69 74 75 75 71 69 71 75 75 70 72 69 69 71 67 69 65 65 59 69 85 88 89 91 90 93 94 96 94 96 98 98 99 99 99 97 97 99 99 101 99 99 97 95 94 93 93 94 95 95 96 96 97 97 98 97 97 97 97 95 92 91
55 60 67 70 74 72 70 72 74 74 74 73 72 69 68 62 68 70 64 56 67 82 87 87 88 91 92 92 94 95 94 95 97 100 100 100 97 96 98 98 98 98 98 95 93 93 91 92 96 94 95 96 97 96 98 98 98 99 97 97 96 94 93
42 43 46 50 56 62 69 72 74 69 69 69 68 62 65 55 62 66 65 66 75 84 85 85 87 89 88 92 94 96 96 94 96 97 97 96 97 94 95 96 97 96 95 94 92 91 91 94 95 93 93 96 97 97 97 99 99 98 98 98 97 95 94
48 53 47 57 59 60 60 66 65 67 69 71 70 68 63 59 64 63 66 69 73 77 82 82 85 87 88 90 92 93 94 96 96 94 94 96 93 93 94 93 95 94 93 92 91 91 94 96 96 96 96 96 97 95 96 98 99 98 97 97 95 95 95
52 56 57 60 59 55 58 59 62 66 66 66 66 63 61 68 64 58 68 70 70 75 80 82 83 86 88 90 91 93 94 93 94 94 90 89 95 95 94 93 93 92 92 92 91 91 93 95 96 96 97 97 96 95 95 97 99 99 98 96 94 93 93
57 59 59 61 60 60 59 60 61 61 65 65 62 64 69 67 61 59 69 68 65 74 82 84 84 82 83 87 87 90 92 93 93 91 92 94 96 96 95 92 91 91 92 90 90 91 92 94 94 95 96 96 95 95 96 96 99 99 96 95 94 94 92
55 56 58 60 59 59 60 60 61 63 63 64 65 65 69 69 62 68 68 67 70 76 81 83 84 84 85 87 89 90 91 91 88 90 90 94 96 97 97 94 93 91 92 91 89 90 90 93 93 96 95 94 96 96 96 97 96 98 96 95 93 93 93
50 55 59 60 59 58 56 60 61 63 64 64 66 66 67 67 68 69 70 68 68 79 81 77 81 83 87 86 88 88 87 88 89 89 91 93 93 95 96 96 95 93 92 92 91 89 89 91 93 93 94 94 96 98 98 98 96 98 98 94 94 93 91
45 53 55 58 60 59 57 57 60 61 62 60 64 63 68 66 63 66 67 64 66 77 76 77 79 82 83 83 84 86 86 87 86 86 88 89 89 91 93 94 96 95 94 93 92 91 93 94 94 94 93 95 97 97 98 98 98 99 98 95 94 91 92
45 53 56 56 57 56 52 55 60 63 64 65 68 70 70 69 70 66 62 65 71 68 70 72 74 78 80 83 85 82 82 82 84 84 85 87 88 89 88 89 89 95 98 96 93 95 96 95 95 97 96 96 94 96 95 97 98 98 97 96 92 90 92
44 51 53 54 50 42 46 66 71 69 65 66 63 66 66 66 69 69 71 69 69 70 68 69 69 72 73 75 80 83 81 81 82 84 85 86 87 88 89 90 91 92 93 97 98 97 95 96 99 99 97 97 96 98 98 97 97 95 94 94 92 91 91
43 50 49 42 37 42 63 67 69 72 72 71 68 65 64 65 66 67 67 69 69 65 67 67 69 70 74 78 79 84 87 85 83 82 83 84 84 85 86 87 90 90 90 92 96 96 98 99 98 98 98 99 98 98 98 96 96 93 94 93 92 91 90
48 45 44 30 37 57 63 65 67 70 73 74 66 57 59 63 65 64 64 66 66 66 66 69 69 71 74 78 80 83 87 86 84 84 83 84 85 85 87 86 86 86 90 92 97 97 98 99 100 100 99 100 99 99 99 97 97 95 93 91 92 91 89
38 43 43 43 54 56 58 58 60 66 63 62 60 51 51 60 62 62 61 62 63 64 66 68 70 72 75 73 77 87 89 86 86 84 83 84 86 87 87 89 90 90 91 92 96 97 98 100 101 100 101 100 99 99 98 98 95 96 94 91 90 89 89
49 42 40 41 42 37 50 56 63 65 65 63 60 55 48 57 62 62 60 57 58 61 63 65 67 71 71 71 77 80 75 77 78 82 84 86 88 89 89 89 91 91 93 95 97 99 98 98 100 100 100 99 98 96 96 97 96 95 94 91 90 89 89
45 42 36 36 34 43 50 53 56 61 63 63 63 54 48 54 60 61 60 57 57 57 57 60 64 68 68 72 77 70 72 71 74 75 80 85 88 88 88 89 91 94 95 95 97 97 97 98 99 100 100 99 98 95 94 97 96 94 92 91 90 89 90
44 43 38 35 43 44 50 55 56 64 64 61 58 43 43 49 59 60 59 56 54 53 54 58 60 58 59 59 61 67 69 71 72 73 77 82 85 86 89 91 93 93 93 92 94 97 97 96 100 98 99 97 95 93 95 97 95 94 92 90 91 92 92
43 40 40 44 45 56 54 56 60 62 62 59 45 40 44 54 59 59 59 57 55 53 54 56 53 55 56 57 61 65 67 68 70 71 79 84 86 86 88 90 86 92 94 94 95 97 96 95 99 100 99 96 93 92 92 93 93 95 94 92 91 91 91
42 44 39 38 45 52 53 59 58 56 51 44 42 45 49 56 57 60 58 55 55 54 54 55 55 56 60 61 63 62 63 65 66 69 79 84 86 89 88 86 87 92 95 93 94 98 96 97 98 98 96 92 91 90 91 92 93 97 95 92 91 91 90
46 44 39 36 31 49 55 55 56 56 46 43 46 49 54 58 57 55 56 55 54 55 53 57 56 57 59 59 59 60 62 63 63 66 77 78 81 84 85 87 89 91 92 93 95 97 98 98 98 98 97 91 90 89 89 91 95 95 94 93 91 90 89
40 39 33 35 44 50 57 54 45 50 50 51 51 52 54 58 59 55 55 56 56 56 55 54 55 57 57 58 58 59 60 61 62 64 75 76 80 84 88 89 88 90 90 93 95 97 97 96 96 96 94 89 88 88 89 92 94 94 93 91 90 89 89
42 42 46 49 53 55 58 55 53 54 55 55 53 52 54 56 57 58 55 54 56 56 55 55 55 54 55 56 58 57 57 58 59 61 71 75 77 80 81 86 86 88 90 90 95 95 94 94 94 93 93 89 88 87 90 92 92 92 91 90 89 89 89
48 50 49 50 53 56 57 58 58 55 54 56 55 53 52 56 58 58 56 56 56 57 57 55 54 52 53 55 56 57 58 57 59 60 70 74 76 76 79 80 84 87 88 88 87 88 92 94 92 92 92 91 87 88 91 91 92 92 90 89 88 88 89
39 37 47 48 50 54 55 56 57 57 58 56 55 54 53 55 58 58 59 59 58 59 58 55 53 53 54 54 55 56 56 57 58 59 66 73 73 73 74 77 80 83 85 85 84 83 83 87 91 92 92 92 91 90 90 93 93 90 90 89 87 88 88
38 39 45 49 52 53 56 56 54 52 54 55 56 55 55 55 58 59 60 61 61 62 59 57 54 53 54 54 55 55 55 56 57 58 63 71 72 73 74 75 76 77 79 80 82 82 82 83 85 88 89 91 91 91 93 93 94 90 89 88 89 89 90
43 48 49 48 49 53 53 53 56 57 56 54 53 55 56 57 56 57 61 62 61 61 59 59 55 53 54 55 55 56 56 56 57 57 62 69 70 72 72 73 74 73 75 77 78 79 80 82 83 84 84 86 87 88 90 92 91 89 88 87 88 89 90
37 37 40 44 39 42 48 51 55 57 58 55 54 55 56 56 56 58 59 61 62 62 61 59 57 54 55 56 55 55 56 56 57 58 63 68 69 71 72 73 74 75 75 76 76 77 78 80 82 83 83 84 85 87 87 89 89 87 87 87 88 88 89
35 42 45 46 45 46 50 52 55 56 57 55 54 54 54 56 57 58 58 59 60 60 61 61 58 56 55 56 56 55 55 56 57 59 64 66 67 69 71 71 71 72 73 75 76 76 78 80 81 81 82 84 84 86 87 87 88 88 87 86 87 88 88
45 47 46 47 45 44 49 53 54 53 55 54 53 55 56 58 57 58 59 60 58 58 59 59 58 57 56 56 56 55 56 57 58 59 64 66 66 68 70 71 71 71 72 73 74 75 77 79 80 81 83 84 84 86 86 87 88 88 87 87 86 89 88
41 46 48 48 49 50 53 53 54 54 55 54 54 55 57 57 58 58 58 58 59 58 58 58 58 57 57 57 58 56 56 58 59 60 64 65 67 67 69 71 71 71 71 73 73 75 76 78 79 79 79 80 82 84 85 86 87 87 87 87 87 88 89

ECMWFFLT2_sfc_temp_063.txt.gz
Temp
83 82 85 83 86 67 78 80 70 75 86 80 71 72 77 77 72 67 79 76 80 88 90 93 95 95 95 96 98 98 97 99 99 98 98 96 97 96 94 91 90 87 92 91 93 95 96 95 95 94 92 92 91 91 90 88 88 88 88 87 88 88 88
86 91 88 85 86 86 82 73 77 86 89 85 73 64 68 67 62 67 77 73 75 74 69 89 90 89 93 95 95 98 96 99 98 99 98 98 99 99 95 96 94 93 93 93 97 97 97 96 96 95 92 94 93 92 91 89 88 87 89 89 90 89 88
82 86 86 82 85 88 79 80 92 76 66 64 72 69 58 60 59 63 71 75 76 77 75 84 84 86 89 92 94 95 96 97 97 98 99 99 100 100 97 94 94 95 96 96 96 97 98 97 95 95 95 96 95 94 94 93 90 91 91 93 92 90 90
79 83 79 65 75 84 87 87 80 87 81 72 66 69 69 68 61 63 65 72 69 82 83 86 86 88 89 92 93 94 96 97 97 98 100 100 99 99 99 96 94 95 95 96 96 98 99 98 97 97 98 97 97 96 94 94 94 92 91 92 91 90 92
77 68 76 71 74 73 74 76 75 78 77 85 81 78 71 66 63 64 65 64 71 82 91 90 90 91 91 92 92 93 95 98 99 100 100 99 99 99 97 96 96 95 94 94 97 98 100 101 99 99 99 97 98 97 96 96 93 93 93 94 93 91 91
69 70 81 79 79 80 79 76 73 77 72 68 65 62 79 74 67 59 64 63 76 90 95 92 92 94 95 95 94 94 96 99 99 100 101 101 100 100 100 98 100 99 96 96 98 96 97 99 99 99 99 99 99 97 97 97 97 95 95 95 92 91 92
67 75 80 85 84 83 81 80 76 80 79 76 68 57 66 74 74 77 73 68 72 89 94 94 94 96 97 97 97 96 97 98 100 101 104 103 102 102 103 101 99 97 96 95 96 93 92 95 98 99 99 99 99 99 99 98 97 96 98 97 96 92 92
69 73 77 78 78 79 78 80 79 77 75 76 71 71 75 71 74 68 69 63 73 89 91 92 95 96 99 98 98 97 100 100 100 101 102 101 100 101 104 102 102 100 99 96 92 94 92 95 96 97 98 98 99 99 99 99 99 99 99 99 98 94 93
58 64 70 72 78 77 73 73 77 79 79 80 80 78 77 67 73 74 68 59 70 86 89 92 94 95 96 97 99 99 97 99 101 102 102 102 99 99 101 99 97 97 98 93 91 93 92 94 99 97 98 98 100 99 100 100 100 101 100 99 99 96 95
44 46 49 53 60 67 73 75 75 77 76 76 74 67 67 60 66 66 66 68 77 88 90 88 89 91 92 96 98 99 100 99 100 102 102 99 100 98 97 98 98 96 91 91 91 91 93 97 99 96 96 99 100 100 100 101 101 101 101 101 100 97 96
52 55 52 61 63 63 61 68 73 75 78 79 77 73 67 63 67 66 68 70 73 79 87 87 90 89 90 92 94 96 97 98 99 99 99 102 99 97 96 96 98 93 91 92 93 94 98 99 100 99 99 99 100 98 99 102 102 101 100 100 98 98 97
56 60 59 63 63 59 63 63 64 70 72 75 71 66 64 72 68 59 70 74 72 73 82 85 85 89 90 93 94 95 96 97 98 99 94 93 99 100 98 97 94 92 93 95 95 95 97 98 99 100 100 100 100 98 99 100 102 102 101 99 98 96 95
60 63 63 65 64 63 63 64 65 66 69 66 70 70 71 70 64 63 71 73 70 76 82 86 85 85 88 90 90 92 96 98 95 94 96 98 100 99 98 92 91 94 93 93 95 96 96 98 98 99 100 100 99 99 99 100 103 102 100 99 97 98 95
59 61 63 65 63 63 64 64 65 66 67 66 68 71 73 73 68 71 73 71 74 80 83 85 79 85 88 89 91 93 93 94 91 94 94 98 100 101 99 97 97 96 96 96 95 95 94 96 96 100 99 97 99 99 99 101 100 102 100 98 96 97 96
55 60 62 63 63 62 59 63 65 66 67 68 69 70 72 72 71 74 73 71 71 81 83 83 83 85 89 88 90 91 89 90 92 91 93 95 94 97 96 97 98 97 96 97 95 94 93 94 96 97 98 98 100 102 101 102 100 102 102 97 97 97 95
51 58 59 60 62 61 60 60 63 65 65 64 68 67 71 69 65 67 71 67 69 78 83 86 84 83 84 84 85 87 88 88 87 88 90 91 90 91 93 94 94 94 96 97 96 95 96 97 97 98 96 99 100 101 101 102 102 104 102 99 98 94 95
49 56 60 59 60 59 54 56 62 66 67 69 71 71 72 73 74 69 63 66 76 79 82 79 78 83 83 84 84 83 84 84 87 87 88 90 92 91 91 91 92 96 98 98 96 98 99 98 98 100 99 100 98 99 99 101 102 103 102 100 96 94 96
50 57 58 59 52 43 47 67 72 70 68 69 66 67 72 74 75 74 77 77 78 81 81 74 75 76 77 78 81 85 84 84 85 89 90 91 91 92 92 93 91 91 92 95 96 100 98 98 102 102 101 101 100 101 102 101 101 99 98 98 96 95 94
47 55 54 48 41 44 63 72 75 76 74 73 71 71 73 75 77 77 77 79 78 77 76 74 75 76 79 82 83 86 88 87 87 86 89 90 90 88 88 88 91 91 90 90 92 94 99 102 100 101 101 102 101 102 102 101 100 97 98 97 96 95 94
50 48 48 33 41 58 66 69 72 76 78 76 72 69 73 75 77 77 74 74 78 76 74 75 77 77 80 82 83 85 89 85 84 84 84 86 87 87 88 88 89 90 93 93 95 95 96 100 105 103 103 103 103 102 104 102 101 100 98 96 96 95 93
41 46 47 48 56 57 61 62 64 64 58 63 60 53 65 77 76 71 70 70 72 72 73 74 76 77 79 78 80 89 83 81 82 83 83 84 86 87 88 91 93 92 92 93 95 94 96 98 101 105 105 105 104 103 102 102 100 101 98 95 95 93 93
51 45 44 45 45 39 53 57 60 67 68 64 62 58 54 69 74 73 68 66 67 68 70 70 70 75 71 70 78 78 79 79 79 80 82 84 85 87 89 90 92 93 93 94 96 97 98 97 99 103 105 104 102 100 100 102 100 100 99 95 94 92 92
48 45 41 40 37 46 53 55 60 64 66 63 62 56 48 58 63 69 68 67 66 65 65 65 68 69 68 72 77 71 76 75 77 76 78 81 84 85 86 89 91 94 93 93 94 94 96 98 99 101 104 104 104 99 98 102 100 98 96 95 94 93 93
48 47 42 40 48 46 53 58 61 65 66 66 56 41 43 52 62 66 67 65 64 62 62 65 66 67 66 72 69 72 74 74 75 75 75 77 79 83 86 89 93 92 90 90 91 94 96 97 100 101 105 103 99 98 99 102 100 97 96 95 95 95 94
47 44 47 51 52 59 57 60 64 65 65 59 44 39 46 55 59 63 63 63 62 60 60 63 60 65 65 65 68 72 72 71 72 74 76 77 80 81 85 89 87 91 91 92 93 96 96 97 101 103 104 102 98 96 97 97 97 99 98 96 95 94 93
46 49 45 46 52 55 56 63 63 65 57 44 42 48 52 55 58 62 64 61 60 60 59 60 60 62 66 67 68 68 68 67 68 71 73 75 78 81 81 85 87 90 93 92 93 97 98 99 101 102 101 97 94 94 95 96 97 100 98 95 94 94 92
50 49 46 43 36 51 57 60 61 62 51 45 48 53 57 60 59 60 61 61 60 61 59 62 62 64 64 64 64 64 64 65 66 67 69 70 73 75 77 85 91 93 92 92 95 97 100 102 102 101 102 95 94 93 93 94 99 99 97 96 94 93 91
45 45 41 42 49 52 61 58 49 54 56 58 57 55 53 56 58 60 60 61 61 61 61 61 62 63 62 61 61 61 62 63 64 65 66 68 71 74 79 88 89 92 90 92 94 97 99 99 100 99 99 93 92 92 92 95 98 97 96 94 92 91 91
45 47 49 51 56 58 60 62 60 59 60 61 60 58 56 54 56 59 60 60 61 62 62 62 63 62 60 59 60 59 59 60 60 60 63 65 69 71 77 86 87 87 89 90 94 96 97 98 98 97 98 94 92 91 93 95 95 95 93 92 91 91 91
56 57 57 60 60 60 61 63 64 62 62 64 62 59 56 59 59 57 57 59 60 61 62 62 63 61 59 58 59 60 59 58 58 59 62 65 69 69 78 82 83 85 89 92 89 88 94 98 97 95 97 96 91 91 95 94 95 95 93 91 90 90 91
44 42 57 55 55 57 60 61 63 63 62 60 60 59 59 59 59 58 59 60 60 61 62 62 61 60 60 58 58 58 57 56 56 58 61 64 65 66 74 78 80 85 85 87 86 87 90 95 97 98 97 97 95 93 93 96 97 94 92 90 89 89 90
43 45 53 54 58 58 61 61 57 57 58 58 60 62 62 61 61 60 58 60 60 63 62 63 61 60 61 57 55 55 56 55 56 57 59 61 62 69 73 76 79 82 83 83 83 84 84 85 87 95 96 95 95 94 97 97 98 93 90 89 90 90 91
43 48 50 51 53 57 58 57 58 56 56 57 59 61 62 62 61 61 61 61 61 63 63 64 62 60 60 58 56 56 56 56 56 56 58 60 63 70 71 73 76 78 80 81 81 81 82 85 86 86 91 94 94 93 94 95 94 91 89 88 89 90 91
40 39 42 46 40 44 52 56 56 56 58 59 59 60 60 61 61 61 60 60 62 62 64 63 62 59 58 58 58 57 57 56 56 57 59 61 65 70 72 73 74 76 78 80 80 80 82 84 85 85 85 86 91 94 93 94 92 90 88 89 90 90 91
38 45 47 48 47 48 52 54 55 57 59 58 57 57 59 61 62 62 60 59 60 62 63 64 61 59 57 57 59 59 59 58 57 58 60 60 63 67 71 71 72 72 74 77 79 80 81 83 84 84 84 85 86 87 91 93 91 90 89 88 90 91 91
46 49 49 50 47 45 50 54 55 56 57 56 56 58 60 61 62 62 61 60 59 60 62 62 62 59 58 59 60 59 60 59 57 58 60 62 65 66 70 70 71 72 73 74 75 77 79 80 80 81 83 84 84 87 88 90 91 90 89 89 89 91 92
41 47 50 50 49 50 53 55 56 56 56 56 55 57 60 59 61 63 61 60 61 60 61 61 63 62 59 60 61 61 60 59 59 59 61 61 65 64 67 70 71 71 72 74 75 77 78 79 79 79 80 81 83 85 87 90 90 90 89 89 90 91 91

ECMWFFLT2_sfc_temp_069.txt.gz
Temp
74 74 80 79 78 55 65 69 60 65 76 70 58 60 66 64 56 51 63 62 67 73 76 79 82 84 85 85 82 83 82 82 81 81 82 83 85 85 85 84 84 84 85 85 86 87 88 88 88 87 86 86 84 83 82 82 82 82 82 81 81 82 81
74 79 77 80 80 78 69 60 64 76 77 75 61 50 54 52 47 52 63 59 58 64 54 77 77 78 82 84 80 83 83 81 80 80 82 83 85 85 85 85 85 85 86 86 87 88 89 88 88 88 86 87 86 85 84 82 82 81 82 82 82 82 81
73 76 76 73 80 82 72 68 80 65 52 54 59 57 45 45 45 49 55 62 62 62 61 74 74 76 78 80 79 82 80 80 79 81 82 84 85 85 84 84 84 85 85 86 86 88 89 89 88 89 88 88 87 86 85 85 83 83 84 84 84 83 83
69 70 68 54 67 78 81 80 72 76 65 60 53 56 57 54 45 50 50 59 51 67 67 75 77 78 78 79 78 80 80 80 81 81 82 83 84 85 85 85 85 85 86 87 87 88 89 88 88 89 89 89 88 87 85 85 85 85 84 84 83 83 83
67 55 63 60 62 60 64 66 63 66 66 71 64 64 59 51 48 47 46 46 56 68 78 77 75 79 79 78 76 79 80 82 83 83 83 83 84 85 85 86 86 86 86 87 88 89 90 90 89 89 89 89 89 89 87 86 84 84 84 85 84 83 84
54 58 69 68 67 69 65 62 59 62 59 55 51 48 68 63 54 44 49 48 58 73 85 80 77 83 84 83 79 80 82 84 83 84 84 85 85 86 86 87 87 87 87 87 88 89 90 89 88 88 89 88 88 88 87 86 86 85 85 85 84 84 84
54 60 66 71 72 72 71 69 65 67 65 63 55 42 49 62 61 67 59 52 56 73 80 81 84 82 86 87 85 81 83 84 85 86 87 87 87 87 87 87 88 88 87 87 88 88 88 88 88 88 89 89 89 89 88 87 86 86 86 86 86 85 84
60 65 68 71 72 71 65 68 70 68 63 65 60 58 59 55 60 57 54 51 59 77 79 80 82 83 88 87 86 84 85 85 86 86 87 86 86 86 88 89 89 88 88 88 87 86 87 86 85 87 88 89 89 89 89 88 87 87 87 87 87 85 84
46 53 60 63 67 65 60 60 65 66 66 67 66 65 60 52 58 61 53 46 57 74 77 80 81 82 82 83 87 89 86 84 85 86 87 87 86 86 87 87 87 87 88 86 86 86 85 84 85 85 86 87 87 87 88 87 88 88 88 88 87 86 85
30 33 36 37 42 51 58 62 63 65 66 64 59 51 50 41 50 50 53 53 60 71 76 76 78 79 78 80 81 84 85 83 86 85 87 86 87 85 86 87 86 86 86 86 85 85 85 85 85 83 84 86 87 87 86 87 87 87 88 89 88 87 86
37 41 44 54 57 55 51 57 59 60 63 65 62 55 49 43 48 48 53 57 58 65 72 71 74 76 76 77 79 79 80 84 85 81 85 87 86 85 86 86 87 86 84 84 84 84 86 86 86 85 85 85 86 86 85 87 87 87 88 89 88 88 87
49 52 51 56 58 53 56 55 56 60 61 62 59 52 48 55 49 39 52 56 58 61 67 71 71 74 74 76 77 78 79 80 82 85 80 86 87 86 86 86 85 84 84 84 84 84 85 86 86 86 86 86 86 85 86 87 87 87 88 88 88 87 87
53 55 56 58 57 57 57 57 57 57 60 59 57 55 59 57 50 46 53 56 56 63 70 72 70 72 72 75 76 78 79 80 81 83 81 79 82 83 82 80 79 81 83 83 83 84 85 86 85 85 86 86 86 86 87 87 88 88 88 88 88 88 87
52 53 55 58 56 56 56 56 57 59 59 59 60 60 62 61 55 57 59 57 61 69 72 73 69 71 75 75 77 78 77 78 78 80 81 80 77 77 79 79 80 76 76 78 78 82 83 85 85 85 85 85 86 87 87 88 88 89 88 87 87 88 87
48 53 56 57 56 54 53 56 58 58 59 59 61 62 62 62 60 62 62 58 58 70 74 71 71 72 76 75 74 73 74 76 77 77 78 80 78 72 71 75 77 78 76 75 77 77 78 83 85 85 86 86 88 89 89 89 89 90 90 87 87 87 87
42 51 52 54 56 56 54 53 55 56 56 54 59 57 62 59 55 58 60 55 56 66 73 72 73 71 71 70 68 69 70 71 73 73 74 75 77 77 73 70 72 74 77 77 75 76 79 79 80 82 82 88 88 89 90 90 90 91 90 89 87 86 87
38 49 53 52 53 51 47 49 55 58 59 60 62 63 64 63 63 56 51 54 63 68 72 69 68 67 66 67 67 65 65 68 69 71 71 73 74 75 77 77 73 74 76 76 76 76 76 77 78 77 76 79 87 89 90 91 92 91 91 89 87 85 87
37 44 47 50 43 33 36 57 64 61 59 60 57 58 62 65 65 61 63 63 62 64 65 65 66 66 63 65 68 68 65 64 65 68 70 70 72 73 74 76 74 74 75 78 75 74 74 73 75 75 76 77 80 81 81 76 76 75 75 75 77 78 78
35 43 44 38 30 34 53 61 64 66 65 65 61 59 61 63 66 68 67 62 59 63 64 64 66 69 68 67 67 67 68 67 65 65 67 68 69 70 71 72 73 73 73 75 78 75 74 76 75 75 77 81 81 77 77 79 79 77 77 77 76 75 74
41 38 37 26 31 49 58 60 63 64 63 59 58 57 60 58 60 60 58 60 62 63 63 65 67 67 70 67 67 67 68 68 67 66 66 67 68 68 69 70 71 72 75 76 78 79 82 79 78 79 83 83 82 78 82 81 80 79 77 78 79 78 78
32 36 36 36 47 48 51 53 56 56 50 53 50 42 50 54 58 58 58 60 61 61 62 64 66 68 69 65 61 67 67 67 68 68 66 67 68 68 69 71 71 73 74 75 75 76 79 81 84 81 86 89 88 85 82 83 83 82 80 78 79 80 81
41 34 31 32 32 29 41 52 57 62 62 61 59 52 48 53 56 59 58 57 57 58 60 62 64 67 62 58 58 62 66 66 67 68 68 67 68 68 69 70 71 72 72 73 74 76 77 80 83 87 88 89 86 86 84 84 83 83 81 81 81 81 81
37 35 30 30 26 34 47 50 55 60 61 62 60 50 44 50 54 58 58 57 57 57 57 59 61 59 54 54 57 61 63 64 66 65 66 65 66 67 68 68 68 69 70 71 74 76 78 80 83 86 88 88 88 84 83 85 83 82 81 81 82 81 81
39 36 31 29 38 35 45 49 52 57 63 62 54 36 38 48 54 58 57 56 57 57 58 58 56 52 48 49 55 62 64 62 65 64 64 64 64 66 67 68 68 68 70 71 72 73 74 76 80 82 85 87 85 84 84 87 86 83 83 83 84 85 85
37 37 34 37 39 49 48 50 52 57 59 55 38 33 42 50 53 57 58 57 57 56 56 56 50 53 56 58 60 63 64 62 62 65 65 65 64 65 65 66 67 68 69 69 70 71 73 75 78 82 85 86 85 83 84 84 86 90 89 87 85 85 85
34 36 34 35 40 44 48 51 52 56 51 37 34 46 50 51 54 58 58 56 56 56 55 54 54 56 60 62 61 62 61 59 61 63 63 64 64 65 65 66 66 67 67 68 69 71 73 75 78 82 84 82 81 82 82 84 86 89 90 88 87 87 86
36 35 33 31 27 42 51 49 51 53 41 42 48 50 53 57 56 56 56 57 57 57 54 56 56 57 59 60 61 61 60 59 59 60 61 61 61 62 62 63 66 67 65 66 68 69 72 75 78 81 82 81 81 81 82 83 88 89 89 88 87 87 86
32 33 30 32 39 44 51 47 40 46 49 52 52 52 51 55 56 55 54 55 56 57 56 55 56 56 57 58 60 60 59 59 60 60 60 61 61 62 63 64 64 65 65 66 67 69 71 74 77 79 81 80 80 80 81 85 86 88 89 87 85 86 86
36 34 37 43 48 48 50 49 49 51 54 56 55 54 54 54 54 57 54 54 57 57 57 56 56 55 56 57 60 59 58 59 58 59 59 60 60 61 61 62 64 64 65 65 66 68 71 75 78 80 81 80 80 79 82 84 83 84 86 87 87 87 87
46 48 49 50 49 50 51 54 55 54 55 56 56 55 53 55 57 57 55 56 57 57 57 56 55 56 56 57 58 58 58 58 59 59 59 60 60 61 61 62 63 64 65 66 66 67 70 74 76 78 80 81 79 80 83 83 84 84 85 86 86 86 88
38 32 46 46 45 48 50 53 55 56 56 55 55 54 54 55 57 58 59 58 58 58 58 56 55 56 57 57 58 56 56 56 57 58 58 59 59 59 59 61 63 64 65 65 65 67 69 72 75 77 80 81 82 82 82 83 85 85 85 85 84 85 86
38 39 45 46 48 48 52 51 50 51 53 54 55 55 56 56 57 58 59 60 59 60 58 58 58 57 57 57 57 55 54 54 56 57 58 58 59 60 60 61 63 63 64 64 65 68 69 71 72 74 78 80 82 82 83 82 84 85 84 84 86 86 86
42 47 48 46 47 48 51 51 51 52 53 53 53 55 55 56 56 56 58 59 59 59 59 59 58 57 57 58 57 55 55 55 55 56 57 58 58 59 59 61 63 63 63 64 66 67 67 69 70 72 76 79 80 81 81 81 81 84 84 83 85 86 86
36 37 40 44 36 37 44 47 49 51 53 53 53 54 54 54 54 55 55 57 59 60 60 60 59 57 57 58 57 55 55 55 55 56 56 57 57 58 60 62 62 63 64 64 66 66 67 68 69 71 75 77 78 80 80 80 79 81 83 83 84 85 86
34 42 44 45 44 43 46 48 51 51 52 52 51 52 52 53 54 55 55 54 56 57 59 60 59 58 58 58 57 55 55 55 56 56 56 56 57 58 59 60 60 61 62 65 66 66 66 67 67 68 71 74 77 78 79 79 79 78 81 82 83 84 84
43 46 45 46 43 41 45 49 50 51 53 52 51 53 53 53 54 55 55 56 55 56 57 59 60 60 59 59 58 56 56 56 55 56 57 57 58 59 60 60 60 60 61 63 63 64 65 65 65 66 68 73 75 76 77 78 79 77 78 79 81 83 83
42 47 46 46 46 46 48 49 50 52 53 52 51 52 53 53 54 56 55 55 56 56 56 56 58 60 60 60 58 57 55 55 56 57 59 59 59 60 60 60 60 59 60 62 63 63 63 64 64 65 66 70 72 72 73 76 77 76 74 74 74 75 77

ECMWFFLT2_sfc_temp_075.txt.gz
Temp
62 62 62 64 63 48 54 58 52 56 59 54 45 49 48 50 43 44 42 52 56 56 63 66 70 70 70 70 72 75 75 76 76 76 76 77 78 79 79 79 80 80 82 82 82 82 82 82 82 82 80 80 79 78 78 77 78 78 77 77 77 78 77
61 66 63 63 65 63 55 47 54 62 62 57 50 44 36 37 39 39 47 50 44 48 51 65 67 67 68 70 70 73 75 74 74 76 76 77 78 79 80 80 80 81 82 82 83 83 83 83 83 82 81 81 80 80 79 78 78 77 78 78 78 78 77
59 64 61 59 64 67 57 52 64 52 48 50 43 45 39 39 39 36 47 47 48 48 51 60 62 63 65 66 69 69 71 73 74 76 77 77 78 79 79 79 80 81 82 82 82 83 84 84 83 83 83 83 81 81 80 80 79 79 79 79 79 79 78
56 57 56 42 51 63 65 63 58 60 53 46 46 47 40 40 34 40 39 42 46 53 54 60 61 64 65 66 65 67 69 73 75 76 77 77 77 78 79 79 80 81 82 83 83 83 83 83 83 83 84 83 82 82 81 80 81 80 79 79 79 78 79
55 45 49 47 49 48 52 53 50 53 50 55 53 53 49 44 36 33 35 39 45 53 61 62 63 65 66 65 64 66 69 73 77 77 78 77 77 78 79 80 80 81 82 83 84 84 85 84 84 83 83 83 83 83 81 81 80 79 79 80 79 79 79
44 46 54 55 54 54 52 50 48 48 48 44 40 40 49 49 43 38 39 37 42 55 68 65 65 68 67 66 65 65 67 70 75 78 78 78 78 78 79 80 81 81 82 83 84 84 85 84 83 82 83 83 82 82 82 82 82 81 80 80 79 79 79
46 50 55 58 58 58 56 55 50 54 50 48 39 31 37 43 46 50 43 39 47 56 65 66 68 68 68 66 66 65 66 67 69 77 79 79 79 79 80 81 82 82 82 83 83 83 83 84 83 83 83 83 83 83 83 82 82 81 82 81 81 80 79
46 52 54 56 58 55 50 52 55 53 48 50 46 43 44 40 44 36 36 41 46 57 66 66 68 67 67 66 66 64 65 66 68 72 75 74 75 77 80 81 82 82 82 82 82 81 82 82 82 83 83 83 83 83 83 83 82 82 82 82 82 81 80
35 41 44 47 51 53 47 46 50 53 53 53 52 49 45 41 43 44 39 39 43 59 65 66 66 66 64 64 65 65 63 64 66 68 73 74 74 75 77 77 79 80 81 81 80 81 81 82 83 83 83 83 83 83 83 83 83 83 83 83 82 81 81
28 28 26 30 37 42 46 50 50 52 52 50 47 39 40 31 41 42 39 37 47 57 62 62 63 62 61 63 65 66 65 64 64 65 68 68 69 69 70 72 74 76 79 80 79 80 81 82 83 83 83 84 84 84 83 84 83 83 84 84 83 82 81
28 31 35 45 48 43 41 46 48 49 51 51 49 44 38 35 39 40 39 46 46 52 58 58 59 60 58 59 62 63 63 64 65 64 64 66 66 67 69 69 70 70 70 75 77 77 80 82 83 84 83 84 84 83 83 84 84 84 84 83 83 82 81
37 40 42 46 48 43 44 44 46 49 48 48 47 42 39 44 39 30 37 43 47 51 56 57 57 58 58 59 60 62 63 64 64 64 64 65 65 65 66 67 67 68 69 68 72 77 78 80 82 82 84 84 84 84 83 84 84 84 84 83 82 82 81
43 44 44 47 47 47 45 45 45 45 48 46 45 44 46 46 41 38 44 46 46 52 56 57 57 57 57 58 59 62 65 65 64 63 62 62 62 63 64 64 65 66 67 68 68 70 74 80 80 81 83 83 83 84 84 84 84 84 84 83 82 82 81
41 43 44 46 45 45 45 45 46 47 47 47 48 48 50 49 43 45 49 46 48 54 55 58 57 58 58 58 60 61 63 63 63 63 62 62 62 62 62 63 64 65 66 66 67 69 69 70 72 79 81 81 83 83 84 84 84 85 84 83 82 82 81
37 42 45 44 44 43 41 45 46 47 48 48 49 49 50 50 48 49 50 46 46 54 57 58 58 58 59 57 57 56 58 61 62 61 61 62 62 62 62 63 63 64 65 65 66 66 67 69 70 70 73 78 82 84 85 85 84 85 84 82 82 82 81
32 38 42 43 43 43 41 41 44 45 46 44 47 46 49 48 44 46 47 44 43 50 57 58 58 57 55 54 54 55 55 59 60 60 60 60 61 62 62 62 62 63 64 64 65 65 66 68 70 71 70 72 78 83 84 85 85 85 85 84 82 81 82
27 35 40 40 41 38 37 36 43 48 49 49 51 50 50 49 49 45 42 42 48 51 55 54 54 55 54 54 53 54 54 56 58 59 60 60 60 61 61 62 62 62 63 64 64 64 65 67 68 69 70 71 71 73 75 77 80 83 84 84 82 81 82
27 35 38 40 33 25 27 41 51 50 48 49 46 45 47 49 51 47 49 48 51 52 52 51 52 53 53 54 56 57 55 54 56 58 59 60 60 61 60 62 61 62 63 64 64 65 66 67 70 69 71 71 71 72 72 72 73 72 72 73 79 82 81
27 32 36 32 22 28 41 47 51 53 53 52 49 47 48 49 51 52 51 50 50 52 52 53 54 56 57 58 57 58 59 56 56 56 58 58 60 60 60 60 61 61 61 62 62 65 66 68 69 70 70 72 72 72 72 72 72 73 73 73 72 74 78
30 27 27 18 25 36 46 49 50 52 52 50 49 47 48 48 49 50 49 51 51 52 53 54 55 56 58 58 58 58 59 59 56 56 56 58 59 59 61 61 61 61 62 61 62 63 66 67 68 70 70 72 72 73 73 72 72 73 73 73 74 74 76
28 29 25 30 37 39 40 41 42 44 39 42 40 37 44 47 48 48 48 50 52 52 53 54 55 57 58 53 54 59 59 59 59 58 58 59 60 60 61 63 63 63 64 64 64 66 66 66 67 68 69 70 70 73 73 74 74 75 75 74 75 77 79
35 29 26 26 24 22 31 42 46 49 49 48 47 42 39 49 50 50 48 48 50 51 52 52 53 55 52 50 51 56 58 59 59 60 59 60 61 62 62 63 64 64 64 65 65 66 66 67 68 68 69 69 70 71 72 74 73 74 74 75 76 77 79
33 32 25 21 17 25 36 37 43 47 48 49 48 42 36 46 48 49 49 48 50 50 50 50 51 49 44 44 49 54 56 58 59 58 59 59 60 61 62 62 62 63 63 63 64 65 65 65 67 69 69 69 69 70 71 74 75 75 74 75 75 76 77
31 30 26 24 30 26 37 42 44 47 49 48 44 31 32 44 46 49 49 48 50 51 51 51 48 46 41 44 49 57 57 57 57 56 57 58 58 60 62 63 63 63 64 64 63 63 63 64 67 68 70 70 69 69 70 73 74 74 76 76 77 78 79
34 36 30 31 32 40 42 42 46 47 49 46 33 26 40 44 45 48 49 49 51 51 51 50 47 48 50 52 55 58 59 57 56 57 59 59 60 59 61 62 63 62 63 63 63 63 65 65 67 68 69 68 68 69 70 70 71 74 76 77 78 77 77
28 29 29 31 33 39 44 44 46 46 44 32 29 40 44 44 45 49 49 49 50 50 50 50 49 51 53 55 56 57 58 56 56 56 57 57 59 61 62 62 62 62 62 62 63 64 66 67 68 68 68 67 67 67 68 68 71 74 74 75 77 77 73
31 31 30 29 26 39 46 45 44 45 36 35 43 44 45 48 47 47 48 48 49 49 48 51 51 52 53 54 54 55 56 56 56 55 56 55 56 57 58 59 62 62 61 61 62 63 65 66 67 67 68 66 66 67 66 68 70 71 72 74 75 76 76
28 30 28 30 36 39 45 44 36 40 43 45 46 45 43 46 47 46 45 47 49 50 50 50 50 51 51 52 52 53 54 55 57 56 55 55 56 57 59 60 60 62 60 61 62 63 64 65 66 67 66 65 66 66 66 69 69 70 71 73 74 74 76
33 29 32 39 40 42 43 45 42 44 46 47 47 45 44 43 44 47 45 45 48 49 49 49 50 50 51 51 53 52 52 53 54 55 55 54 55 56 57 57 59 60 60 60 61 62 63 64 66 65 65 64 64 64 66 68 68 68 70 72 73 74 75
38 41 42 45 44 44 43 45 46 46 46 47 47 45 43 44 45 46 45 47 47 48 49 48 49 49 51 51 51 52 52 52 53 55 55 54 54 56 58 58 59 59 59 60 60 61 62 65 65 64 64 64 62 64 66 67 68 68 69 71 72 73 74
34 29 39 40 40 42 43 44 46 46 46 45 46 45 44 45 46 47 47 47 48 48 49 48 47 48 51 50 51 52 52 51 52 53 53 54 54 54 55 57 59 59 59 58 59 60 61 63 64 64 63 64 64 65 65 66 67 68 70 70 71 71 72
32 35 38 39 41 42 44 43 42 42 44 46 46 46 46 46 47 47 48 48 48 49 48 48 47 48 49 49 50 51 51 52 52 52 53 53 53 54 54 55 57 58 58 57 58 59 60 62 63 63 63 63 64 64 65 66 67 67 67 68 68 69 70
36 39 41 42 41 42 43 43 43 44 43 44 45 46 46 46 46 47 48 49 49 49 48 49 48 47 48 48 49 50 51 51 51 52 53 53 53 54 53 55 57 56 57 58 59 59 60 61 62 62 62 63 63 63 64 65 65 64 64 66 67 67 69
31 33 37 37 34 35 38 42 44 44 44 44 44 45 45 45 45 46 46 47 49 49 50 49 49 47 48 49 49 49 50 51 51 51 52 53 53 54 54 55 55 56 58 58 58 59 60 61 61 61 61 62 62 63 64 65 64 62 63 64 65 66 68
32 39 40 40 41 39 42 44 45 45 45 44 43 43 44 45 46 46 46 45 46 47 49 50 49 48 48 48 49 49 50 51 52 52 52 52 53 53 55 54 54 55 56 58 59 59 60 60 60 61 61 61 62 63 64 64 64 63 63 63 64 66 68
41 40 40 41 40 39 42 42 43 44 45 44 44 44 45 46 46 46 46 46 45 46 48 49 50 49 49 49 49 49 50 51 51 52 52 53 53 54 55 54 55 55 56 57 58 58 58 59 59 60 60 61 61 63 64 64 64 63 63 63 63 65 67
40 41 42 42 42 42 43 43 44 44 46 47 45 44 45 46 47 48 47 47 49 49 48 48 49 50 49 49 49 49 49 50 52 53 55 57 57 56 55 55 55 55 56 57 57 57 58 58 59 60 59 60 61 62 62 63 63 63 63 64 64 65 66

ECMWFFLT2_sfc_temp_078.txt.gz
Temp
58 58 58 59 60 46 52 54 49 52 54 48 41 46 46 44 41 47 40 49 51 55 58 64 67 67 66 67 67 67 67 68 69 73 75 76 77 78 78 78 79 79 80 81 81 81 81 81 80 80 79 79 78 78 77 76 77 77 77 77 77 77 77
58 61 57 58 60 59 51 44 48 56 57 53 47 43 35 33 37 40 43 46 45 47 45 62 62 63 64 63 64 65 65 67 67 71 74 76 77 78 79 79 79 80 81 81 82 82 82 82 81 80 79 80 79 79 79 77 77 76 77 77 77 77 76
55 59 57 55 59 62 53 53 61 51 45 49 41 41 37 37 38 40 43 45 45 47 49 57 56 58 60 60 62 62 63 64 65 68 72 75 77 78 78 78 79 79 80 81 81 82 83 83 82 82 81 81 81 80 80 80 78 79 78 79 79 78 78
53 53 53 40 48 58 60 57 54 55 48 43 42 47 38 42 34 37 39 37 42 49 52 57 56 58 59 59 59 60 62 63 64 66 68 74 75 77 78 79 79 80 81 82 83 83 82 82 82 82 82 82 81 81 80 80 80 80 79 79 78 78 78
50 42 47 43 45 44 48 50 46 49 47 51 50 48 45 44 34 32 35 34 43 52 60 59 58 60 60 60 59 60 62 62 64 65 66 71 76 77 78 79 79 80 81 82 83 83 83 84 83 82 82 82 82 82 81 81 79 79 79 79 79 78 78
41 44 50 51 52 51 49 46 44 45 44 41 37 41 45 43 36 34 31 36 44 55 65 61 61 62 63 63 61 60 61 63 62 64 65 69 75 77 78 79 80 81 81 82 83 84 83 83 82 82 82 82 81 81 81 81 81 80 80 79 79 78 78
44 48 52 53 53 54 53 52 47 49 47 43 33 30 40 39 41 46 39 38 43 58 62 62 62 62 63 64 63 61 62 62 63 63 65 65 69 75 78 78 80 80 80 81 82 82 82 82 82 82 82 82 82 81 82 81 81 81 81 81 80 79 78
41 48 49 52 53 51 46 49 51 49 45 46 44 37 40 36 40 34 34 38 44 55 61 62 62 62 63 64 64 62 62 63 63 63 63 64 65 66 73 77 79 78 80 80 79 80 81 80 80 82 82 82 82 82 82 82 81 82 82 82 81 80 79
30 36 41 45 47 49 44 43 47 48 49 49 47 44 42 38 39 42 32 35 43 53 61 61 60 60 60 60 63 65 62 63 63 63 63 64 63 65 66 67 72 76 78 78 77 79 78 79 81 80 82 82 83 82 82 82 82 83 82 82 82 81 80
28 30 28 29 35 39 43 46 46 48 47 46 44 38 37 29 38 39 34 35 41 52 57 57 57 57 57 59 60 64 65 64 64 63 64 63 63 63 63 64 66 65 68 73 76 76 77 80 81 80 80 82 83 83 82 83 83 82 83 83 82 81 81
28 28 33 39 46 39 37 42 43 44 46 47 42 37 32 35 37 39 37 44 44 49 53 53 53 54 54 55 57 59 62 63 64 64 64 64 63 63 63 63 64 65 65 65 67 71 78 81 81 82 81 82 83 81 82 83 83 83 82 82 81 81 81
37 38 41 43 45 40 40 40 41 44 44 44 44 40 38 40 37 28 37 39 44 47 51 52 51 53 54 55 55 57 60 62 62 62 63 65 64 63 64 63 63 63 64 64 66 67 68 75 80 81 82 83 83 82 82 83 84 83 83 82 81 80 80
41 40 40 42 43 43 42 42 41 42 43 42 42 40 42 42 37 37 38 41 43 47 51 53 52 53 53 54 55 57 60 62 63 61 61 62 62 62 63 62 63 63 63 63 64 65 67 69 69 74 80 82 82 82 83 83 84 84 83 82 81 81 80
40 40 41 42 41 41 41 41 42 43 43 43 43 44 45 45 41 43 46 43 45 48 51 54 54 55 55 55 57 57 57 58 59 60 60 60 61 61 61 62 63 63 63 64 64 65 65 67 68 70 70 73 81 82 82 83 83 84 83 82 80 81 80
37 41 42 41 40 40 38 41 42 42 43 43 44 44 45 47 45 46 47 44 43 50 53 55 56 56 56 55 54 54 56 57 58 58 58 59 59 60 61 62 62 63 63 64 64 64 64 66 67 68 69 71 72 80 84 84 83 84 84 81 81 81 80
32 38 40 40 40 40 38 37 39 41 41 42 43 43 45 44 41 41 45 42 40 47 53 55 55 54 53 52 52 53 53 56 57 57 57 58 58 58 59 60 61 62 62 62 63 63 65 66 67 68 68 70 72 72 77 84 84 85 84 83 82 80 81
27 33 38 38 38 35 32 34 39 43 43 44 46 47 47 46 45 41 40 39 46 48 52 50 51 52 52 52 52 52 53 55 56 56 57 57 58 58 59 60 60 61 61 62 63 63 64 66 66 67 68 69 68 71 72 74 83 85 84 83 81 80 81
25 31 35 37 32 26 26 40 46 45 44 45 43 42 45 47 47 44 46 47 49 49 49 49 50 52 51 52 54 55 53 53 54 57 58 58 58 59 59 60 60 61 61 61 62 63 64 66 67 68 69 68 69 70 71 73 73 79 79 79 78 78 78
27 29 32 29 23 27 38 44 46 48 48 47 45 44 46 48 51 51 48 48 48 49 50 50 51 53 55 56 55 57 58 55 55 55 57 57 58 59 59 59 60 60 61 61 61 63 64 65 66 68 69 69 69 70 71 72 73 73 76 78 77 77 77
28 27 25 18 22 34 41 43 45 49 47 46 46 44 45 47 47 48 47 49 50 50 50 52 53 53 55 56 57 58 59 58 56 56 56 58 59 59 60 60 60 60 61 61 62 62 65 65 65 67 67 69 69 70 71 72 72 73 72 73 76 78 77
28 27 25 29 33 37 35 38 41 42 38 40 38 35 40 45 47 46 46 47 50 51 51 52 53 54 55 52 53 59 59 58 58 57 57 59 59 60 61 62 62 63 63 62 63 64 64 65 65 65 66 67 68 69 70 70 72 72 72 72 72 73 75
30 27 26 23 22 21 29 39 44 47 47 46 44 42 38 45 47 48 46 45 47 48 50 51 52 53 51 49 51 56 58 59 58 59 59 59 60 62 62 63 64 63 63 64 64 65 64 65 66 66 67 67 68 68 70 70 71 72 72 72 72 72 73
30 29 23 21 17 27 34 39 42 45 46 46 46 39 35 44 44 47 47 46 47 47 48 49 51 48 43 43 48 54 57 58 59 58 58 58 59 61 62 62 62 62 63 63 64 64 64 63 65 66 67 67 67 68 69 70 69 70 70 71 71 72 73
30 29 24 22 28 26 36 40 42 45 47 46 42 28 30 40 43 46 47 46 46 47 47 49 47 46 41 43 48 55 56 57 58 57 56 57 58 59 61 63 63 63 63 63 62 62 62 62 65 66 68 68 67 67 68 70 70 69 70 70 71 72 72
33 35 27 29 31 40 42 40 44 46 46 44 33 26 37 41 43 47 47 47 47 47 46 47 43 46 48 50 53 56 56 56 56 58 58 58 58 58 60 61 63 63 63 63 62 63 62 63 65 66 67 67 66 66 67 67 68 68 69 70 71 71 72
27 29 27 28 31 36 41 42 44 45 44 30 28 38 42 42 44 46 47 46 47 47 46 46 46 48 51 53 54 54 55 55 55 56 57 58 58 60 60 61 62 62 62 62 62 64 64 65 65 65 66 64 65 65 65 65 67 68 68 69 70 71 71
30 31 29 28 25 38 44 44 44 46 37 34 41 41 43 47 45 44 45 45 46 47 45 47 47 48 50 51 52 52 53 53 53 54 55 55 55 56 57 58 61 62 60 61 61 63 64 65 65 65 65 63 63 64 64 64 66 67 68 68 69 70 72
28 29 27 29 36 41 44 42 35 40 43 43 44 43 41 44 44 44 43 45 46 46 46 46 47 48 48 50 50 51 52 53 54 54 54 55 56 56 58 59 59 61 60 60 61 63 64 64 64 65 64 62 62 62 62 65 66 66 66 67 68 69 71
32 29 32 39 40 41 43 42 42 42 44 45 45 44 43 42 42 45 44 44 46 46 46 46 46 46 48 49 50 50 50 51 52 52 53 54 55 56 56 56 58 59 59 59 60 61 63 64 64 64 64 62 61 61 63 65 65 64 65 66 68 70 71
36 39 42 41 40 41 43 45 46 45 45 45 45 44 42 43 44 45 44 45 45 46 47 45 46 47 48 48 49 50 50 51 52 53 53 54 55 56 56 56 58 59 59 60 60 60 62 64 64 64 64 63 61 62 63 64 65 65 65 65 66 68 69
35 29 36 40 42 44 44 44 44 45 45 45 45 43 43 44 44 45 45 45 45 46 46 45 45 46 47 48 49 49 50 50 50 52 52 53 54 54 54 56 57 57 57 57 58 59 60 62 63 64 64 64 63 64 64 65 65 65 64 64 64 65 66
33 35 36 38 40 41 42 42 42 43 43 44 45 45 45 45 45 46 46 46 45 47 45 46 46 46 48 47 47 48 49 49 50 51 51 52 53 54 55 55 56 56 56 56 57 59 59 61 62 63 63 63 63 64 64 65 65 64 64 64 63 64 65
35 38 42 43 42 42 44 44 44 45 44 44 43 44 44 44 44 44 45 46 46 46 46 47 46 46 47 48 48 48 49 49 49 50 51 52 52 53 53 54 56 55 56 56 57 58 59 61 62 62 62 63 63 63 63 64 64 63 63 64 64 64 65
31 33 38 38 36 35 38 40 43 44 44 44 44 43 43 43 43 44 44 45 46 47 47 46 47 45 46 47 48 48 49 49 49 50 50 51 52 52 54 55 55 55 56 57 57 58 59 60 61 61 62 62 63 63 63 64 63 62 63 63 63 64 65
33 40 42 41 43 39 43 43 43 44 45 44 43 43 43 44 45 45 44 44 44 45 46 48 47 46 46 47 48 48 48 49 50 50 50 50 51 52 53 53 53 54 55 57 58 58 59 60 60 61 61 61 61 62 63 63 63 62 61 62 63 64 65
43 44 40 41 40 41 41 42 44 44 44 44 44 45 45 45 45 46 45 45 44 45 46 47 48 47 48 48 48 47 48 49 50 50 51 51 51 52 53 53 53 54 55 56 57 58 59 60 60 60 60 61 61 61 62 62 62 61 61 61 61 63 65
43 46 42 41 42 42 43 43 43 43 45 45 43 44 44 44 45 46 45 46 47 46 46 46 47 48 47 48 48 48 48 49 50 51 52 54 54 54 53 54 54 55 55 56 57 58 58 59 59 60 59 59 60 61 61 62 61 60 60 61 62 63 65

ECMWFFLT2_sfc_temp_081.txt.gz
Temp
67 66 67 67 67 59 64 66 61 65 67 68 59 58 59 61 61 58 63 64 66 69 69 72 71 71 70 71 71 72 71 72 73 74 76 81 85 85 85 85 86 85 87 86 86 86 86 86 86 85 84 85 84 83 83 82 82 82 82 81 82 82 82
68 69 67 68 68 67 68 62 65 67 70 69 63 56 56 58 55 56 61 58 57 61 57 67 67 65 66 67 68 70 70 71 71 72 73 74 77 83 86 86 86 86 86 86 87 88 88 87 87 86 84 86 85 85 84 83 82 81 83 83 83 83 82
65 69 66 67 71 71 68 65 68 63 57 56 58 59 50 51 52 54 56 56 56 56 55 61 60 61 62 64 66 67 68 69 69 70 72 73 76 78 83 86 86 86 86 87 87 88 89 88 87 87 87 87 87 86 87 87 84 85 85 86 85 84 84
63 65 66 56 60 70 67 68 67 65 64 61 59 59 60 61 51 51 52 57 51 57 56 59 59 61 62 64 64 64 66 68 69 70 70 72 73 75 79 85 86 87 87 88 89 89 89 88 87 88 89 89 88 88 87 87 88 86 85 85 84 83 85
64 56 58 55 57 58 63 65 60 63 61 62 64 62 59 57 55 55 53 50 52 57 62 61 61 62 62 63 63 64 66 68 70 70 70 70 72 74 79 83 87 87 87 89 89 90 90 90 89 88 89 89 89 89 88 88 86 87 87 87 86 84 85
54 53 59 59 60 61 59 59 55 57 58 57 55 52 61 56 57 49 55 49 52 58 64 63 63 64 63 64 64 64 66 68 68 70 71 71 71 73 78 85 87 88 88 88 90 90 89 90 89 88 89 88 88 88 89 89 89 88 88 87 85 84 85
54 57 59 61 62 63 61 61 56 61 59 58 56 51 52 57 55 56 58 53 50 61 63 63 65 66 66 65 66 65 65 66 68 70 72 72 72 72 75 77 84 89 87 88 89 88 87 88 88 89 89 89 89 89 89 89 89 88 90 89 88 85 85
57 60 61 61 62 60 60 61 61 60 56 56 55 54 55 56 55 55 56 51 52 60 63 64 66 67 68 67 67 65 66 66 67 68 70 70 70 71 73 75 76 77 84 88 87 86 86 86 86 87 88 88 88 89 89 90 89 90 90 90 89 86 85
51 55 57 57 60 61 56 55 58 58 60 59 57 58 56 53 51 52 55 48 52 59 64 65 66 66 65 66 67 67 65 66 66 67 69 69 69 70 71 72 72 74 74 74 77 84 85 84 87 87 87 87 88 88 89 89 89 91 90 90 89 88 87
40 40 44 47 50 51 54 55 56 58 57 56 56 53 54 48 49 50 53 51 55 60 63 63 64 64 63 64 65 67 68 66 65 65 66 67 68 67 69 69 71 70 70 72 73 74 79 86 88 85 86 87 89 88 88 90 90 89 90 91 90 88 88
49 47 46 49 52 54 51 51 53 54 57 58 57 56 53 49 51 52 52 54 54 56 59 60 61 62 61 62 63 64 65 66 67 65 64 65 65 66 66 67 69 69 69 70 71 73 78 80 84 88 88 88 89 87 87 89 90 90 89 89 87 88 88
48 50 49 51 52 50 50 50 51 54 54 54 54 54 51 54 53 49 51 52 55 54 57 59 59 60 61 62 61 62 64 65 66 66 64 64 65 65 65 66 66 66 67 68 69 71 74 77 79 81 86 89 88 87 87 88 90 90 89 88 87 86 86
49 50 51 53 53 52 50 51 51 51 53 53 52 52 54 54 53 51 51 52 52 54 58 59 59 59 60 61 61 63 64 66 66 65 64 63 61 61 62 62 63 63 65 66 67 70 71 74 75 77 79 80 82 86 88 88 90 89 88 87 86 87 86
49 50 51 52 51 51 51 52 53 53 53 53 53 53 55 54 53 56 54 53 53 56 58 60 60 61 62 62 64 63 63 63 63 64 64 63 61 59 60 60 61 63 63 65 65 67 69 71 72 75 75 77 80 81 85 88 87 89 88 87 85 86 86
46 49 50 51 51 49 48 52 53 53 53 53 54 54 54 54 54 56 56 53 50 56 59 60 61 62 63 63 62 61 61 63 64 63 63 62 62 61 59 60 61 61 62 63 64 65 66 69 71 72 74 75 78 81 82 85 87 88 89 86 87 86 85
43 47 48 49 51 50 48 49 50 51 51 51 53 52 54 52 52 52 53 52 51 56 60 61 61 62 61 60 60 61 60 63 63 62 63 61 61 61 61 60 60 60 61 62 62 63 65 67 70 71 71 74 77 79 81 82 83 87 89 88 87 85 86
42 46 47 48 48 49 47 47 49 50 52 53 54 54 54 54 54 52 53 52 56 57 59 58 59 61 61 60 60 60 61 61 63 63 62 62 63 62 61 61 60 60 62 62 62 63 64 65 66 68 71 73 73 75 77 79 82 83 85 89 87 85 86
43 44 46 47 46 40 42 52 53 51 51 52 50 50 52 55 56 55 56 56 57 58 58 57 57 58 59 59 61 63 61 60 61 63 64 64 64 64 63 63 62 62 62 63 64 65 65 65 66 67 69 70 72 75 76 78 78 79 79 81 85 85 85
43 45 46 42 37 41 49 54 55 55 54 54 53 51 53 54 57 56 56 56 56 57 58 58 59 60 61 63 63 64 65 62 62 62 64 64 64 64 63 63 63 63 63 63 64 65 66 66 66 67 68 69 70 72 75 75 77 77 78 79 79 82 84
46 44 44 33 38 47 52 54 54 56 56 55 54 50 52 52 53 54 54 55 56 57 58 59 61 61 62 64 63 64 65 65 62 62 63 64 65 65 65 64 63 64 64 63 64 65 67 68 67 68 68 68 69 70 73 73 74 76 76 76 76 78 79
39 42 42 43 46 47 51 49 50 53 50 51 50 47 50 51 53 54 54 54 55 56 58 58 60 62 63 60 62 66 65 64 65 64 63 65 66 66 67 67 66 67 67 66 67 67 67 67 67 67 68 69 68 69 70 71 72 73 73 73 73 74 74
46 41 40 40 40 35 45 48 53 54 54 53 52 51 49 52 54 55 54 53 54 55 56 57 58 61 58 57 60 63 64 65 65 66 65 66 67 67 67 68 69 68 68 68 69 69 68 68 68 68 69 69 69 69 70 71 71 71 71 70 71 73 74
43 40 37 36 31 40 48 50 52 54 55 55 54 49 46 48 51 52 54 53 54 54 54 55 57 57 54 56 59 62 62 64 65 65 66 66 67 67 68 68 67 68 68 67 68 69 69 67 68 69 69 69 69 69 69 70 70 69 68 68 69 71 72
43 42 37 35 42 40 49 52 53 56 57 53 51 39 42 46 52 54 54 53 54 54 54 55 55 53 51 54 57 62 62 63 65 64 64 64 65 66 68 69 69 68 68 68 68 69 69 67 70 69 70 70 68 69 69 69 69 69 68 67 68 69 71
43 40 41 43 44 50 52 53 56 55 55 52 42 36 44 49 52 53 54 54 54 54 53 55 52 55 56 57 59 61 63 63 63 65 66 66 66 66 68 68 66 68 68 68 68 69 69 69 71 71 70 69 68 68 68 68 66 69 69 69 68 69 69
40 43 39 41 45 53 55 54 56 56 51 40 41 49 50 52 52 54 55 54 55 54 54 54 55 56 59 59 60 61 61 61 62 63 64 65 66 68 67 66 66 67 68 67 68 69 69 70 71 71 70 67 66 66 66 66 67 70 70 69 69 70 69
38 37 37 36 31 47 54 53 53 54 46 48 50 51 52 54 54 54 54 54 55 55 54 56 55 56 58 58 58 59 59 60 60 61 61 61 62 63 64 65 67 67 66 66 67 68 69 70 70 71 70 66 65 66 65 66 68 70 70 69 69 70 70
38 36 32 36 48 52 55 54 48 52 55 54 53 54 52 55 55 54 54 55 55 55 54 53 55 55 55 56 57 57 58 59 60 61 61 61 62 63 65 66 66 66 65 66 66 68 68 68 68 69 68 66 66 65 64 66 68 69 69 69 69 69 69
43 43 47 52 52 54 56 55 55 55 56 56 55 55 55 53 54 56 55 54 55 54 54 53 54 53 55 56 57 56 56 58 58 58 59 60 60 61 62 63 64 65 65 64 65 66 68 67 67 67 68 66 66 65 66 67 66 67 67 68 69 69 69
50 51 52 53 53 53 55 57 57 56 56 56 56 55 53 55 56 56 54 55 55 54 54 52 53 53 55 54 55 56 57 57 58 58 59 59 60 62 62 62 63 63 64 65 64 64 65 67 67 67 67 67 65 66 68 68 68 67 67 67 67 68 69
45 41 51 50 52 55 55 56 57 57 57 56 56 55 55 56 56 55 55 55 54 54 54 52 52 53 54 53 54 55 55 55 56 57 57 57 58 59 59 60 61 61 62 62 62 63 62 65 67 67 67 67 67 68 68 69 69 67 66 66 66 67 67
44 47 51 51 52 52 54 55 54 54 55 55 56 56 57 56 56 56 55 55 54 55 54 54 53 53 54 53 53 53 54 54 55 55 55 56 57 58 59 59 60 60 60 60 60 61 61 63 65 66 67 67 67 67 68 69 69 67 65 65 65 66 67
48 51 52 53 53 53 54 55 55 57 57 56 55 55 55 55 54 54 55 55 55 55 54 55 54 52 53 54 54 53 53 53 54 54 55 56 56 57 57 58 59 58 59 59 60 60 61 63 64 65 65 66 66 66 66 67 67 66 64 64 65 65 65
44 46 51 53 47 49 55 56 57 57 57 56 55 55 54 54 53 54 53 54 56 55 55 55 54 52 52 54 54 53 53 53 54 54 54 55 56 56 58 58 59 59 59 59 59 60 61 63 64 65 66 66 66 66 65 65 66 65 64 64 64 64 65
46 54 56 55 55 55 57 58 58 58 56 55 54 53 53 54 55 55 53 53 53 54 55 56 54 53 53 53 54 53 54 54 54 55 55 54 55 55 57 57 57 57 58 59 59 59 61 62 63 64 65 67 66 66 66 65 64 63 63 63 63 65 66
55 58 56 56 54 53 56 57 57 57 56 56 55 56 56 56 56 55 54 54 52 53 54 55 56 55 54 54 54 53 53 54 54 55 56 56 56 56 57 57 57 57 57 58 58 59 61 62 63 64 65 67 67 67 66 64 64 63 62 61 61 63 65
52 58 57 55 55 57 57 57 58 57 56 57 56 55 56 56 56 56 55 54 55 54 53 54 56 56 55 54 54 53 52 53 54 54 55 56 56 56 57 57 57 57 58 59 60 61 61 62 62 63 64 66 68 67 64 63 63 62 62 61 61 62 64

ECMWFFLT2_sfc_temp_084.txt.gz
Temp
75 76 77 77 79 65 76 77 69 74 83 79 69 70 75 74 70 64 74 71 70 76 79 79 79 79 78 79 80 80 79 81 81 81 83 84 86 89 92 92 91 91 93 92 92 92 94 94 93 92 91 92 90 90 89 87 87 88 87 86 87 87 87
76 78 78 78 80 79 78 68 75 82 84 80 71 63 64 66 61 64 73 67 65 66 61 76 75 74 75 76 77 79 78 79 79 80 81 80 82 85 87 89 92 93 93 92 93 94 95 94 94 93 91 93 92 91 91 89 88 87 89 88 89 89 87
74 78 77 76 79 81 77 75 86 72 63 62 70 67 58 58 58 64 66 72 67 69 65 69 68 69 70 73 74 75 76 76 77 79 80 80 80 81 84 87 91 92 92 92 92 93 93 95 93 94 94 94 94 93 94 94 91 92 92 93 91 90 90
74 77 76 66 72 78 80 81 77 82 75 71 65 67 70 68 60 62 64 67 61 66 62 66 67 67 68 71 72 72 73 74 76 77 78 80 80 80 82 85 89 92 94 94 95 94 95 91 94 96 96 96 96 95 94 94 95 93 92 92 91 90 91
74 66 70 66 69 71 73 73 72 73 75 78 76 77 71 67 64 63 61 58 59 60 67 68 68 69 69 70 70 70 71 73 75 76 76 77 79 81 82 86 88 92 93 95 95 93 93 95 96 96 96 96 97 97 96 96 94 95 94 95 94 91 91
66 64 69 67 68 71 72 73 71 73 70 67 62 61 75 72 66 60 63 59 57 63 70 69 70 72 71 71 72 71 71 72 73 74 76 76 78 81 82 82 84 88 91 94 94 91 88 88 91 95 95 95 95 95 97 97 97 96 96 95 93 91 91
64 66 68 72 71 72 72 73 69 73 73 72 67 56 64 71 72 71 72 61 56 66 70 72 73 73 72 72 73 70 70 71 72 73 74 76 77 79 80 79 80 80 80 83 90 92 91 92 92 95 96 96 96 96 97 97 97 97 98 98 96 92 92
68 69 72 71 72 71 71 72 73 72 69 69 68 66 69 67 69 65 67 60 56 66 69 74 75 74 75 75 74 72 71 70 70 71 72 72 73 76 78 78 79 78 77 79 79 82 87 90 88 91 95 95 96 97 97 98 97 98 98 98 98 94 92
58 63 67 68 71 73 68 67 69 70 71 70 69 71 71 65 67 67 65 58 53 61 69 73 75 76 75 75 75 74 69 70 70 71 72 72 72 73 75 76 76 76 75 74 73 76 80 85 92 92 93 94 96 96 97 97 97 98 98 98 98 96 95
47 46 49 54 59 64 67 67 67 67 68 66 67 64 65 59 61 63 65 58 56 62 69 71 73 74 72 75 76 75 74 71 69 70 71 71 71 71 72 73 74 73 72 72 72 73 76 82 85 86 88 93 96 96 97 98 97 96 98 99 98 97 96
56 54 55 60 66 66 63 62 64 65 67 69 68 66 64 62 63 62 59 60 56 59 65 68 71 72 71 72 73 73 73 74 73 71 70 70 69 70 71 71 71 72 71 70 71 72 76 79 82 85 86 88 92 93 94 97 98 93 91 96 95 96 97
59 61 60 63 64 62 61 61 62 64 64 65 65 65 61 61 63 56 59 63 61 60 64 68 69 70 70 71 71 72 73 73 73 72 71 71 70 69 69 70 70 69 70 70 71 71 74 77 79 82 85 84 85 88 92 95 97 96 94 92 93 94 94
60 62 62 63 63 62 61 62 62 61 63 63 62 60 63 63 61 59 58 62 62 64 67 69 68 69 69 70 70 72 74 75 75 74 73 73 72 70 68 67 67 66 68 68 70 71 72 74 75 77 80 83 84 86 85 88 96 96 94 93 93 94 92
59 59 61 62 61 60 61 62 61 62 62 62 63 62 64 65 60 62 63 62 64 68 69 69 69 70 71 72 73 72 73 73 72 74 73 74 74 72 69 67 67 67 67 67 68 69 70 71 72 75 76 78 83 85 86 88 88 92 93 92 91 92 91
55 58 60 61 60 59 58 61 62 62 62 62 63 63 63 63 63 65 64 61 61 67 69 69 71 72 74 72 71 69 70 72 73 72 73 73 72 72 71 69 67 67 67 67 67 67 68 69 71 72 73 76 79 85 88 88 86 88 92 91 91 91 91
54 57 58 58 60 60 59 58 60 60 61 60 63 62 65 63 61 62 63 60 62 65 69 70 69 70 69 68 68 69 67 72 71 71 72 71 71 71 71 70 69 67 66 66 66 67 69 70 70 70 70 74 76 78 81 86 89 90 89 90 91 88 90
53 56 57 56 58 59 55 58 61 60 61 63 63 63 62 63 64 62 60 63 66 66 68 67 67 69 69 69 68 68 67 68 71 71 71 71 72 71 70 71 70 69 67 67 67 68 69 69 68 69 70 71 71 72 75 80 85 87 89 86 88 89 90
53 55 55 57 54 47 51 60 64 62 60 60 60 61 62 64 66 66 67 65 65 67 67 67 66 67 68 69 69 70 68 67 68 71 71 72 72 72 71 71 71 71 71 69 68 68 70 70 70 70 71 70 71 72 74 77 79 81 80 82 83 84 86
52 55 54 50 44 50 57 65 65 64 63 63 61 61 62 64 65 65 64 64 64 64 67 67 67 67 69 70 73 71 72 68 68 69 71 71 71 71 71 70 71 70 71 71 71 69 70 71 71 72 72 72 72 73 74 74 77 78 80 80 80 82 84
57 53 53 40 46 54 60 63 64 64 65 64 62 58 61 63 65 65 63 63 63 62 64 68 69 69 71 72 73 73 72 72 68 68 70 71 72 72 72 72 71 71 72 71 71 70 71 73 74 73 72 73 73 73 74 73 74 75 78 77 77 78 80
49 54 54 53 55 55 57 57 60 63 58 60 58 54 60 63 65 65 64 62 62 62 64 67 69 70 72 69 70 73 72 72 72 70 70 72 73 73 73 75 75 74 74 74 75 74 73 73 72 73 74 73 73 72 72 73 73 73 72 72 73 74 73
56 51 50 51 49 44 54 57 62 64 64 63 62 58 58 63 67 67 65 61 60 62 65 66 67 68 65 64 65 69 72 73 73 74 72 74 74 75 75 75 76 75 75 75 76 77 77 75 73 73 74 73 73 73 72 72 73 74 72 72 71 70 72
54 51 44 44 41 49 55 57 60 64 66 65 63 57 54 62 65 63 65 65 62 62 63 63 66 64 61 64 62 68 70 72 74 72 73 72 75 75 75 75 75 75 74 74 76 77 77 74 75 76 74 74 74 73 73 72 72 73 73 72 71 71 71
53 51 47 45 52 49 56 60 62 65 66 64 60 46 49 56 63 64 64 63 64 63 62 64 63 62 60 65 62 70 71 72 73 72 71 71 72 74 75 77 75 74 73 74 75 76 77 74 77 77 77 75 73 73 73 73 73 72 72 72 73 73 72
52 47 50 55 55 59 60 61 64 65 65 61 49 43 50 56 61 63 63 65 65 64 63 64 60 65 67 66 68 71 71 72 72 73 74 73 73 73 75 75 72 74 75 75 75 76 76 75 78 78 77 74 71 72 73 73 71 73 74 73 73 73 73
50 53 49 50 56 60 63 64 64 64 58 47 49 55 60 63 62 63 64 63 64 64 63 64 64 65 67 68 68 69 70 69 70 71 72 73 73 74 74 71 72 74 75 74 74 77 77 78 78 78 76 72 71 72 72 72 73 75 75 75 75 74 73
53 50 47 45 39 54 63 62 61 62 52 56 57 59 61 63 64 62 63 64 64 64 63 64 64 64 66 66 66 67 67 67 68 68 69 69 69 70 70 71 74 74 73 73 74 75 77 78 77 76 76 72 71 72 71 72 74 74 73 74 74 73 73
48 48 42 44 56 59 63 61 55 60 61 63 62 63 61 64 64 64 63 64 64 64 62 62 63 64 63 64 65 65 65 67 68 68 68 68 69 70 72 73 72 73 71 72 73 75 76 75 75 75 73 71 71 70 71 74 74 74 73 73 72 73 74
53 51 56 59 61 64 65 64 63 63 64 64 63 63 62 61 64 66 64 63 64 63 62 62 62 62 64 64 65 64 64 65 66 66 66 66 67 68 69 70 70 70 71 70 71 73 74 73 73 73 73 71 71 70 72 74 73 73 73 73 72 72 73
61 62 62 63 63 63 64 66 67 65 64 66 65 63 62 64 64 65 63 64 64 63 62 61 62 62 63 63 64 64 65 64 65 65 65 66 67 68 69 69 69 68 69 70 70 70 71 73 73 72 73 73 70 71 74 74 74 74 73 71 71 72 72
52 47 62 61 62 64 64 65 66 66 66 65 65 63 63 64 65 64 65 64 63 63 63 61 60 61 62 62 62 63 63 63 63 64 63 64 64 64 65 66 66 66 67 67 67 67 67 70 72 74 73 74 74 74 74 76 76 74 73 72 71 71 72
52 54 60 60 63 63 65 66 64 64 64 65 66 65 65 65 65 64 64 64 63 64 63 62 61 61 62 61 61 61 61 61 62 62 62 62 63 64 64 65 65 64 65 64 65 65 65 67 70 71 72 72 74 75 76 76 76 73 71 72 72 72 73
58 60 61 62 62 62 63 64 65 67 67 66 65 65 65 64 63 63 64 64 63 64 62 62 61 60 61 62 61 60 60 60 61 61 61 62 62 63 63 63 63 63 63 64 63 64 64 67 68 68 70 71 72 73 73 74 73 71 70 70 71 71 72
52 54 58 60 53 55 62 63 64 65 67 66 65 65 64 64 63 62 62 63 64 64 64 63 63 61 61 62 62 61 61 61 61 61 61 61 61 62 63 64 64 63 64 63 64 64 64 66 66 67 68 70 71 73 74 73 72 70 70 70 70 72 73
52 60 62 62 61 61 62 65 68 67 68 66 64 63 63 64 64 63 62 61 62 62 64 65 63 61 60 62 63 61 62 61 62 61 61 60 60 61 62 62 63 63 63 63 64 64 65 66 66 66 67 69 70 71 72 73 72 71 70 70 70 72 72
59 62 62 62 59 57 62 66 67 67 68 66 64 64 65 64 64 64 62 62 60 61 64 64 64 62 61 61 62 61 61 62 61 61 61 61 62 62 63 62 62 62 62 63 63 63 65 65 65 66 68 69 70 72 72 73 73 71 70 68 68 70 72
54 61 63 63 62 62 65 66 67 68 67 66 64 64 64 63 64 64 62 62 63 61 59 59 62 63 62 61 61 60 60 61 61 60 60 60 61 60 61 61 61 61 62 64 64 65 65 65 65 66 66 67 70 72 72 73 73 71 70 69 68 69 70

ECMWFFLT2_sfc_temp_087.txt.gz
Temp
83 83 87 86 86 69 80 80 72 78 89 84 74 75 80 79 73 69 80 70 71 78 82 84 85 84 83 85 85 85 84 85 85 85 89 89 88 83 80 85 87 87 90 88 87 86 87 88 92 92 89 92 91 91 90 88 89 89 89 89 90 90 89
84 87 86 87 87 86 81 73 80 88 92 88 77 68 72 69 65 68 78 69 65 68 58 80 80 80 81 81 82 83 82 84 83 84 85 85 86 85 83 85 84 86 88 87 88 87 89 91 94 93 92 92 92 89 89 89 88 87 88 91 91 91 89
81 86 85 81 86 90 82 80 90 78 70 66 73 67 60 63 63 67 72 76 70 72 66 73 73 75 77 78 79 81 80 80 80 82 84 85 87 85 86 84 83 84 83 84 85 85 89 88 90 91 91 96 93 93 92 90 90 91 92 94 94 92 92
80 81 80 68 75 85 87 87 81 88 82 73 68 71 72 73 64 65 68 74 62 73 71 73 72 75 76 77 77 77 79 79 80 81 82 84 85 85 85 84 82 79 79 80 81 79 78 82 86 91 93 96 93 93 92 92 92 91 91 91 92 92 94
80 70 76 74 76 73 77 78 77 81 82 86 82 81 73 70 65 66 65 65 62 70 78 76 73 75 77 77 75 76 77 79 80 79 79 79 81 82 83 86 85 86 83 78 77 77 76 78 83 85 95 94 92 94 93 92 90 91 91 93 93 92 94
69 75 82 76 77 80 80 77 74 81 76 71 67 65 82 79 71 62 67 59 60 70 80 79 78 79 78 79 77 76 78 79 77 77 77 77 79 80 82 84 86 87 86 83 81 80 78 76 80 85 90 91 88 89 94 91 92 92 92 91 93 93 94
73 75 77 81 81 81 80 84 80 83 81 78 72 58 68 75 77 81 74 59 55 72 78 80 80 79 79 79 78 77 78 78 78 78 78 78 78 80 81 81 83 84 84 84 84 80 80 76 79 80 85 88 87 86 83 85 89 86 85 93 97 93 94
74 78 80 80 82 80 78 80 79 80 78 81 77 74 75 71 74 70 69 57 56 72 75 78 80 80 81 79 80 77 78 79 78 78 78 76 76 78 80 80 80 80 81 81 81 83 84 80 76 75 80 83 82 80 82 81 82 80 90 95 98 93 94
65 68 73 75 79 79 76 77 80 78 80 79 79 76 75 66 72 75 70 51 58 69 75 79 79 81 80 79 80 80 76 77 78 78 77 76 76 76 78 78 78 78 77 77 77 80 83 84 84 80 79 79 78 77 80 79 78 81 78 91 87 93 96
50 50 52 56 63 68 76 77 74 76 76 75 73 67 69 60 68 68 66 54 63 67 71 76 78 77 76 79 80 81 80 76 76 77 77 76 76 74 76 77 77 75 75 76 76 77 80 85 85 81 77 78 81 78 79 80 81 79 80 87 89 86 92
56 54 61 72 76 75 70 70 72 73 75 76 76 73 68 65 69 66 62 61 59 65 71 73 74 75 75 76 77 77 78 79 77 76 76 76 75 74 75 74 75 74 74 74 76 76 80 81 82 83 83 81 82 81 81 79 78 82 86 88 89 88 85
66 69 68 72 74 72 73 71 70 72 71 72 73 69 66 69 65 59 61 65 64 65 71 73 73 74 73 75 76 78 78 79 80 78 76 75 76 75 74 73 72 73 73 74 75 76 78 79 80 81 84 84 83 80 77 78 78 80 80 80 86 89 83
68 70 71 72 72 71 69 70 70 70 70 71 70 67 69 70 64 58 62 65 64 68 72 74 73 74 74 75 76 78 80 82 80 78 77 77 76 76 75 73 71 71 72 72 73 75 76 78 78 78 80 81 79 80 78 78 78 78 80 85 85 89 87
67 67 69 71 69 68 69 70 69 70 72 70 70 70 72 72 67 69 67 66 67 71 71 74 75 77 76 76 78 78 78 78 78 80 77 78 77 76 75 74 74 73 72 72 72 74 75 76 76 78 77 79 80 81 81 81 81 83 82 81 85 90 90
63 66 67 70 69 67 67 69 69 70 71 71 71 72 72 72 72 72 72 65 66 74 76 74 76 77 78 77 74 74 76 78 80 78 77 77 76 76 74 73 74 74 74 73 72 72 74 75 76 76 76 77 80 82 80 79 80 82 83 84 83 87 88
61 65 66 66 68 68 67 66 68 68 68 67 69 69 73 71 66 69 68 62 61 71 76 77 77 76 74 72 72 72 73 79 76 76 76 75 74 75 75 73 74 75 75 74 73 73 75 77 77 77 75 77 79 79 81 79 79 79 82 80 79 76 77
60 64 66 65 65 65 61 64 68 69 70 71 74 72 72 72 73 69 64 63 69 72 75 74 74 77 75 73 74 72 72 74 76 75 75 76 75 74 74 74 73 74 76 75 74 74 74 75 75 76 76 77 75 77 77 79 81 78 78 81 80 79 81
60 62 64 64 61 52 55 69 75 72 69 70 67 68 69 71 73 69 71 69 72 73 74 73 72 74 72 72 72 75 73 72 73 76 76 77 76 76 74 74 74 75 75 76 76 76 75 75 76 77 77 77 77 77 77 77 77 76 76 76 77 78 77
57 60 60 55 48 54 65 72 74 73 71 70 69 69 71 71 72 73 71 72 72 74 75 75 74 73 73 76 76 76 75 73 74 74 75 75 76 75 75 74 74 74 74 75 76 77 78 77 76 79 78 79 78 78 78 76 75 75 74 74 74 75 77
64 57 55 43 50 61 68 70 72 73 73 71 69 64 67 70 72 72 70 71 71 71 74 76 75 78 80 78 78 75 77 76 72 73 75 76 77 76 76 76 74 75 75 75 76 76 80 81 79 80 78 79 79 79 80 78 76 76 75 73 73 73 74
53 57 57 55 58 60 63 63 65 69 64 66 64 59 65 71 73 73 69 70 72 72 73 75 76 75 79 76 74 77 78 77 77 74 74 77 77 78 78 79 78 77 78 78 79 79 79 80 79 79 79 77 77 77 78 77 76 76 75 74 73 72 72
61 55 54 55 52 47 57 63 68 72 71 70 69 64 62 70 73 74 72 69 70 71 72 73 74 74 70 67 68 76 77 78 78 78 77 78 79 79 79 80 80 79 78 79 80 81 81 81 80 80 80 78 77 76 76 77 77 77 75 74 74 72 72
58 56 49 51 46 53 59 62 67 70 72 72 69 62 58 67 72 73 73 71 70 70 70 70 70 68 64 66 66 72 75 77 78 77 77 77 79 79 79 80 78 79 77 77 80 81 81 80 80 82 81 79 78 77 77 77 78 76 74 75 74 73 72
58 56 51 50 58 52 59 64 67 71 73 70 65 50 54 66 72 72 71 71 69 69 69 70 68 65 64 63 67 75 76 76 78 76 75 76 76 78 80 81 78 77 77 78 79 80 81 78 81 82 83 81 77 76 77 77 77 76 75 74 75 76 74
58 54 56 60 57 60 65 66 70 71 71 66 53 46 55 65 69 69 70 71 72 71 69 68 65 69 73 70 73 75 77 76 75 77 77 77 77 76 78 77 74 78 79 79 79 80 80 79 82 83 82 80 76 76 76 76 75 77 76 76 75 75 75
56 57 54 56 57 61 68 69 70 70 62 51 52 58 67 67 68 70 71 73 72 71 70 71 70 72 75 74 74 74 74 73 73 75 76 76 77 78 76 75 76 77 79 77 78 81 81 82 83 82 80 76 74 75 76 75 77 79 78 77 76 75 75
59 57 52 50 44 57 68 66 66 66 57 57 62 65 67 70 68 68 69 69 70 70 68 70 69 70 72 71 71 71 72 72 72 72 73 72 72 73 73 75 77 77 75 76 77 78 81 82 81 80 79 75 74 75 74 75 78 78 78 78 77 76 75
52 53 49 49 58 63 68 67 61 64 67 68 68 68 64 67 68 68 67 69 69 71 69 69 70 70 68 69 70 70 70 72 72 72 72 71 72 73 76 76 75 75 74 75 76 77 78 78 78 78 76 73 73 73 73 76 77 77 77 77 77 76 76
59 55 57 60 66 68 70 69 67 68 69 70 68 68 67 67 69 72 71 69 70 70 69 68 68 68 69 69 70 69 69 70 71 70 70 70 70 72 72 73 73 73 73 72 74 75 76 76 76 75 76 73 73 72 75 76 76 76 76 77 76 76 76
66 68 68 68 68 68 69 71 70 69 69 72 71 68 68 69 70 71 70 71 72 71 70 68 67 67 68 68 69 69 69 69 69 69 69 69 70 71 72 71 71 71 72 73 73 72 73 74 75 74 76 76 73 73 76 76 77 78 77 76 75 74 76
57 51 67 66 66 69 69 70 71 70 71 70 70 69 68 69 70 70 70 69 68 68 68 66 65 65 66 66 67 67 67 67 67 68 67 67 67 67 67 68 68 69 69 70 69 70 69 72 73 75 75 76 75 75 75 78 79 78 77 76 74 75 75
58 59 64 65 68 68 70 71 69 68 69 69 71 70 70 70 69 70 69 69 68 69 68 67 65 65 67 66 66 67 67 67 67 67 67 66 66 67 67 67 67 67 68 67 67 68 68 69 71 72 73 73 75 76 77 78 78 76 74 74 75 75 76
63 66 66 67 68 67 68 69 71 72 72 72 71 71 70 69 68 68 69 69 69 69 68 68 66 64 65 66 66 66 66 66 66 66 66 66 66 66 66 66 66 65 66 66 66 66 67 69 70 70 71 72 73 73 73 75 74 73 73 73 73 73 75
57 59 63 66 57 58 66 68 68 69 72 71 71 70 69 69 67 67 67 68 69 69 69 67 67 64 65 66 67 66 66 65 66 66 65 66 66 66 67 66 67 66 66 66 66 66 67 69 69 69 70 70 71 73 73 74 73 72 72 73 73 74 75
57 63 65 64 63 62 65 67 70 71 70 70 69 68 68 69 70 69 67 65 67 68 69 71 69 67 67 67 67 66 66 66 66 65 65 64 65 65 65 65 65 65 65 66 66 66 67 68 69 69 69 70 71 72 72 73 73 72 72 72 73 74 74
62 65 65 66 63 61 64 67 68 70 72 71 69 70 70 70 69 69 68 67 66 67 68 69 69 68 68 67 67 65 65 66 66 65 66 66 65 65 65 65 64 64 65 65 65 66 67 68 68 68 69 70 70 72 72 73 73 72 72 72 71 73 74
59 64 64 64 65 65 68 68 69 70 71 71 69 69 69 69 69 70 68 67 67 66 66 67 68 68 66 65 66 66 65 65 65 64 64 63 64 63 64 64 64 65 65 66 67 67 68 67 67 68 68 69 70 71 71 72 71 70 70 71 72 73 74